[[{"header":{"parameterUnit":"m.s-1","parameterCategory":1,"la1":30.6,"la2":29.2853,"lo1":-89.7004,"lo2":-87.6739,"dy":0.0162,"dx":0.0183,"nx":112,"ny":82,"refTime":"2023-04-23T06:00:00:Z","depth":0,"parameterNumber":2,"parameterNumberName":"U-component_of_WINDS"},"data":[0.0,0.0,0.0,0.0,0.0,0.0,0.0,0.0,0.0,0.0,0.0,0.0,0.0,0.0,0.0,0.0,0.0,0.0,0.0,0.0,0.0,0.0,0.0,0.0,0.0,0.0,0.0,0.0,0.0,0.0,0.0,0.0,0.0,0.0,0.0,0.0,0.0,0.0,0.0,0.0,0.0,0.0,0.0,0.0,0.0,0.0,0.0,0.0,0.0,0.0,0.0,0.0,0.0,0.0,0.0,0.0,0.0,0.0,0.0,0.0,0.0,0.0,0.0,0.0,0.0,0.0,0.0,0.0,0.0,0.0,0.0,0.0,0.0,0.0,0.0,0.0,0.0,0.0,0.0,0.0,0.0,0.0,0.0,0.0,0.0,0.0,0.0,0.0,0.0,0.0,0.0,7.1866,8.0819,8.6172,8.5778,8.1426,7.5294,6.7101,0.0,0.0,0.0,0.0,0.0,0.0,0.0,0.0,0.0,0.0,0.0,0.0,0.0,0.0,0.0,0.0,0.0,0.0,0.0,0.0,0.0,0.0,0.0,0.0,0.0,0.0,0.0,0.0,0.0,0.0,0.0,0.0,0.0,0.0,0.0,0.0,0.0,0.0,0.0,0.0,0.0,0.0,0.0,0.0,0.0,0.0,0.0,0.0,0.0,0.0,0.0,0.0,0.0,0.0,0.0,0.0,0.0,0.0,0.0,0.0,0.0,0.0,0.0,0.0,0.0,0.0,0.0,0.0,0.0,0.0,0.0,0.0,0.0,0.0,0.0,0.0,0.0,0.0,0.0,0.0,0.0,0.0,0.0,0.0,0.0,0.0,0.0,0.0,0.0,0.0,0.0,0.0,0.0,0.0,0.0,0.0,0.0,0.0,0.0,0.0,0.0,0.0,0.0,0.0,7.0818,8.1321,8.6261,8.7905,8.5547,8.0422,7.4111,6.6574,0.0,0.0,0.0,0.0,0.0,0.0,0.0,0.0,0.0,0.0,0.0,0.0,0.0,0.0,0.0,0.0,0.0,0.0,0.0,0.0,0.0,0.0,0.0,0.0,0.0,0.0,0.0,0.0,0.0,0.0,0.0,0.0,0.0,0.0,0.0,0.0,0.0,0.0,0.0,0.0,0.0,0.0,0.0,0.0,0.0,0.0,0.0,0.0,0.0,0.0,0.0,0.0,0.0,0.0,0.0,0.0,0.0,0.0,0.0,0.0,0.0,0.0,0.0,0.0,0.0,0.0,0.0,0.0,0.0,0.0,0.0,0.0,0.0,0.0,0.0,0.0,0.0,0.0,0.0,0.0,0.0,0.0,0.0,0.0,0.0,0.0,0.0,0.0,0.0,0.0,0.0,0.0,0.0,0.0,0.0,0.0,0.0,0.0,0.0,0.0,0.0,0.0,0.0,6.7787,7.3662,8.3536,8.6289,8.6956,8.5733,8.0105,7.3967,6.7694,6.1691,0.0,0.0,0.0,0.0,0.0,0.0,0.0,0.0,0.0,0.0,0.0,0.0,0.0,0.0,0.0,0.0,0.0,0.0,0.0,0.0,0.0,0.0,0.0,0.0,0.0,0.0,0.0,0.0,0.0,0.0,0.0,0.0,0.0,0.0,0.0,0.0,0.0,0.0,0.0,0.0,0.0,0.0,0.0,0.0,0.0,0.0,0.0,0.0,0.0,0.0,0.0,0.0,0.0,0.0,0.0,0.0,0.0,0.0,0.0,0.0,0.0,0.0,0.0,0.0,0.0,0.0,0.0,0.0,0.0,0.0,0.0,0.0,0.0,0.0,0.0,0.0,0.0,0.0,0.0,0.0,0.0,0.0,0.0,0.0,0.0,0.0,0.0,0.0,0.0,0.0,0.0,0.0,0.0,0.0,0.0,0.0,0.0,0.0,0.0,0.0,0.0,0.0,7.2542,7.6998,8.4378,8.5728,8.5874,8.5278,7.9474,7.3534,6.8091,6.1119,0.0,0.0,0.0,0.0,0.0,0.0,0.0,0.0,0.0,0.0,0.0,0.0,0.0,0.0,0.0,0.0,0.0,0.0,0.0,0.0,0.0,0.0,0.0,0.0,0.0,0.0,0.0,0.0,0.0,0.0,0.0,0.0,0.0,0.0,0.0,0.0,0.0,0.0,0.0,0.0,0.0,0.0,0.0,0.0,0.0,0.0,0.0,0.0,0.0,0.0,0.0,0.0,0.0,0.0,0.0,0.0,0.0,0.0,0.0,0.0,0.0,0.0,0.0,0.0,0.0,0.0,0.0,0.0,0.0,0.0,0.0,0.0,0.0,0.0,0.0,0.0,0.0,0.0,0.0,0.0,0.0,0.0,0.0,0.0,0.0,0.0,0.0,0.0,0.0,0.0,0.0,0.0,0.0,0.0,0.0,0.0,0.0,0.0,0.0,0.0,0.0,0.0,7.711,8.245,8.6391,8.6949,8.6018,8.3531,7.795,7.2085,6.6178,6.0237,0.0,0.0,0.0,0.0,0.0,0.0,0.0,0.0,0.0,0.0,0.0,0.0,0.0,0.0,0.0,0.0,0.0,0.0,0.0,0.0,0.0,0.0,0.0,0.0,0.0,0.0,0.0,0.0,0.0,0.0,0.0,0.0,0.0,0.0,0.0,0.0,0.0,0.0,0.0,0.0,0.0,0.0,0.0,0.0,0.0,0.0,0.0,0.0,0.0,0.0,0.0,0.0,0.0,0.0,0.0,0.0,0.0,0.0,0.0,0.0,0.0,0.0,0.0,0.0,0.0,0.0,0.0,0.0,0.0,0.0,0.0,0.0,0.0,0.0,0.0,0.0,0.0,0.0,0.0,0.0,0.0,0.0,0.0,0.0,0.0,0.0,0.0,0.0,0.0,0.0,0.0,0.0,0.0,0.0,0.0,0.0,0.0,0.0,0.0,0.0,0.0,0.0,7.4953,7.9422,0.0,8.5126,8.4058,8.2123,7.6998,7.1666,6.6484,0.0,0.0,0.0,0.0,0.0,0.0,0.0,0.0,0.0,0.0,0.0,0.0,0.0,0.0,0.0,0.0,0.0,0.0,0.0,0.0,0.0,0.0,0.0,0.0,0.0,0.0,0.0,0.0,0.0,0.0,0.0,0.0,0.0,0.0,0.0,0.0,0.0,0.0,0.0,0.0,0.0,0.0,0.0,0.0,0.0,0.0,0.0,0.0,0.0,0.0,0.0,0.0,0.0,0.0,0.0,0.0,0.0,0.0,0.0,0.0,0.0,0.0,0.0,0.0,0.0,0.0,0.0,0.0,0.0,0.0,0.0,0.0,0.0,0.0,0.0,0.0,0.0,0.0,0.0,0.0,0.0,0.0,0.0,0.0,0.0,0.0,0.0,0.0,0.0,0.0,0.0,0.0,0.0,0.0,0.0,0.0,0.0,0.0,0.0,0.0,0.0,0.0,7.0909,7.458,7.8611,0.0,8.3727,8.2441,8.075,7.5182,7.0095,6.6077,0.0,0.0,0.0,0.0,0.0,0.0,0.0,0.0,0.0,0.0,0.0,0.0,0.0,0.0,0.0,0.0,0.0,0.0,0.0,0.0,0.0,0.0,0.0,0.0,0.0,0.0,0.0,0.0,0.0,0.0,0.0,0.0,0.0,0.0,0.0,0.0,0.0,0.0,0.0,0.0,0.0,0.0,0.0,0.0,0.0,0.0,0.0,0.0,0.0,0.0,0.0,0.0,0.0,0.0,0.0,0.0,0.0,0.0,0.0,0.0,0.0,0.0,0.0,0.0,0.0,0.0,0.0,0.0,0.0,0.0,0.0,0.0,0.0,0.0,0.0,0.0,0.0,0.0,0.0,0.0,0.0,0.0,0.0,0.0,0.0,0.0,0.0,0.0,0.0,0.0,0.0,0.0,0.0,0.0,0.0,0.0,0.0,0.0,0.0,0.0,0.0,0.0,7.1835,7.7142,8.1593,8.4306,8.3261,8.1494,7.9295,7.2395,6.7093,0.0,0.0,0.0,0.0,0.0,0.0,0.0,0.0,0.0,0.0,0.0,0.0,0.0,0.0,0.0,0.0,0.0,0.0,0.0,0.0,0.0,0.0,0.0,0.0,0.0,0.0,0.0,0.0,0.0,0.0,0.0,0.0,0.0,0.0,0.0,0.0,0.0,0.0,0.0,0.0,0.0,0.0,0.0,0.0,0.0,0.0,0.0,0.0,0.0,0.0,0.0,0.0,0.0,0.0,0.0,0.0,0.0,0.0,0.0,0.0,0.0,0.0,0.0,0.0,0.0,0.0,0.0,0.0,0.0,0.0,0.0,0.0,0.0,0.0,0.0,0.0,0.0,0.0,0.0,0.0,0.0,0.0,0.0,0.0,0.0,0.0,0.0,0.0,0.0,0.0,0.0,0.0,0.0,0.0,0.0,0.0,0.0,0.0,0.0,0.0,0.0,0.0,0.0,0.0,7.6035,8.0066,8.3449,8.2983,8.1291,7.8551,7.2507,6.7688,6.501,0.0,0.0,0.0,0.0,0.0,0.0,0.0,0.0,0.0,0.0,0.0,0.0,0.0,0.0,0.0,0.0,0.0,0.0,0.0,0.0,0.0,0.0,0.0,0.0,0.0,0.0,0.0,0.0,0.0,0.0,0.0,0.0,0.0,0.0,0.0,0.0,0.0,0.0,0.0,0.0,0.0,0.0,0.0,0.0,0.0,0.0,0.0,0.0,0.0,0.0,0.0,0.0,0.0,0.0,0.0,0.0,0.0,0.0,0.0,0.0,0.0,0.0,0.0,0.0,0.0,0.0,0.0,0.0,0.0,0.0,0.0,0.0,0.0,0.0,0.0,0.0,0.0,0.0,0.0,0.0,0.0,0.0,0.0,0.0,0.0,0.0,0.0,0.0,0.0,0.0,0.0,0.0,0.0,0.0,0.0,0.0,0.0,0.0,0.0,0.0,0.0,0.0,7.1877,7.5732,7.9295,8.2712,8.2137,8.0445,7.7773,7.2056,6.7345,6.4287,0.0,0.0,0.0,0.0,0.0,0.0,0.0,0.0,0.0,0.0,0.0,0.0,0.0,0.0,0.0,0.0,0.0,0.0,0.0,0.0,0.0,0.0,0.0,0.0,0.0,0.0,0.0,0.0,0.0,0.0,0.0,0.0,0.0,0.0,0.0,0.0,0.0,0.0,0.0,0.0,0.0,0.0,0.0,0.0,0.0,0.0,0.0,0.0,0.0,0.0,0.0,0.0,0.0,0.0,0.0,0.0,0.0,0.0,0.0,0.0,0.0,0.0,0.0,0.0,0.0,0.0,0.0,0.0,0.0,0.0,0.0,0.0,0.0,0.0,0.0,0.0,0.0,0.0,0.0,0.0,0.0,0.0,0.0,0.0,0.0,0.0,0.0,0.0,0.0,0.0,0.0,0.0,0.0,0.0,0.0,0.0,0.0,0.0,0.0,0.0,0.0,0.0,7.2681,7.5994,7.9025,8.2002,8.0987,7.916,7.6893,7.1278,6.6422,6.2926,0.0,0.0,0.0,0.0,0.0,0.0,0.0,0.0,0.0,0.0,0.0,0.0,0.0,0.0,0.0,0.0,0.0,0.0,0.0,0.0,0.0,0.0,0.0,0.0,0.0,0.0,0.0,0.0,0.0,0.0,0.0,0.0,0.0,0.0,0.0,0.0,0.0,0.0,0.0,0.0,0.0,0.0,0.0,0.0,0.0,0.0,0.0,0.0,0.0,0.0,0.0,0.0,0.0,0.0,0.0,0.0,0.0,0.0,0.0,0.0,5.1034,0.0,0.0,0.0,0.0,0.0,0.0,0.0,0.0,0.0,0.0,0.0,0.0,0.0,0.0,0.0,0.0,0.0,0.0,0.0,0.0,0.0,0.0,0.0,0.0,0.0,0.0,0.0,0.0,0.0,0.0,0.0,0.0,0.0,0.0,0.0,0.0,0.0,0.0,0.0,0.0,0.0,7.306,7.5766,7.8247,8.1224,8.0209,7.8179,7.5314,7.0669,6.6659,6.3727,0.0,0.0,0.0,0.0,0.0,0.0,0.0,0.0,0.0,0.0,0.0,0.0,0.0,0.0,0.0,0.0,0.0,0.0,0.0,0.0,0.0,0.0,0.0,0.0,0.0,0.0,0.0,0.0,0.0,0.0,0.0,0.0,0.0,0.0,0.0,0.0,0.0,0.0,0.0,0.0,0.0,0.0,0.0,0.0,0.0,0.0,0.0,0.0,0.0,0.0,0.0,0.0,0.0,0.0,0.0,0.0,0.0,0.0,0.0,0.0,0.0,5.3341,0.0,0.0,0.0,0.0,0.0,0.0,0.0,0.0,0.0,0.0,0.0,0.0,0.0,0.0,0.0,0.0,0.0,0.0,0.0,0.0,0.0,0.0,0.0,0.0,0.0,0.0,0.0,0.0,0.0,0.0,0.0,0.0,0.0,0.0,0.0,0.0,0.0,0.0,0.0,0.0,7.2029,7.5105,7.7773,8.0006,7.8923,7.713,7.4796,7.05,6.6685,6.386,6.0002,0.0,0.0,0.0,0.0,0.0,0.0,0.0,0.0,0.0,0.0,0.0,0.0,0.0,0.0,0.0,0.0,0.0,0.0,0.0,0.0,0.0,0.0,0.0,0.0,0.0,0.0,0.0,0.0,0.0,0.0,0.0,0.0,0.0,0.0,0.0,0.0,0.0,0.0,0.0,0.0,0.0,0.0,0.0,0.0,0.0,0.0,0.0,0.0,0.0,0.0,0.0,0.0,0.0,6.6308,6.7602,6.9193,6.9603,6.9691,6.9202,6.341,6.0572,5.9711,0.0,0.0,0.0,0.0,0.0,0.0,0.0,0.0,0.0,0.0,0.0,0.0,0.0,0.0,0.0,0.0,0.0,0.0,0.0,0.0,0.0,0.0,0.0,0.0,0.0,6.2904,6.2139,0.0,0.0,0.0,0.0,0.0,0.0,0.0,0.0,0.0,0.0,0.0,0.0,7.095,7.4547,7.7468,7.8932,7.7671,7.6082,7.4559,7.0669,6.7049,6.4052,6.1313,5.8512,0.0,0.0,0.0,0.0,0.0,0.0,0.0,0.0,0.0,0.0,0.0,0.0,0.0,0.0,0.0,0.0,0.0,0.0,0.0,0.0,0.0,0.0,0.0,0.0,0.0,0.0,0.0,0.0,0.0,0.0,0.0,0.0,4.4808,4.6866,0.0,0.0,0.0,0.0,0.0,0.0,0.0,0.0,0.0,0.0,0.0,0.0,0.0,6.3539,6.6879,6.9193,7.1284,7.3163,7.4587,7.5039,7.4734,7.6709,7.76,7.7464,7.5427,0.0,6.6541,6.2115,0.0,0.0,0.0,0.0,0.0,0.0,0.0,0.0,0.0,0.0,0.0,0.0,0.0,0.0,0.0,0.0,0.0,0.0,0.0,0.0,0.0,0.0,6.3608,6.4125,6.4796,6.5122,0.0,6.1789,5.9375,5.875,5.825,0.0,0.0,0.0,0.0,0.0,0.0,0.0,7.1563,7.483,7.7468,7.8932,7.7164,7.527,7.3747,7.1334,6.8605,6.5615,6.3835,6.1569,5.8576,5.7273,0.0,0.0,0.0,0.0,0.0,0.0,0.0,0.0,0.0,0.0,0.0,0.0,0.0,0.0,0.0,0.0,0.0,0.0,0.0,0.0,0.0,0.0,0.0,0.0,0.0,0.0,0.0,0.0,0.0,4.7461,5.1209,5.1422,5.3023,5.3061,0.0,0.0,0.0,0.0,0.0,0.0,0.0,0.0,0.0,6.5392,6.8022,7.0657,7.3232,7.6289,7.8874,8.0919,8.2408,8.3592,8.4505,8.5486,8.6196,8.6535,8.5533,8.2647,7.8098,6.9906,6.6018,6.4753,0.0,0.0,0.0,0.0,5.8168,5.8806,6.0686,6.2462,0.0,0.0,0.0,0.0,0.0,0.0,0.0,0.0,0.0,0.0,0.0,0.0,0.0,6.8128,6.9553,7.0263,6.8593,6.6588,6.4493,0.0,6.1908,6.1913,6.1811,0.0,0.0,0.0,0.0,0.0,7.1973,7.5706,7.8247,7.845,7.6792,7.51,7.3635,7.1469,6.9079,6.6474,6.4952,6.2767,5.9742,5.8998,5.8423,0.0,0.0,0.0,0.0,0.0,0.0,0.0,0.0,0.0,0.0,0.0,0.0,0.0,0.0,0.0,0.0,0.0,0.0,0.0,0.0,0.0,0.0,0.0,0.0,0.0,0.0,0.0,0.0,5.2287,5.6206,5.517,5.7808,5.8355,0.0,0.0,0.0,0.0,0.0,0.0,6.3806,6.5671,6.8863,7.3765,7.6268,7.856,8.0547,8.349,8.6027,8.8091,8.9004,9.0493,9.2455,9.2455,9.2759,9.3237,9.2692,9.0865,8.755,7.7639,7.209,6.9613,6.6984,6.4866,6.3509,6.4307,6.4855,6.5508,6.7297,6.8451,6.9004,6.8127,0.0,6.5507,6.2014,0.0,0.0,0.0,0.0,6.3216,6.663,6.8685,7.0348,7.2259,7.3849,7.4289,7.209,7.1041,6.9301,0.0,6.473,6.4815,6.4282,0.0,0.0,0.0,0.0,7.1129,7.2767,7.6555,7.8822,7.8102,7.6623,7.51,7.3635,7.1616,6.9688,6.7793,6.6271,6.4174,6.1366,6.0892,5.9979,5.849,0.0,0.0,0.0,0.0,0.0,0.0,0.0,0.0,0.0,0.0,0.0,0.0,0.0,0.0,0.0,0.0,0.0,0.0,0.0,0.0,0.0,0.0,0.0,0.0,0.0,0.0,0.0,0.0,0.0,5.5859,6.2146,0.0,0.0,0.0,0.0,6.0608,6.3401,6.7236,7.2037,7.4355,7.7774,8.2704,8.575,8.8355,9.056,9.1474,9.2696,9.4248,9.3605,9.4112,9.5567,9.5567,9.5601,9.5635,9.5601,9.4248,9.158,8.4674,8.0073,7.7043,7.2768,7.1036,7.0968,7.1024,7.1058,7.1354,7.3434,7.4177,7.4346,7.4955,7.3703,7.1096,6.6276,6.575,0.0,0.0,6.5578,6.8417,7.014,7.1894,7.3828,7.6082,7.6115,7.5608,7.5473,7.483,7.2597,0.0,6.5094,6.4945,6.598,0.0,6.6105,6.7987,7.0549,7.2789,7.4289,7.7198,7.8822,7.8102,7.6623,7.51,7.3635,7.2124,7.0906,7.006,6.8571,6.6711,6.4478,6.3024,6.1535,6.0013,5.9268,0.0,0.0,0.0,0.0,0.0,0.0,0.0,0.0,0.0,0.0,0.0,0.0,0.0,0.0,0.0,0.0,0.0,0.0,0.0,0.0,0.0,0.0,0.0,0.0,0.0,0.0,0.0,0.0,6.2299,6.7555,0.0,6.5518,6.6288,6.7454,6.8394,7.1654,7.5589,8.0181,8.3029,8.6196,8.985,9.1947,9.3639,9.492,9.6108,9.6988,9.7529,9.7766,9.8138,9.8645,9.8645,9.8375,9.7901,9.7901,9.665,9.4383,9.1508,8.7144,8.2002,7.8998,7.7532,7.7159,7.7634,7.8108,7.8625,7.9363,7.9329,7.8551,7.6386,7.4187,7.2079,7.0349,7.0495,7.1218,7.0794,7.2202,7.4204,7.5743,7.6608,7.7299,7.8111,7.8111,7.7638,7.669,7.6284,7.5303,7.2631,7.0398,6.9055,6.9443,6.8611,6.8919,7.1988,7.323,7.4728,7.7174,7.8855,7.9329,7.8111,7.6623,7.51,7.3635,7.2157,7.0804,6.9553,6.8504,6.6914,6.4681,6.2719,6.1197,6.0114,5.8457,5.7315,0.0,0.0,0.0,0.0,0.0,0.0,0.0,0.0,0.0,0.0,0.0,0.0,0.0,0.0,0.0,0.0,0.0,0.0,0.0,0.0,0.0,0.0,0.0,0.0,0.0,0.0,6.646,6.7951,7.2963,7.5489,7.351,7.3774,7.5028,7.7276,8.0327,8.3964,8.8131,9.0493,9.289,9.5394,9.665,9.7631,9.8406,9.939,9.9999,10.0202,10.0506,10.0677,10.1014,10.0709,10.0303,9.9863,9.9593,9.8375,9.648,9.5736,9.2387,8.7448,8.4938,8.3456,8.2847,8.3084,8.349,8.3896,8.3625,8.2881,8.1528,7.8551,7.6251,7.4627,7.4356,7.4796,7.554,7.6284,7.7401,7.8653,7.9904,8.0183,8.0183,8.0183,7.9811,7.9194,7.8213,7.7604,7.7096,7.6589,7.4492,7.2676,7.2347,7.1447,7.1671,7.4181,7.4656,7.559,7.7984,7.9137,7.9136,7.765,7.6405,7.51,7.3635,7.2089,7.0478,6.8808,6.7898,6.6356,6.3971,6.2606,6.1244,5.9905,5.8455,5.7502,5.7048,0.0,0.0,0.0,0.0,0.0,0.0,0.0,0.0,0.0,0.0,0.0,0.0,0.0,0.0,0.0,0.0,0.0,0.0,0.0,0.0,0.0,0.0,0.0,5.8125,6.5141,7.0717,7.2375,7.8206,8.1358,7.9508,8.2085,8.4749,8.6926,8.9151,9.2049,9.5702,9.6646,9.7729,9.9119,9.9897,10.0576,10.1386,10.1386,10.1792,10.2502,10.1792,10.1792,10.2502,10.1824,10.1386,10.1418,10.0608,9.9424,9.7969,9.7225,9.5665,9.3431,9.042,8.8767,8.8023,8.7313,8.7008,8.6873,8.6095,8.4877,8.3355,8.1866,8.0386,7.9051,7.8299,7.8578,7.9322,8.0031,8.0792,8.1562,8.2272,8.2475,8.2441,8.2441,8.1325,8.0242,8.0242,7.9092,7.8068,7.8068,7.686,7.5536,7.4531,7.4373,7.445,7.4705,7.5012,0.0,7.6806,7.8009,7.8144,7.6662,7.6005,7.51,7.3578,7.1828,6.9996,6.7975,6.6938,6.5198,6.2516,6.279,6.1897,5.9566,5.9466,5.9194,5.8698,0.0,0.0,0.0,0.0,0.0,0.0,0.0,0.0,0.0,0.0,0.0,0.0,0.0,0.0,0.0,0.0,0.0,0.0,0.0,0.0,0.0,0.0,6.3093,6.4032,6.9142,7.428,7.8345,8.3355,8.5985,8.4721,8.8868,9.1489,9.1223,9.4064,9.6548,9.8104,9.9455,10.0303,10.0808,10.1487,10.1995,10.2198,10.2198,10.2299,10.2502,10.2299,10.2299,10.2502,10.2299,10.1893,10.1418,10.1214,10.0202,9.8747,9.8003,9.7022,9.5766,9.333,9.1541,9.0357,9.0154,8.941,8.8395,8.7651,8.6771,8.5723,8.42,8.2637,8.1105,7.9845,7.9977,8.0602,8.0801,8.2221,8.3734,8.3937,8.3625,8.3186,8.3186,8.2069,8.0987,8.0987,8.0242,7.96,7.96,7.9667,7.9329,7.7979,7.8215,7.8942,8.0072,7.9854,0.0,8.0746,7.977,7.8344,7.6687,7.6005,7.4793,7.2603,7.0681,6.8857,6.7197,6.4857,6.32,6.2434,6.1443,6.0608,5.9943,5.8732,5.8455,0.0,0.0,0.0,0.0,0.0,0.0,0.0,0.0,0.0,0.0,0.0,0.0,0.0,0.0,0.0,0.0,0.0,0.0,0.0,0.0,0.0,0.0,6.4892,7.0311,7.2982,7.5535,7.8807,8.3309,8.6737,8.8876,8.9376,9.2217,9.4124,9.4293,9.616,9.7755,9.8779,9.9442,9.9774,9.9774,9.9941,10.0007,10.0007,10.0007,10.0007,10.0007,10.0886,10.1186,10.1286,10.2078,10.2299,0.0,10.1487,10.0675,9.9491,9.8781,9.7834,0.0,0.0,0.0,0.0,0.0,9.0087,8.8998,8.826,8.7234,8.6067,8.4863,8.335,8.1772,8.0636,8.0601,8.1007,8.1438,8.2554,8.3756,8.4419,8.4275,8.3964,8.3964,8.2847,8.1677,8.131,8.0407,7.9527,7.9152,7.9407,0.0,7.8978,7.9778,8.0588,8.0953,8.0702,8.0493,8.0524,7.987,7.8631,7.6721,7.6005,7.4884,7.2818,7.0355,0.0,0.0,0.0,6.2527,6.2243,6.0984,0.0,0.0,0.0,5.9525,5.9964,0.0,0.0,0.0,5.8259,5.8192,0.0,0.0,0.0,0.0,0.0,0.0,0.0,0.0,0.0,0.0,0.0,0.0,0.0,0.0,0.0,0.0,7.1063,7.745,8.2545,8.2986,8.3989,8.7173,8.8873,9.057,9.2678,9.3382,9.4428,9.6189,9.6535,9.7189,9.8435,0.0,0.0,0.0,0.0,9.6666,9.6607,9.6607,9.6607,9.6607,9.8552,9.9494,9.9563,10.1618,10.2502,10.2502,10.1599,10.0692,9.9849,9.9174,9.8051,9.6548,9.4518,9.3706,9.3436,9.1169,8.9951,8.9309,8.82,0.0,0.0,8.4435,8.2968,8.1411,8.0742,8.0487,8.0605,8.1502,8.1976,8.2515,8.3981,8.4473,8.4526,8.4392,8.326,8.2013,8.1035,7.9716,7.8509,7.765,7.7575,7.7828,7.8497,7.9716,8.0301,7.9249,7.9156,7.8955,7.8217,7.8901,7.8699,7.6705,0.0,0.0,7.3454,7.0501,6.7928,6.6068,6.4274,6.2878,6.1985,6.1153,6.1293,6.2549,6.175,6.1213,6.0998,6.1108,6.1298,6.1501,5.9485,5.9248,0.0,0.0,0.0,0.0,0.0,0.0,0.0,0.0,0.0,0.0,0.0,0.0,0.0,0.0,0.0,7.0676,7.6982,8.2327,8.551,8.7646,8.8785,8.8506,9.0532,9.1746,9.1193,9.4481,9.6392,9.5805,9.7204,9.8212,9.8499,9.8371,9.8057,9.7519,9.7397,9.7077,9.6607,9.6607,9.6607,9.6607,0.0,0.0,9.9563,10.1618,10.2502,10.2405,10.0619,9.9149,9.7923,9.7724,9.7012,9.5905,9.489,9.4485,9.4214,9.1913,9.1372,9.13,8.7966,8.6981,8.6729,8.3978,8.1982,8.0517,7.9765,7.9173,0.0,7.9,8.0585,8.2288,8.2572,8.3647,8.4251,8.297,8.1994,8.0946,7.9395,7.8399,7.7706,7.7538,7.7988,7.8433,7.8561,7.8847,7.9201,7.9594,7.872,7.8409,7.9463,7.8323,7.7155,7.6564,7.6005,7.4793,7.249,7.0276,6.8596,6.7523,6.5486,6.3515,6.1742,6.1492,6.1317,6.1096,5.9804,5.9892,6.1468,6.0861,6.1424,6.3037,6.1419,6.1453,0.0,0.0,0.0,0.0,0.0,0.0,0.0,0.0,0.0,0.0,0.0,5.7327,0.0,0.0,7.26,7.7026,8.224,8.6578,8.8813,9.0579,9.1147,8.983,9.1374,9.2345,9.165,9.3658,9.4898,9.4602,9.5505,9.6166,9.6537,9.6228,9.5742,9.51,9.4729,9.4233,9.3622,9.3923,9.3923,9.3622,9.5912,9.6853,9.6612,9.8655,9.9527,9.9492,9.8481,9.7278,9.5881,9.5132,9.4343,9.353,9.2773,9.2924,9.3284,9.1238,9.03,8.959,8.6696,8.5179,8.425,8.264,8.0955,7.9451,7.8776,7.835,7.8094,7.8264,7.9257,8.0372,8.0863,8.1592,8.1997,8.1209,8.0389,7.9494,7.8214,7.737,7.6744,7.6268,7.6481,7.673,7.673,7.673,7.7431,7.9495,7.9195,7.876,7.8813,7.8602,7.7806,7.6261,7.6227,7.5324,7.2943,7.0501,6.8605,6.7421,6.6305,6.4971,6.3265,6.3199,6.2727,6.1726,6.0978,6.1122,6.2155,6.1744,6.2093,6.3078,6.2333,6.2582,0.0,0.0,0.0,0.0,0.0,0.0,0.0,0.0,5.4871,5.7919,6.102,6.4371,6.8152,7.3799,7.9132,8.2845,8.694,9.019,9.1776,9.2583,9.2613,9.1494,9.2105,9.2703,9.2972,9.2853,9.3122,9.39,9.384,9.402,9.4588,9.396,9.3272,9.2613,9.2075,9.1464,9.0806,9.1315,9.1315,9.0818,9.3228,9.4109,9.3669,9.5677,9.6607,9.657,9.5913,9.4964,9.3819,9.2383,9.1645,9.1296,9.0589,9.0881,9.1563,8.981,8.8584,8.7385,8.518,8.3281,8.1715,8.109,7.9945,7.8699,7.816,7.7921,7.7845,7.8148,7.823,7.8481,7.9289,7.9654,7.9712,7.9404,7.8835,7.8089,7.7067,7.6367,7.5726,7.5056,7.4903,7.4903,7.4903,7.4903,7.5796,7.8471,7.8752,7.8339,7.7533,7.8539,7.8484,7.6352,7.6584,7.5912,7.35,7.0973,6.8835,6.718,6.7057,6.6268,6.4538,6.4435,6.3797,6.2436,6.2411,6.2504,6.2752,6.2752,6.29,6.3145,6.3145,6.3339,4.9561,4.7919,0.0,4.8616,5.0473,5.3363,0.0,0.0,6.3105,6.7375,7.0462,7.3253,7.6048,8.0955,8.5348,8.7596,9.0811,9.3122,9.3332,9.396,9.4319,9.4199,9.3242,9.3062,9.4259,9.384,9.399,9.5277,9.4828,9.4528,9.4618,9.396,9.3272,9.2613,9.2524,9.2165,9.1464,9.1566,9.1566,9.1506,9.2992,9.3653,9.3669,9.5677,9.6607,9.6432,9.3442,9.2045,9.172,9.0358,9.0359,9.116,9.0554,8.996,8.9299,8.7847,8.7653,8.7613,8.3952,8.2917,8.2783,7.9985,7.8969,7.8789,7.8699,7.828,7.7807,7.787,7.8087,7.8343,7.8447,7.9132,7.9436,7.7901,7.7518,7.7033,7.5493,7.5086,7.5018,7.4937,7.4903,7.4903,7.4903,7.4903,7.504,7.5418,7.4939,7.4988,7.6205,7.6692,7.7041,7.7506,7.7161,7.5709,7.2766,7.1616,7.0163,6.8101,6.7965,6.6509,6.3345,6.3184,6.2589,6.1305,6.1278,6.1819,6.298,6.298,6.3572,6.4647,6.4647,6.4338,5.2551,0.0,0.0,0.0,5.6265,5.9891,6.4677,6.7089,6.9449,7.3597,7.7199,8.0398,8.3068,8.6629,8.9801,0.0,9.3272,9.4439,9.526,9.5247,9.4888,9.411,9.3511,9.3691,9.5037,9.4588,9.4588,9.5516,9.4977,9.4618,9.4618,9.396,9.3451,9.3182,9.2434,9.2075,9.2194,9.2194,9.2015,9.1626,9.2542,9.26,9.1881,9.2704,9.3101,9.2969,9.085,8.9867,8.9775,8.8409,8.7906,8.7987,8.771,8.7186,8.6526,8.6213,8.6104,8.5676,8.299,8.1727,8.1164,8.0278,7.9417,7.8878,7.9267,7.8908,7.822,7.7442,7.7308,7.7259,7.6504,7.6646,7.6763,7.6066,7.5899,7.5728,7.5074,7.4903,7.4903,7.4903,7.4903,7.4903,7.4903,7.4903,7.4903,7.4903,7.4663,7.4421,7.4276,7.515,7.5946,7.6506,7.4787,7.3622,7.3675,7.1102,6.9616,6.9935,6.8486,6.6729,6.489,6.4437,6.3599,6.2269,6.2241,6.2523,6.3052,6.3052,6.3327,6.3841,6.3841,6.3691,5.4637,0.0,0.0,5.8753,6.2333,6.6279,7.0447,7.3073,7.5677,7.9477,8.2828,8.591,8.8574,9.0608,9.2554,9.4558,9.5187,9.5666,9.6518,9.5995,9.4947,9.3242,9.2554,9.2763,9.408,9.4289,9.4678,9.5546,9.4977,9.4618,9.4618,9.396,9.3571,9.3571,9.2673,9.2374,9.2853,9.2673,9.2374,9.1895,9.2015,9.1566,9.0597,9.0597,9.0597,9.0537,8.9262,8.8693,8.8574,8.7267,8.6389,8.594,8.5761,8.5402,8.4958,8.4985,8.4709,8.4,8.2182,8.1003,8.0345,8.0285,7.9716,7.9118,7.9447,7.9178,7.8579,7.7622,7.7233,7.6808,7.5707,7.5288,7.5108,7.4963,7.4903,7.4903,7.4903,7.4903,7.4903,7.4903,7.4903,7.4903,7.4903,7.4903,7.4903,7.4903,7.4903,7.4574,7.3582,7.4312,7.4953,7.5088,7.2794,7.1852,7.3275,7.0362,6.8915,7.0079,6.8098,6.647,6.5548,6.4878,6.4097,6.3137,6.3108,6.3108,6.3108,6.3108,6.3197,6.3347,6.3347,6.3467,5.5247,0.0,5.8665,6.4006,6.8026,7.1879,7.6485,7.9597,8.2447,8.577,8.7556,8.9352,9.1955,9.2524,9.3212,9.5247,9.6593,9.7222,9.6697,9.5995,9.4618,9.1985,9.001,8.9352,0.0,9.2494,9.4169,9.5486,9.4977,9.4618,9.4618,9.396,9.3571,9.3571,9.3541,9.3541,9.3541,9.2913,9.2583,9.2554,9.1255,9.0627,9.0597,9.0597,9.0597,9.0537,8.9262,8.8693,8.8574,8.7267,8.6698,8.6608,8.594,8.5671,8.5492,8.4213,8.3734,8.3435,8.1482,8.1212,8.1392,7.9477,7.9267,7.9656,7.9028,7.8819,7.8789,7.8729,7.828,7.7622,7.6898,7.6335,7.5707,7.5018,7.4903,7.4903,7.4903,7.4903,7.4903,7.4903,7.4903,7.4903,7.4903,7.4903,7.4903,7.4903,7.4903,7.4903,7.4843,7.4497,7.4057,7.3607,7.2247,7.1127,7.0476,6.9607,6.8549,6.7324,6.6561,6.5492,6.4123,6.3495,6.3137,6.3108,6.3108,6.3108,6.3108,6.3108,6.3378,6.3977,6.3977,6.4336,5.8049,0.0,6.6914,7.0789,7.5301,7.9663,8.2948,8.5471,8.7467,8.8993,8.8436,8.7846,8.8266,8.7112,8.7371,9.1311,9.3072,9.4698,9.6877,9.6982,9.5247,9.0848,9.0519,0.0,0.0,0.0,0.0,9.4738,9.4319,9.4139,9.4588,9.396,9.378,9.4259,9.2972,9.2703,9.3571,9.2494,9.1955,9.1955,9.1016,9.0597,9.0597,9.0597,9.0597,9.0537,8.9711,8.9123,8.8604,8.7736,8.7077,8.6638,8.594,8.597,8.618,8.4863,8.4346,8.4175,8.2649,8.1661,8.1093,8.0853,8.0016,7.9178,7.9417,7.9148,7.8699,7.825,7.7981,7.7652,7.6958,7.6629,7.642,7.6215,7.6185,7.6066,7.5647,7.5557,7.5437,7.4993,7.4903,7.4903,7.4903,7.4903,7.4903,7.4903,7.451,7.4061,7.3642,7.3063,7.2512,7.2024,7.0666,7.0129,7.0941,6.8579,6.7452,6.8431,6.6525,6.5375,6.5323,6.4725,6.4156,6.3707,6.3677,6.3677,6.3677,6.3677,6.4036,6.4665,6.4665,6.4785,6.3549,6.8332,7.3533,7.7728,8.1661,8.5261,8.7856,8.9262,8.986,8.9322,8.7297,8.5203,8.383,8.1965,8.237,8.7675,8.9678,9.1937,9.5919,9.5845,9.396,9.0171,8.9561,8.8843,0.0,0.0,0.0,9.3302,9.3571,9.378,9.4229,9.405,9.405,9.4229,9.3002,9.2613,9.3212,9.2165,9.1506,9.1225,9.0806,9.0597,9.0597,9.0597,9.0597,9.0537,8.9711,8.9123,8.8604,8.7706,8.7077,8.6668,8.621,8.615,8.621,8.5103,8.4564,8.4205,8.3166,8.2088,8.1153,8.1093,8.0195,7.9178,7.9387,7.9148,7.8699,7.828,7.816,7.8011,7.7317,7.7137,7.7078,7.6838,7.6779,7.6689,7.6335,7.6066,7.5766,7.5318,7.5048,7.4903,7.4903,7.4903,7.4903,7.4903,7.451,7.3911,7.3043,7.2295,7.161,7.0862,6.9692,6.9425,7.0473,6.8393,6.7577,6.8691,6.6853,6.5802,6.6011,6.5353,6.4785,6.4366,6.4366,6.4366,6.4366,6.4366,6.4695,6.5353,6.5592,6.5862,7.1191,7.5113,7.8483,8.444,8.6958,8.8634,9.1117,9.1016,8.967,8.7057,8.4282,8.1466,0.0,0.0,7.8525,8.4513,8.6818,8.9441,9.411,9.3122,9.1386,0.0,0.0,0.0,0.0,0.0,0.0,9.1386,0.0,9.3571,9.3631,9.4289,9.4349,9.3661,9.3571,9.3212,9.2613,9.1925,9.1225,9.0597,9.0597,9.0597,9.0597,9.0597,9.0597,9.0537,8.9292,8.8723,8.8574,8.7297,8.6758,8.6728,8.6668,8.624,8.5611,8.4953,8.4256,8.3598,8.3046,8.2387,8.1572,8.0285,7.9836,7.965,7.8998,7.8789,7.8789,7.8789,7.8789,7.8639,7.8011,7.7861,7.7711,7.7048,7.6898,7.6868,7.6838,7.6425,7.5976,7.5916,7.5347,7.4903,7.4903,7.4903,7.4903,7.4903,7.4903,7.4424,7.3073,7.2325,7.146,7.0143,6.9423,6.9034,6.9004,6.9004,6.8734,6.8107,6.7449,6.6759,6.6131,6.5443,6.5084,6.5054,6.5084,6.5084,6.5054,6.5114,6.5473,6.6131,6.6789,6.7418,7.5252,8.0625,8.5468,8.8015,9.0369,9.2135,9.2314,9.0339,8.7596,8.4714,7.9412,7.4623,0.0,0.0,0.0,8.1703,8.657,0.0,9.6099,9.6324,0.0,0.0,0.0,9.0219,8.8604,8.9591,0.0,0.0,9.2374,9.3272,9.4289,9.4977,9.5037,9.4379,9.3391,9.2763,9.2613,9.1404,9.0776,9.0597,9.0597,9.0597,9.0597,9.0597,9.0597,9.0567,8.9771,8.9183,8.8634,8.7796,8.7137,8.6668,8.615,8.5851,8.5611,8.4953,8.4256,8.3688,8.3547,8.2739,8.1631,8.0823,8.0225,7.965,7.8998,7.8789,7.8789,7.8789,7.8789,7.8759,7.8579,7.8549,7.8489,7.834,7.828,7.816,7.7652,7.7442,7.7053,7.6096,7.5347,7.4903,7.4903,7.4903,7.4903,7.4903,7.4903,7.4424,7.3073,7.2774,7.1966,7.0203,6.9842,6.9542,6.9034,6.9004,6.8914,6.8764,6.8137,6.7688,6.7508,6.6849,6.6251,6.5772,6.6251,6.6251,6.5772,6.6759,6.7298,6.7508,6.8166,6.8585,8.0881,8.5492,8.9382,9.0968,9.2284,9.2476,8.9905,8.7337,8.3901,7.8087,7.2852,0.0,6.5544,0.0,0.0,0.0,0.0,0.0,9.6308,9.6833,9.5935,0.0,9.3601,0.0,9.0997,9.1835,9.2613,0.0,9.3002,9.3361,9.411,9.4798,9.4858,9.4169,9.3152,9.2314,9.1746,9.0956,9.0597,9.0597,9.0597,9.0597,9.0597,9.0597,9.0597,9.0567,0.0,8.9333,8.8634,8.7975,8.7287,8.6668,8.627,8.5761,8.5222,8.4863,8.4115,8.3277,8.2978,8.2409,8.1661,8.1003,8.0345,7.965,7.8998,7.8789,7.8789,7.8789,7.8789,7.8789,7.8789,7.8789,7.8789,7.8789,7.8789,7.8699,7.831,7.8011,7.7442,7.6155,7.5587,7.5228,7.4963,7.4903,7.4903,7.4903,7.4903,7.451,7.3462,7.3343,7.2804,7.1427,7.1009,7.0679,7.029,6.9991,6.9722,6.9453,6.9095,6.8766,6.8466,6.8076,6.7687,6.7328,6.7687,6.7687,6.7328,6.8076,6.8466,6.8466,6.9123,6.9423,8.6768,8.961,9.1524,9.3182,9.3032,9.1171,8.6104,8.3175,7.9011,7.0089,0.0,6.3192,6.0002,6.3517,6.9007,7.5292,0.0,8.8993,9.5875,9.6264,9.6084,9.6743,9.5755,9.4678,9.393,9.393,9.4199,9.4708,9.4169,9.384,9.384,9.4409,9.4349,9.3481,9.2823,9.1895,9.0597,9.0597,9.0597,9.0597,9.0597,9.0597,9.0597,9.0597,9.0597,9.0567,8.986,0.0,8.8634,8.7885,8.7197,8.6728,8.6728,8.591,8.4833,8.4743,8.3936,8.2806,8.2088,8.1818,8.1661,8.0913,8.0285,7.965,7.8998,7.8789,7.8789,7.8789,7.8789,7.8789,7.8789,7.8789,7.8789,7.8789,7.8789,7.8789,7.8789,7.828,7.7472,7.6365,7.6096,7.5826,7.5228,7.5113,7.5053,7.5053,7.4963,7.4693,7.4091,7.3941,7.3642,7.2984,7.2385,7.1996,7.1906,7.1368,7.0769,7.0141,7.0021,6.9722,6.9153,6.9064,6.9004,6.9004,6.9093,6.9093,6.9004,6.9183,6.9213,6.9153,6.9812,7.0111,8.992,9.2404,9.387,9.3631,9.2673,9.044,8.5413,7.9449,0.0,0.0,6.2464,5.972,5.8966,6.3059,6.9169,7.7314,8.271,8.8753,0.0,0.0,9.7431,0.0,0.0,0.0,0.0,0.0,0.0,0.0,0.0,9.5247,9.5247,9.5366,9.4618,9.2823,9.2135,9.1375,9.0597,9.0597,9.0597,9.0597,9.0597,9.0597,9.0597,9.0597,9.0597,9.0537,8.9382,0.0,8.8604,8.7347,8.6818,8.6728,8.6728,8.621,8.5462,8.4923,8.4235,8.3397,8.22,8.1818,8.1572,8.0375,7.9889,7.965,7.8998,7.8789,7.8789,7.8789,7.8789,7.8789,7.8789,7.8789,7.8789,7.8789,7.8789,7.8789,7.8789,7.828,7.7741,7.7532,7.7023,7.6599,7.6479,7.6066,7.5736,7.5736,7.5228,7.4873,7.4753,7.424,7.3642,7.2984,7.2804,7.2505,7.1936,7.1787,7.1427,7.0799,7.026,6.9963,6.9812,6.9303,6.9004,6.9004,6.9542,6.9542,6.9004,7.0051,7.032,6.9844,7.044,7.0739,8.9441,9.2284,9.4947,9.4289,9.2075,8.8096,8.0436,0.0,0.0,0.0,5.7968,5.6909,5.7245,6.2114,0.0,7.3238,7.8722,8.5138,9.3242,0.0,0.0,0.0,0.0,0.0,0.0,0.0,0.0,0.0,0.0,9.5606,9.5606,9.5277,9.4319,9.2643,9.2284,9.1805,9.1105,9.0776,9.0776,9.1105,9.0746,9.0597,9.0597,9.0597,9.0597,9.0537,8.9621,0.0,8.8604,8.7616,8.6988,8.6728,8.6728,8.606,8.5132,8.4833,8.4085,8.3098,8.211,8.1572,8.1123,8.0135,7.977,7.965,7.8998,7.8789,7.8878,7.9238,7.9058,7.8938,7.9656,7.9597,7.9327,7.9327,7.9058,7.8789,7.8789,7.8549,7.822,7.7861,7.7562,7.7197,7.6838,7.6539,7.636,7.636,7.5826,7.5407,7.5407,7.4839,7.43,7.3971,7.3642,7.3283,7.2954,7.2624,7.2116,7.1457,7.1128,7.0829,7.047,7.0171,6.9991,6.9991,7.029,7.047,7.05,7.0769,7.0919,7.1011,7.1278,7.1427,8.9681,9.2733,9.5815,9.5007,9.1416,8.5528,7.5882,6.9812,0.0,0.0,5.4206,5.4654,5.5658,6.0331,6.519,0.0,7.4011,8.0571,8.8993,9.1105,9.3691,0.0,0.0,0.0,0.0,0.0,0.0,0.0,0.0,0.0,9.5396,9.4738,9.384,9.2643,9.2464,9.2075,9.1375,9.0866,9.0866,9.1345,9.0836,9.0597,9.0597,9.0597,9.0597,9.0567,8.9801,0.0,0.0,8.7885,8.7257,8.6868,8.6788,8.597,8.4923,8.4773,8.3965,8.2896,8.2088,8.1452,8.0883,8.0075,7.9716,7.9507,7.8938,7.8789,7.8938,7.9627,7.9417,7.9267,8.0315,8.0195,7.974,7.9627,7.9178,7.8789,7.8789,7.8789,7.8639,7.813,7.8011,7.7861,7.7317,7.7108,7.6988,7.6988,7.6395,7.5916,7.5916,7.5288,7.4903,7.4903,7.442,7.4061,7.3911,7.3432,7.2834,7.2146,7.2116,7.1876,7.1368,7.1338,7.1338,7.1338,7.1338,7.1577,7.2116,7.1577,7.1607,7.2116,7.2116,7.2116,9.4349,9.6533,9.7012,9.5815,9.0698,8.3819,7.558,0.0,6.0536,5.416,5.2687,5.31,5.5016,5.694,6.0708,6.8178,7.1173,7.637,8.7317,9.0968,9.402,9.8119,0.0,0.0,0.0,0.0,0.0,0.0,0.0,0.0,9.4738,9.405,9.3332,9.2613,9.2015,9.1345,9.0687,9.0627,9.0627,9.0687,9.0627,9.0597,9.0597,9.0597,9.0597,9.0537,8.9322,0.0,0.0,8.7596,8.7107,8.7556,8.6968,8.624,8.5521,8.4923,8.4226,8.3419,8.22,8.1751,8.1482,8.0225,7.9387,7.8878,7.8819,7.8789,7.8938,7.9627,7.9776,7.9746,7.9829,7.9829,7.9656,7.9028,7.8819,7.8789,7.8789,7.8789,7.8759,7.8699,7.8699,7.8669,7.8609,7.81,7.7711,7.7711,7.6694,7.5916,7.5916,7.5288,7.4903,7.4903,7.4843,7.454,7.3941,7.3821,7.3522,7.2864,7.2834,7.2804,7.2744,7.2744,7.2744,7.2744,7.2744,7.2774,7.2834,7.2774,7.2774,7.2834,7.2834,7.2834,8.8753,9.3661,9.8209,9.6114,8.9711,8.1931,7.4251,0.0,5.8468,5.3146,5.2189,5.2849,5.4611,5.5969,5.8468,6.3464,6.4686,6.8172,7.7293,8.034,8.4549,9.2284,0.0,0.0,0.0,0.0,0.0,0.0,0.0,0.0,9.4618,9.4349,9.3721,9.2643,9.2344,9.1895,9.1195,9.0806,9.0806,9.1195,9.0776,9.0597,9.0597,9.0597,9.0597,9.0537,8.9262,0.0,0.0,8.7387,8.6878,8.7048,8.6818,8.603,8.5073,8.4803,8.4055,8.3068,8.2597,8.2148,8.1691,8.1183,8.0554,7.9926,7.9537,7.9417,7.9627,8.0704,8.0704,8.0584,8.1392,8.1302,8.0823,8.0165,7.9716,7.9297,7.8878,7.8789,7.8789,7.8789,7.8789,7.8789,7.8789,7.8579,7.84,7.84,7.7622,7.6904,7.6479,7.5886,7.5347,7.4963,7.4903,7.4813,7.451,7.448,7.421,7.3552,7.3492,7.3343,7.2924,7.2924,7.2924,7.2924,7.2924,7.3103,7.3492,7.3103,7.3133,7.3492,7.3492,7.3492,8.5162,9.1057,9.6683,9.5815,8.8625,7.9941,0.0,0.0,5.6199,5.1829,5.1391,5.2197,5.3453,5.5105,5.7059,5.9622,6.0587,6.3496,7.0458,7.3512,7.8021,0.0,0.0,0.0,0.0,0.0,0.0,0.0,0.0,0.0,9.4618,9.4618,9.399,9.2643,9.2404,9.1985,9.1285,9.0836,9.0836,9.1285,9.0806,9.0597,9.0597,9.0597,9.0597,9.0537,8.9262,0.0,0.0,8.7317,8.6848,8.6958,8.6788,8.6,8.4983,8.4773,8.3995,8.3046,8.2866,8.2507,8.2088,8.1878,8.1452,8.1003,8.0524,8.0255,8.0345,8.1452,8.1452,8.1302,8.2268,8.2028,8.1392,8.0913,8.0285,7.9686,7.9208,7.8938,7.8849,7.9058,7.9088,7.9148,7.9357,7.9238,7.9088,7.9088,7.837,7.7652,7.7137,7.6425,7.5707,7.5228,7.5023,7.4903,7.4903,7.4903,7.4723,7.421,7.418,7.3971,7.3522,7.3492,7.3492,7.3492,7.3492,7.3732,7.418,7.3732,7.3732,7.418,7.418,7.418,8.6498,9.016,9.1464,9.4768,8.7366,7.7715,0.0,0.0,5.3307,5.0013,5.0085,5.0848,5.125,5.3844,5.6354,5.7719,6.0556,6.4397,6.9687,7.3852,7.7588,0.0,0.0,0.0,0.0,0.0,0.0,0.0,0.0,0.0,9.4618,9.4618,9.399,9.2643,9.1985,9.1285,9.0627,9.0597,9.0597,9.0597,9.0597,9.0597,9.0597,9.0597,9.0597,0.0,0.0,0.0,0.0,8.7536,8.7077,8.7616,8.6928,8.627,8.5611,8.4953,8.4256,8.3598,8.3016,8.2806,8.2687,8.2028,8.1818,8.1818,8.1751,8.1302,8.0913,8.1601,8.1781,8.1818,8.1781,8.1302,8.0823,8.0794,8.0285,7.977,7.977,7.9267,7.8998,7.9686,7.977,8.0016,8.0674,8.0225,7.977,7.977,7.8669,7.7801,7.7801,7.6694,7.5916,7.5886,7.5288,7.4903,7.4903,7.4903,7.4903,7.4903,7.4903,7.4903,7.4903,7.4903,7.4903,7.4903,7.4903,7.4903,7.4903,7.4903,7.4903,7.4903,7.4903,7.4903,7.5361,7.9587,8.2613,8.1862,7.6486,7.0117,6.5298,5.9044,5.3522,5.0987,5.0817,5.1405,5.2294,5.3621,5.5542,5.84,5.957,6.144,6.5173,0.0,0.0,7.9716,8.7603,9.2729,0.0,0.0,0.0,0.0,0.0,0.0,9.4618,9.4169,9.3511,9.2613,9.2404,9.1746,9.0597,9.0597,9.0597,9.0597,9.0597,9.0597,9.0597,9.0597,9.0399,0.0,0.0,0.0,0.0,8.7137,8.6848,8.6988,8.6788,8.627,8.5671,8.5462,8.4983,8.4384,8.4175,8.3816,8.3397,8.3187,8.2798,8.2477,8.2477,8.2028,8.1601,8.2297,8.2148,8.1908,8.2357,8.2327,8.2058,8.1572,8.1302,8.1033,8.0584,8.0315,8.0225,8.0434,8.0494,8.0405,8.0165,8.0345,8.0165,7.9238,7.9148,7.8849,7.7921,7.7053,7.633,7.5946,7.5288,7.4903,7.4903,7.4903,7.4903,7.4903,7.4903,7.4903,7.4903,7.4903,7.4903,7.4903,7.4903,7.4903,7.4903,7.4903,7.4903,7.4903,7.4903,7.4903,6.8062,7.2053,7.4915,7.4489,7.0211,0.0,0.0,5.6794,5.2571,5.1265,5.1233,5.1673,5.2361,5.3514,5.5038,5.7152,5.8181,5.9517,0.0,0.0,0.0,7.7581,0.0,0.0,0.0,0.0,0.0,0.0,0.0,0.0,9.4618,9.396,9.3272,9.2613,9.2344,9.1716,9.0597,9.0597,9.0597,9.0597,9.0597,9.0597,9.0597,9.0597,9.0279,0.0,0.0,0.0,0.0,8.6958,8.6728,8.6728,8.6728,8.6419,8.6,8.5521,8.5222,8.4983,8.4235,8.3876,8.3658,8.3427,8.2918,8.2417,8.2417,8.2327,8.2208,8.2387,8.2297,8.2238,8.2387,8.2627,8.2687,8.2297,8.1998,8.1661,8.1272,8.0973,8.0883,8.1123,8.0973,8.0764,8.0584,8.0494,8.0135,7.9297,7.9327,7.9118,7.828,7.7592,7.7053,7.6664,7.5796,7.5258,7.5258,7.5053,7.4903,7.4903,7.4903,7.4903,7.4903,7.4903,7.4903,7.4903,7.4903,7.4903,7.4903,7.4903,7.4903,7.4903,7.4903,7.4903,0.0,6.6557,6.7663,7.0644,6.6987,6.2158,6.0043,5.4944,0.0,5.0812,5.1219,5.159,5.1744,5.3406,5.474,5.4671,5.666,0.0,0.0,6.338,0.0,0.0,0.0,0.0,0.0,0.0,0.0,0.0,0.0,0.0,9.4558,9.393,9.3272,9.2554,9.1925,9.1255,9.0597,9.0597,9.0597,9.0597,9.0597,9.0567,9.0537,9.0537,9.019,0.0,0.0,0.0,0.0,8.6928,8.6728,8.6728,8.6728,8.6728,8.6549,8.5252,8.5162,8.5432,8.3585,8.3277,8.3568,8.2956,8.2357,8.1878,8.1751,8.2148,8.2477,8.1968,8.2208,8.2537,8.2028,8.2327,8.2806,8.2806,8.2327,8.1841,8.1841,8.1362,8.1093,8.1661,8.1302,8.1033,8.1542,8.0674,7.9866,7.971,7.9238,7.8849,7.8789,7.822,7.7801,7.7801,7.6664,7.5916,7.5916,7.5288,7.4903,7.4903,7.4903,7.4903,7.4903,7.4903,7.4903,7.4903,7.4903,7.4903,7.4903,7.4903,7.4903,7.4903,7.4903,7.4903,5.3446,0.0,5.5945,5.5676,5.5156,5.3982,0.0,0.0,0.0,0.0,0.0,5.0636,5.2206,5.2971,5.4049,0.0,0.0,0.0,6.0581,0.0,0.0,0.0,0.0,0.0,0.0,0.0,0.0,0.0,0.0,9.4528,9.387,9.3661,9.3062,9.1895,9.1686,9.1255,9.0597,9.0597,9.0597,9.0597,9.0597,9.0369,8.989,8.989,8.9262,0.0,0.0,0.0,8.6898,8.6748,8.6728,8.6728,8.6728,8.6728,8.6608,8.5761,8.5551,8.5551,8.4594,8.4025,8.3508,8.238,8.2297,8.2387,8.1332,8.0794,8.0704,8.1542,8.1542,8.1452,8.2357,8.2687,8.2806,8.2806,8.2687,8.2567,8.2567,8.2447,8.2238,8.1841,8.1661,8.1272,8.0434,8.0434,8.0225,7.9178,7.9357,7.9387,7.8849,7.822,7.7801,7.7801,7.6664,7.5916,7.5916,7.5288,7.4903,7.4903,7.4903,7.4903,7.4903,7.4903,7.4903,7.4903,7.4903,7.4903,7.4903,7.4903,7.4903,7.4903,7.4903,7.4903,4.8616,5.0059,5.1063,5.0248,5.0611,5.0743,4.8964,0.0,0.0,0.0,0.0,5.0392,5.1804,5.2444,0.0,0.0,5.7311,0.0,0.0,0.0,0.0,0.0,0.0,0.0,0.0,0.0,0.0,0.0,0.0,9.4319,9.3631,9.3002,9.2344,9.1626,9.1285,9.0956,9.0597,9.0597,9.0597,9.0597,9.0597,9.0279,8.9722,8.9722,8.9003,0.0,0.0,0.0,8.6728,8.6728,8.6549,8.627,8.6608,8.6519,8.615,8.5492,8.5432,8.5521,8.4265,8.3397,8.2769,8.235,8.1908,8.1332,8.0913,8.0135,7.9567,8.0584,8.1063,8.1332,8.1751,8.2357,8.2806,8.2806,8.2806,8.2717,8.2417,8.2357,8.2148,8.1452,8.1332,8.1003,7.9986,8.0105,7.9986,7.8938,7.9118,7.9208,7.8849,7.8489,7.825,7.825,7.7382,7.6784,7.6784,7.6155,7.5527,7.4963,7.4903,7.4903,7.4903,7.4903,7.4903,7.4903,7.4903,7.4903,7.4903,7.4903,7.4903,7.4933,7.5232,7.5168,4.6955,4.8413,4.9595,4.918,4.9543,4.9864,4.919,4.9345,0.0,0.0,0.0,0.0,5.1497,5.2607,0.0,0.0,0.0,0.0,7.1529,7.889,8.4687,0.0,0.0,0.0,9.5456,0.0,0.0,0.0,0.0,9.411,9.3332,9.2224,9.1566,9.1434,9.0896,9.0567,9.0447,9.0537,9.0537,9.0447,9.0447,9.01,8.9393,8.9393,8.8693,8.7556,0.0,0.0,8.6728,8.6728,8.6399,8.591,8.6489,8.6329,8.5761,8.4983,8.5073,8.5252,8.3345,8.2297,8.1908,8.2357,8.1332,8.0045,8.0524,7.9836,7.9058,7.9537,8.0554,8.1392,8.1033,8.1818,8.2687,8.2776,8.2717,8.2507,8.1938,8.1691,8.1452,8.0764,8.0644,8.0434,7.9776,7.9656,7.9447,7.8878,7.8789,7.8789,7.8789,7.8789,7.8789,7.8789,7.819,7.7801,7.7801,7.7167,7.6365,7.5258,7.5113,7.5023,7.4903,7.4903,7.4903,7.4903,7.4903,7.4903,7.4903,7.5023,7.5023,7.4933,7.5677,7.5677,4.6799,4.7749,4.7973,4.659,4.7557,4.8368,4.6404,4.6995,4.7896,0.0,0.0,0.0,0.0,5.5302,5.7832,0.0,0.0,0.0,0.0,0.0,0.0,0.0,0.0,9.5995,9.4858,9.4858,0.0,0.0,0.0,9.3212,9.1985,9.1716,9.1315,9.0776,9.0657,9.0369,8.9872,9.0369,9.0369,8.9872,8.9872,8.9172,8.8005,8.8005,8.7586,8.6838,0.0,8.6818,8.6728,8.6728,8.6668,8.6578,8.6668,8.6668,8.6389,8.5162,8.4773,8.4594,8.2619,8.1908,8.1691,8.1242,8.0883,8.0554,8.0105,7.9836,7.9567,7.9088,7.9507,8.0345,8.1362,8.1818,8.2118,8.2657,8.2387,8.1938,8.1811,8.1332,8.0764,8.0105,7.9956,7.9746,7.9058,7.8938,7.8908,7.8819,7.8789,7.8789,7.8789,7.8789,7.8789,7.8789,7.819,7.7801,7.7801,7.7167,7.6719,7.6509,7.6036,7.5497,7.4933,7.4903,7.4903,7.4903,7.4903,7.4903,7.4903,7.5467,7.5437,7.4933,7.6125,7.6335,4.561,4.6144,4.6759,4.77,4.893,4.9437,4.771,4.8189,4.9056,0.0,0.0,0.0,0.0,0.0,6.1704,0.0,0.0,0.0,0.0,0.0,0.0,0.0,0.0,9.5815,9.5187,9.5127,9.4708,9.3661,0.0,0.0,9.1656,9.1255,9.0896,9.0597,9.0597,9.0447,9.019,9.013,8.9771,8.9183,8.9542,8.8993,8.7706,8.7706,8.7317,8.6728,0.0,8.6728,8.6698,8.6299,8.615,8.615,8.615,8.615,8.603,8.5073,8.4265,8.3547,8.2657,8.2118,8.1721,8.1422,8.0853,8.0225,7.9896,7.9567,7.9208,7.8878,7.9297,8.0045,8.1003,8.1512,8.1998,8.2627,8.2297,8.1818,8.1818,8.1272,8.0704,8.0405,8.0345,8.0255,7.9926,7.9597,7.9357,7.9357,7.9028,7.8789,7.8789,7.8789,7.8789,7.8789,7.8519,7.834,7.834,7.8071,7.7592,7.6838,7.6539,7.6275,7.5946,7.5946,7.5766,7.5437,7.5766,7.5766,7.5437,7.6096,7.6245,7.5946,7.6904,7.7023,4.4787,4.5298,4.6346,4.8758,4.9796,5.0374,5.1053,5.1478,5.2017,0.0,0.0,0.0,0.0,6.1771,0.0,7.633,0.0,0.0,0.0,0.0,0.0,0.0,0.0,9.5606,9.5606,9.5306,9.4618,9.3451,9.2733,9.2075,9.1375,9.0866,9.0597,9.0597,9.0447,9.0298,9.0148,8.9681,8.9213,8.8693,8.9052,8.8604,8.7467,8.7467,8.7077,8.6449,8.5943,8.5893,8.614,8.51,8.5,8.5492,8.5641,8.5611,8.5255,8.353,8.2857,8.2701,8.1998,8.1763,8.1818,8.1818,8.0883,7.9836,8.0016,7.9477,7.8789,7.8789,7.9297,7.9956,8.0644,8.1063,8.1512,8.2387,8.1901,8.1332,8.1332,8.0913,8.0584,8.0584,8.0704,8.0794,8.0794,8.0375,7.9986,7.9799,7.9357,7.8968,7.8819,7.8789,7.8789,7.8789,7.8938,7.9028,7.9028,7.8878,7.837,7.7317,7.7108,7.6958,7.6808,7.6779,7.6569,7.6125,7.6539,7.6569,7.6125,7.6719,7.6928,7.6808,7.7652,7.7682,4.5303,4.6341,4.7251,4.767,4.7817,4.9567,5.6198,5.6856,0.0,5.9779,0.0,0.0,0.0,7.1066,7.7437,8.0075,8.5781,9.0657,0.0,0.0,0.0,0.0,0.0,9.5606,9.5606,9.4469,9.3421,9.2733,9.2075,9.1345,9.0717,9.0627,9.0597,9.0597,9.007,8.9482,8.8843,8.8783,8.8723,8.8663,8.8125,8.7467,8.6788,8.6788,8.6389,8.5643,8.358,8.35,8.4678,8.2576,8.2896,8.4833,8.5462,8.5312,8.4187,7.9391,7.9846,8.2421,7.9667,8.007,8.1818,8.1818,8.0883,7.9926,8.0554,7.9836,7.8789,7.8789,7.9297,7.9956,8.0644,8.0375,8.0285,8.1542,8.0883,7.9919,7.9919,7.9926,7.9859,7.9859,8.0375,8.0794,8.0794,8.0764,8.0524,7.9896,7.9776,7.9507,7.8878,7.8789,7.8789,7.8789,7.9357,7.971,7.971,7.9148,7.8759,7.8639,7.8071,7.7472,7.6808,7.6779,7.6779,7.6719,7.6779,7.6779,7.6719,7.7412,7.7442,7.6808,7.813,7.837,4.4369,4.6547,4.9224,5.1206,5.1706,5.2573,0.0,5.7828,5.9711,6.255,6.4431,0.0,0.0,0.0,8.1332,8.4564,8.9232,9.3032,9.4618,9.5636,9.6055,9.5636,9.5217,9.4798,9.4379,9.3511,9.2703,9.2045,9.1746,9.1285,9.0627,9.0597,9.0417,9.004,8.9842,8.9183,8.8095,8.8065,8.7856,8.7477,8.7616,8.7347,8.6619,8.5178,8.4187,8.3522,8.123,8.0361,8.0497,7.9247,7.9469,8.0636,8.0865,8.0579,7.9706,7.7802,7.8629,8.0522,7.9418,8.0248,8.1721,8.1302,8.0554,7.9776,7.9597,7.9178,7.8789,7.8789,7.8968,7.9417,8.0524,8.0614,8.0644,8.1572,8.0764,8.0045,8.0853,8.0734,8.0674,8.1482,8.1512,8.1542,8.1998,8.1332,8.0704,8.0464,8.0075,7.9567,7.8878,7.8789,7.8938,7.9387,8.0016,8.0255,7.9866,7.9567,7.9238,7.8819,7.8549,7.831,7.8041,7.8041,7.7861,7.7442,7.7831,7.7861,7.7407,7.81,7.828,7.8071,7.8549,7.8639,4.3797,4.613,4.9329,5.2556,5.4086,5.5488,5.8124,5.9764,6.1873,6.5844,6.7826,0.0,0.0,0.0,0.0,0.0,8.9954,9.3113,9.4237,9.3952,9.3356,9.2668,9.2732,9.2683,9.221,9.2218,9.2105,9.1614,9.1375,9.1075,9.0627,9.0597,9.0339,8.9722,8.9512,8.8813,8.7706,8.7496,8.7137,8.6689,8.6258,8.614,8.632,8.3972,8.2536,8.1595,7.8592,7.7365,7.7382,7.6224,7.6542,7.7686,7.6771,7.6722,7.6897,7.5265,7.6247,7.8333,7.8333,7.9421,8.0774,8.1056,8.0524,7.9716,7.9267,7.8968,7.8789,7.8789,7.8938,7.9327,8.0255,8.0345,8.0345,8.1003,8.0464,8.0075,8.0973,8.1123,8.1392,8.2327,8.2297,8.2268,8.2717,8.2058,8.1362,8.1153,8.0554,7.9866,7.9208,7.8938,7.9148,8.0045,8.0524,8.0704,8.0464,8.0045,7.9627,7.9148,7.9118,7.9028,7.8789,7.8789,7.8579,7.813,7.8549,7.8579,7.813,7.8579,7.8789,7.8789,7.8789,7.8789,4.3944,4.5147,4.7209,5.065,5.3861,5.7813,6.4057,6.3465,6.3439,7.022,7.2359,7.3091,7.3207,0.0,0.0,0.0,8.7638,9.1007,9.1641,8.9065,8.6873,8.617,8.7781,8.8949,8.8994,9.0535,9.1584,9.1596,9.0956,9.0597,9.0597,9.0597,9.0339,8.9722,8.9063,8.8364,8.7636,8.7018,8.6659,8.6589,8.3733,8.3522,8.5593,8.336,8.159,8.011,7.568,7.4627,7.5847,7.3662,7.4455,7.6715,7.3876,7.4498,7.642,7.1273,7.2245,7.6055,7.6097,7.7113,7.8764,8.1052,8.0883,7.977,7.977,7.9327,7.8789,7.8789,7.9297,7.977,7.977,7.9297,7.8968,7.9656,7.977,7.977,7.9799,8.0853,8.1818,8.1781,8.2357,8.2806,8.2806,8.2806,8.2567,8.1908,8.1212,8.0554,7.9896,7.9208,7.9297,8.0674,8.0794,8.1063,8.1759,8.0584,7.9836,7.9799,7.9799,7.9507,7.8819,7.8789,7.8789,7.8789,7.8789,7.8789,7.8789,7.8789,7.8789,7.8789,7.8789,7.8789,4.3981,4.7493,0.0,5.2943,5.6994,6.1377,0.0,6.4733,0.0,0.0,7.4101,7.5779,7.494,0.0,0.0,0.0,0.0,8.7933,8.7326,8.7149,8.6707,8.5683,8.5646,8.6373,8.8126,8.8321,8.9062,9.0783,9.0717,9.0597,9.0597,9.0219,8.9651,8.9033,8.8334,8.6485,8.3284,8.3546,8.2395,7.993,7.9562,8.079,8.3209,7.8901,7.6499,7.5594,7.2604,7.134,7.1306,7.0694,7.0929,7.1609,7.077,7.0673,7.0952,6.982,7.096,7.3376,7.4883,7.6735,7.8619,7.9946,8.0135,7.9716,7.9238,7.8938,7.8789,7.8789,7.8938,7.9088,7.9088,7.9297,7.9567,7.974,7.977,7.9956,8.0405,8.1183,8.1968,8.2417,8.2657,8.2806,8.2806,8.2806,8.2567,8.1908,8.1212,8.0375,7.9238,7.9327,7.9836,8.0704,8.1212,8.1572,8.1751,8.1422,8.1003,8.0524,8.0494,7.9986,7.8849,7.9267,7.9297,7.8789,7.8789,7.8789,7.8789,7.8789,7.8789,7.8789,7.8789,7.8789,4.5488,4.8879,0.0,5.6108,5.9707,6.3158,6.5818,0.0,0.0,0.0,7.4109,7.5837,7.5975,7.7656,0.0,8.0604,8.3029,8.4573,8.386,8.3376,8.2757,8.2063,8.2273,8.3427,8.5875,8.6423,8.7605,9.0084,9.001,8.986,8.986,8.9501,8.8565,8.6962,8.6342,8.4205,8.0454,8.0596,7.9618,7.7494,7.6495,7.6929,7.8514,7.5386,7.3716,7.3268,7.0962,6.9627,6.908,6.908,6.8954,6.8753,6.8753,6.8597,6.8346,6.8628,6.9383,7.0697,7.3743,7.5498,7.6778,7.9063,7.9627,7.9327,7.8908,7.8789,7.8789,7.8789,7.8789,7.8789,7.8789,7.9297,7.977,7.977,8.0225,8.0704,8.1093,8.1691,8.2327,8.2717,8.2806,8.2806,8.2806,8.2806,8.2657,8.2268,8.1392,8.0315,7.8968,7.9387,8.0075,8.0734,8.1392,8.1938,8.2178,8.1968,8.1601,8.1212,8.1183,8.0584,7.9238,7.9836,7.9776,7.8819,7.9058,7.9058,7.8789,7.8789,7.8789,7.8789,7.8789,7.8789,4.7711,4.9523,5.2254,5.9423,6.2238,0.0,6.8516,7.105,7.2446,7.2042,0.0,7.4414,7.6065,7.6777,7.7995,8.0528,8.0983,8.1052,8.1017,7.865,7.6858,7.6808,7.8288,8.0254,8.2676,8.4555,8.6638,8.912,8.8748,8.8379,8.8379,8.8126,8.6685,8.3885,8.3295,8.1532,7.8466,7.7942,7.7554,7.7189,7.4004,7.2462,7.2453,7.2453,7.2409,7.2236,7.0165,6.8954,6.8547,6.8547,6.8246,6.7794,6.7794,6.7769,6.7744,6.7769,6.7769,6.8326,7.2706,7.3847,7.4111,7.8329,7.9357,7.8878,7.8819,7.8789,7.8789,7.8789,7.8789,7.8789,7.8789,7.9357,7.9896,7.9896,8.0853,8.1818,8.1818,8.2327,8.2806,8.2806,8.2806,8.2806,8.2806,8.2806,8.2776,8.2717,8.1601,8.0375,7.9118,7.9477,8.0105,8.0823,8.1362,8.2028,8.2747,8.2238,8.1908,8.1908,8.1908,8.1302,8.0045,8.0584,8.0255,7.8908,7.9507,7.9507,7.8878,7.8878,7.8878,7.8878,7.8938,7.8938,4.7405,5.028,5.3808,5.9835,6.5645,7.0538,7.3228,7.4563,7.4239,7.0658,7.3245,7.5743,7.4165,7.5571,7.7011,7.7215,7.7949,7.8212,7.7347,7.7055,7.6757,7.633,7.6194,7.7145,7.9622,8.1434,8.3495,8.5971,8.6023,8.5965,8.5965,8.372,8.1922,8.0874,8.0189,7.8285,7.4945,7.4768,7.3374,7.0607,6.9872,6.932,6.8889,6.8889,6.8889,6.8845,6.8367,6.8095,6.797,6.797,6.7894,6.7794,6.7794,6.7543,6.7216,6.7643,6.7518,6.7768,7.2028,7.3791,7.4625,7.7954,7.9267,7.9507,7.8938,7.8789,7.8789,7.8789,7.8789,7.8789,7.8789,7.9686,8.0584,8.0584,8.1212,8.1818,8.1818,8.2327,8.2806,8.2806,8.2806,8.2806,8.2806,8.2806,8.2627,8.2118,8.1302,8.0704,8.0405,8.0045,8.0285,8.1452,8.1242,8.1482,8.2687,8.2657,8.2597,8.2597,8.2597,8.2238,8.1392,8.1512,8.0943,7.9627,7.9746,7.971,7.9597,7.9597,7.9597,7.9627,8.0135,8.0105,4.8343,5.1555,5.5558,6.3654,6.9409,7.3544,7.5251,7.5854,7.5443,7.3053,7.467,7.6102,7.4774,7.5822,7.6732,7.6205,7.6758,7.6908,7.5804,7.5904,7.5879,7.5327,7.5025,7.579,7.8245,7.878,7.9992,8.2494,8.2128,8.1789,8.1789,8.0299,7.8828,7.741,7.677,7.5071,7.214,7.1554,7.0419,6.8578,6.8095,6.7543,6.7015,6.7543,6.7643,6.7417,6.7693,6.7643,6.7417,6.7417,6.7241,6.699,6.699,6.6815,6.6589,6.689,6.6815,6.716,7.1447,7.3129,7.4051,7.763,7.9028,7.9267,7.8908,7.8789,7.8789,7.8789,7.8789,7.8789,7.8789,7.9776,8.0794,8.0794,8.1542,8.2297,8.2297,8.2567,8.2806,8.2806,8.2806,8.2806,8.2806,8.2806,8.2477,8.1452,8.1302,8.1033,8.0405,8.0315,8.0674,8.1661,8.1482,8.1811,8.3128,8.2237,8.2082,8.3141,8.2198,8.1678,8.1774,8.2118,8.1631,8.0315,8.0584,8.0434,7.977,8.0135,8.0135,7.9836,8.0494,8.0434,4.8948,5.3098,5.8248,6.7887,7.2364,7.4699,7.5853,7.6104,7.6104,7.6104,7.6104,7.6104,7.6104,7.6481,7.6632,7.6179,7.6356,7.6281,7.5328,7.5027,7.4776,7.4448,7.4146,7.4807,7.6877,7.6382,7.6752,7.883,7.7988,7.7411,7.7521,7.6944,7.5715,7.3766,7.3258,7.2041,6.9873,6.9024,6.8522,6.8321,6.7317,6.6589,6.6137,6.7091,6.7267,6.6865,6.7317,6.7241,6.6815,6.6815,6.6538,6.6112,6.6112,6.6112,6.6112,6.6112,6.6112,6.6686,7.0583,7.2189,7.3136,7.6959,7.8506,7.8789,7.8789,7.8789,7.8789,7.8789,7.8789,7.8819,7.8938,7.9806,8.0704,8.0913,8.1811,8.2657,8.2776,8.2806,8.2806,8.2806,8.2806,8.2806,8.2806,8.2687,8.2297,8.1272,8.1512,8.1422,8.0464,8.0704,8.1212,8.1908,8.1841,8.2139,8.3039,8.1356,8.0988,8.2585,8.1263,8.0838,8.1654,8.2647,8.2529,8.1332,8.1631,8.1242,8.0165,8.0704,8.0704,8.0165,8.0704,8.0674,4.6724,5.4857,6.3433,6.8907,7.2364,7.4699,7.5853,0.0,7.6104,0.0,7.6104,7.6104,7.6104,7.6154,7.6179,7.6104,7.5728,7.5353,7.5202,7.4423,7.3971,7.4372,7.3117,7.2555,7.3338,7.4255,7.4933,7.5287,7.4746,7.4586,7.5021,7.2215,7.0413,7.0078,7.0003,6.9388,6.8145,6.8447,6.8145,6.7191,6.6538,6.6187,6.6112,6.6262,6.6287,6.6237,6.6312,6.6287,6.6237,6.6237,6.6187,6.6112,6.6112,6.6112,6.6112,6.6112,6.6112,6.6472,6.8887,7.092,7.29,7.5259,7.7284,7.8789,7.8789,7.8789,7.8789,7.8789,7.8789,7.8938,7.9537,7.9806,8.0225,8.1392,8.1818,8.2088,8.2687,8.2806,8.2806,8.2806,8.2806,8.2806,8.2806,8.2327,8.2088,8.2477,8.2118,8.1968,8.2357,8.1998,8.1938,8.2597,8.2148,8.154,8.0803,8.0489,7.98,7.8667,8.0178,8.1141,8.1279,8.3313,8.4115,8.3329,8.232,8.1691,8.1512,8.1601,8.1601,8.1512,8.1601,8.1601,4.7987,5.5131,6.2204,6.7568,7.0732,7.3092,7.5126,7.5352,7.5226,7.5527,7.5603,7.5703,7.6054,7.5804,7.5603,7.5603,7.5126,7.45,7.3872,7.3418,7.2966,7.259,7.1887,7.141,7.1359,7.156,7.1551,7.1287,7.0747,7.0542,7.0773,6.9327,6.8522,6.8522,6.8522,6.8296,6.7794,6.7744,6.7292,6.6488,6.6237,6.5936,6.566,6.5961,6.6112,6.6112,6.6112,6.6112,6.6112,6.6112,6.6112,6.6112,6.6112,6.6112,6.6112,6.6112,6.6112,6.6429,6.8581,6.9931,7.1041,7.3186,7.5287,7.6996,7.6996,7.7828,7.8789,7.8789,7.8789,7.8849,7.9178,7.9806,8.0524,8.1093,8.1781,8.2447,8.2747,8.2806,8.2806,8.2806,8.2806,8.2806,8.2806,8.2567,8.2327,8.2268,8.1222,8.0424,8.0375,7.9323,7.8831,7.9421,7.8974,7.8831,7.9351,7.7938,7.7356,7.8261,7.9225,8.0218,8.1139,8.3421,8.4564,8.4295,8.3367,8.2499,8.1818,8.2178,8.2178,8.1781,8.2208,8.2178,4.844,5.3548,5.8702,6.4789,6.8095,7.0656,7.3822,7.4349,7.4372,7.4876,7.4976,7.5151,7.5552,7.5427,7.5152,7.5002,7.4399,7.3694,7.2793,7.2364,7.1786,7.0958,7.0631,7.0305,6.9878,6.9351,6.8804,6.8447,6.7894,6.7643,6.7794,6.7543,6.7442,6.7593,6.7593,6.7518,6.7367,6.6965,6.6538,6.6112,6.5961,6.5685,6.5308,6.5559,6.5685,6.571,6.5986,6.6112,6.6112,6.6112,6.6112,6.6112,6.6112,6.6112,6.6112,6.6112,6.6112,6.6301,6.7938,6.8846,6.9562,7.1162,7.3108,7.4801,7.4801,7.5959,7.7321,7.7828,7.8004,7.8143,7.889,7.9806,8.0644,8.0973,8.1376,8.1892,8.2633,8.2806,8.2806,8.2806,8.2806,8.2625,8.2032,8.2435,8.2256,8.0595,7.984,7.903,7.7958,7.6806,7.6262,7.6648,7.6331,7.6508,7.7541,7.564,7.519,7.7034,7.7721,7.8917,8.0734,8.3065,8.4525,8.4983,8.4286,8.3389,8.226,8.2627,8.2537,8.2088,8.2387,8.2297,4.6141,4.9451,5.3753,6.0616,6.4354,6.7518,7.1815,7.3268,7.3795,7.4347,7.4448,7.4473,7.4498,7.4851,7.5027,7.45,7.3496,7.2743,7.2693,7.1384,7.0401,7.035,6.9376,6.8748,6.8698,6.8221,6.7869,6.7844,6.7317,6.7241,6.7769,6.6789,6.6463,6.699,6.7059,6.6764,6.6212,6.6162,6.6137,6.6112,6.5584,6.5308,6.5283,6.4823,6.4597,6.4647,6.566,6.6112,6.6112,6.6112,6.6112,6.6112,6.6112,6.6112,6.6112,6.6112,6.6112,6.6112,6.624,6.7585,6.9315,6.9439,7.092,7.2664,7.2664,7.2743,7.3253,7.5221,7.5779,7.6404,7.9025,7.977,8.0195,8.1452,8.0156,7.9385,8.221,8.2806,8.2806,8.2806,8.2806,8.21,7.9973,8.1387,8.1319,7.7058,7.8103,7.8614,7.6483,7.6152,7.6097,7.6152,7.6124,7.5669,7.4712,7.4482,7.3994,7.306,7.51,7.7369,7.9691,8.2027,8.4007,8.5602,8.4983,8.4286,8.3598,8.3038,8.2776,8.2747,8.2148,8.1811,4.4345,4.6853,4.9917,5.509,5.878,6.1952,6.4974,6.7637,6.9618,7.0167,7.1649,7.269,7.2339,7.3016,7.3521,7.332,7.2389,7.1435,7.0661,7.0058,6.9476,6.8773,6.8346,6.7945,6.7593,6.7041,6.6564,6.6212,6.5727,6.5501,6.566,6.5283,6.5308,6.5886,6.5886,6.5785,6.5584,6.5584,6.5409,6.5057,6.4898,6.458,6.4279,6.4446,6.432,6.4002,6.4731,6.5057,6.5082,6.5434,6.5584,6.5609,6.5986,6.6112,6.6112,6.6112,6.6112,6.6112,6.6112,6.6601,6.7273,6.7273,6.8706,7.0461,7.0461,7.143,7.2664,7.3382,7.3616,7.394,7.5289,7.5938,7.6603,7.7827,7.7509,7.7213,7.8276,7.9628,8.0209,7.8803,7.8494,7.8252,7.7441,7.797,7.797,7.6345,7.5555,7.4884,7.4063,7.2697,7.2094,7.2823,7.2589,7.2648,7.3284,7.2987,7.2745,7.2712,7.4922,7.6577,7.7449,8.1137,8.346,8.4065,8.4486,8.4346,8.3688,8.3068,8.2806,8.2806,8.2567,8.2447,4.2458,4.4182,4.6538,5.0986,5.3876,5.6594,6.0085,6.3333,6.5825,6.6746,6.9005,7.0757,7.0556,7.0983,7.1438,7.1836,7.0983,7.0003,6.923,6.8954,6.8547,6.7643,6.7342,6.7015,6.6463,6.5886,6.5409,6.5032,6.4722,0.0,6.4496,6.4672,6.4906,6.5283,6.5283,6.5208,6.5007,6.5007,6.4873,6.4496,6.432,6.4028,6.3701,6.3852,6.3726,6.3425,6.3776,6.417,6.4547,6.4856,6.5007,6.5057,6.5409,6.5559,6.5559,6.5559,6.5559,6.5584,6.5785,6.5835,6.586,6.6061,6.7061,6.8205,6.8205,6.9218,7.0502,7.1202,7.143,7.1727,7.2971,7.3917,7.4649,7.4918,7.5555,7.568,7.4191,7.618,7.7848,7.6387,7.6097,7.5847,7.5094,7.5597,7.5597,7.4063,7.3233,7.2603,7.205,7.0643,7.0079,7.0983,7.0803,7.1058,7.2339,7.2113,7.2062,7.2439,7.4058,7.5297,7.5906,7.9837,8.2056,8.2056,8.3214,8.3184,8.1727,8.1683,8.1657,8.1619,8.0893,8.0853,0.0,0.0,0.0,4.8451,4.9917,5.1654,5.7605,6.054,6.2473,6.4282,6.6654,6.8603,6.9205,6.8879,6.8924,7.0024,6.9275,6.8597,6.8572,6.812,6.7568,6.7059,6.6438,6.5886,6.5333,6.4823,6.4496,6.4496,6.4471,6.4446,6.4446,6.4931,6.5233,6.5233,6.5258,6.5007,6.4496,6.4496,6.4471,6.4446,6.3902,6.3676,6.3651,6.3099,6.2781,6.2781,6.2781,6.3425,6.4471,6.4471,6.4496,6.4496,6.4496,6.4496,6.4496,6.4496,6.4496,6.4597,6.5107,6.5283,6.5383,6.5936,6.6112,6.6112,6.6112,6.6112,6.6558,6.8623,6.9218,6.9818,7.2448,7.399,7.4497,7.303,7.4334,7.4715,7.0363,7.2827,7.5889,7.5889,7.5889,7.5247,7.3087,7.4515,7.4473,7.0126,7.1314,7.2156,7.0523,7.0325,7.0551,7.1058,7.1108,7.1334,7.1887,7.1937,7.1937,7.1937,7.2439,7.3491,7.5243,7.8074,7.96,7.96,8.1221,8.0709,7.7835,7.8865,7.9339,7.9242,7.7168,7.7023,4.0328,0.0,0.0,0.0,0.0,0.0,5.0328,5.284,5.5619,6.0248,6.2721,6.4785,6.7223,6.7543,6.7543,6.7888,6.797,6.7894,6.7493,6.7292,6.699,6.6413,6.586,6.5459,6.5308,6.4454,6.3902,0.0,6.3525,6.3274,6.3274,6.3827,6.4128,6.4128,6.4505,6.4429,6.3927,6.3902,6.3701,6.3274,6.3149,6.3073,6.3007,6.2857,6.2781,6.2781,6.2781,6.2957,6.3299,6.3726,6.3902,6.3952,6.4371,6.4496,6.4496,6.4496,6.4496,6.4597,6.5107,6.5283,6.5383,6.5936,6.6112,6.6112,6.6112,6.6112,6.624,6.6831,6.6976,6.7256,6.8433,6.9274,6.9798,6.9757,7.0211,7.0446,6.9551,7.0363,7.1244,7.1244,7.1244,7.1196,7.1007,7.1506,7.159,7.0739,7.1176,7.1409,7.0924,7.0903,7.1058,7.161,7.1686,7.1912,7.2417,7.2489,7.2489,7.2489,7.2593,7.2923,7.3423,7.5818,7.7181,7.7181,7.8805,7.8506,7.6102,7.7554,7.7816,7.7045,7.801,7.8717,0.0,0.0,0.0,0.0,0.0,0.0,4.6046,4.805,5.0745,5.5606,5.821,6.0478,6.3444,6.4027,6.4284,6.4928,6.5253,6.5646,6.6212,6.6262,6.6061,6.5484,6.4957,6.463,6.463,6.3827,6.3324,6.3324,6.3023,6.2882,6.3174,6.35,6.3701,6.3701,6.3977,6.3877,6.335,6.3324,6.3174,6.2781,6.2781,6.2781,6.2781,6.2781,6.2781,6.2781,6.2781,6.2781,6.2807,6.3199,6.3324,6.3375,6.3676,6.3776,6.3776,6.3776,6.3927,6.4228,6.4756,6.5107,6.5383,6.5936,6.6112,6.6112,6.6112,6.6112,6.6112,6.6112,6.6287,6.6564,6.689,6.7392,6.7869,6.8196,6.8271,6.8422,6.8929,6.9055,6.913,6.9356,6.9582,6.9878,7.025,7.0501,7.0752,7.1033,7.1083,7.1158,7.1384,7.1435,7.1636,7.2188,7.2238,7.2389,7.2643,7.2467,7.2389,7.2389,7.2389,7.2389,7.2389,7.4838,7.5741,7.4783,7.6681,7.6539,7.4292,7.5694,7.5574,7.4124,7.7988,7.9284,0.0,0.0,0.0,0.0,0.0,0.0,4.3848,4.5146,4.7055,5.1009,5.3484,5.5797,5.8564,5.9316,5.9888,6.1216,6.1694,6.2721,6.4914,6.5208,6.5007,6.4572,6.4002,6.3701,6.3701,6.3174,6.2781,6.2781,6.2781,6.3007,6.3576,6.3601,6.3601,6.3601,6.3601,6.335,6.2807,6.2781,6.2781,6.2781,6.2781,6.2781,6.2781,6.2781,6.2781,6.2781,6.2781,6.2781,6.2781,6.2781,6.2781,6.2781,6.2781,6.2781,6.2781,6.2781,6.3199,6.3751,6.427,6.4823,6.5383,6.586,6.6061,6.6112,6.6112,6.6112,6.6112,6.6112,6.6488,6.689,6.689,6.7241,6.7643,6.7693,6.7719,6.7869,6.8497,6.8578,6.8753,6.9306,6.9828,7.025,7.0376,7.0757,7.1133,7.1259,7.1259,7.1435,7.1937,7.1987,7.2188,7.2643,7.2693,7.2693,7.2693,7.2288,7.1987,7.1987,7.1987,7.1987,7.1987,7.4478,7.4829,7.2715,7.4737,7.4783,7.2668,7.36,7.3037,7.1343,7.7296,7.8906,0.0,0.0,0.0,0.0,0.0,0.0,4.2389,4.1852,4.2603,4.8274,4.9531,5.0633,5.4045,5.5469,5.6237,5.651,5.8685,6.1356,6.4279,6.4672,6.4622,6.4521,6.4002,6.3701,6.3701,6.3174,6.2781,6.2781,6.2781,6.2832,6.2957,6.2957,6.2957,6.2957,6.2957,6.2907,6.2781,6.2781,6.2781,6.2781,6.2781,6.2781,6.2781,6.2781,6.2781,6.2781,6.2781,6.2781,6.2781,6.2781,6.2781,6.2781,6.2781,6.2781,6.2781,6.2781,6.3199,6.3701,6.3802,6.4479,6.5308,6.5409,6.576,6.6112,6.6112,6.6112,6.6112,6.6112,6.6187,6.6287,6.6287,6.6363,6.6564,6.7015,6.7141,6.7417,6.8396,6.8578,6.8753,6.9306,6.9481,6.9878,7.0782,7.1008,7.1384,7.2288,7.2414,7.2439,7.2517,7.2517,7.2568,7.2668,7.2693,7.2693,7.2693,7.2593,7.2517,7.2517,7.2517,7.2517,7.2517,7.3064,7.3161,7.274,7.3161,7.3161,7.2693,7.205,7.1746,7.1851,7.6309,7.7857,0.0,0.0,0.0,3.9322,0.0,0.0,0.0,4.0264,4.0498,4.487,4.5483,4.5988,4.8383,4.9709,5.071,5.1667,5.3461,5.5666,5.82,6.1739,6.3977,6.3676,6.3425,6.3249,6.3249,6.2957,6.2781,6.2781,6.2781,6.2781,6.2781,6.2781,6.2781,6.2781,6.2781,6.2781,6.2781,6.2781,6.2781,6.2781,6.2781,6.2781,6.2781,6.2781,6.2781,6.2781,6.2781,6.2781,6.2781,6.2781,6.2781,6.2781,6.2781,6.2781,6.2781,6.2781,6.3199,6.3701,6.3701,6.4379,6.5283,6.5283,6.566,6.6112,6.6112,6.6112,6.6112,6.6112,6.6112,6.6112,6.6112,6.6112,6.6187,6.6488,6.6538,6.684,6.797,6.8221,6.8447,6.923,6.9607,7.0129,7.0932,7.1309,7.1786,7.2568,7.2693,7.2693,7.2693,7.2693,7.2693,7.2693,7.2693,7.2693,7.2693,7.2464,7.2439,7.2668,7.2213,7.2163,7.2668,7.2417,7.2439,7.2668,7.2693,7.2693,7.2693,7.2188,7.1912,7.198,7.4808,7.6437,0.0,0.0,0.0,0.0,0.0,3.955,0.0,0.0,0.0,4.1586,4.1923,4.2139,4.3241,4.4059,4.5093,4.6589,4.7879,4.9264,5.0946,5.6898,6.111,6.1101,6.1154,6.1419,6.2008,6.2013,6.2129,6.2496,6.2179,6.2179,6.2606,6.2571,6.2596,6.2781,6.2581,6.2531,6.2631,6.2631,6.2631,6.2631,6.2731,6.2781,6.2781,6.2781,6.2781,6.2781,6.2781,6.2781,6.2781,6.2781,6.2781,6.2781,6.2781,6.2781,6.2781,6.2781,6.3199,6.3676,6.3576,6.4304,6.5283,6.5157,6.5584,6.6112,6.6112,6.6112,6.6112,6.6112,6.6112,6.6112,6.6112,6.6112,6.6112,6.6112,6.6112,6.6388,6.7417,6.7719,6.8095,6.9055,6.9828,7.0476,7.0983,7.1535,7.2087,7.2593,7.2693,7.2693,7.2693,7.2693,7.2693,7.2693,7.2693,7.2693,7.2693,7.2313,7.2263,7.2643,7.1887,7.1811,7.2643,7.2288,7.2238,7.2517,7.2618,7.2643,7.2517,7.2643,7.2392,7.1933,7.3781,7.5447,0.0,0.0,0.0,0.0,3.955,0.0,0.0,0.0,3.8812,3.9549,0.0,3.9913,4.0558,0.0,0.0,4.1188,4.353,4.5535,4.6061,4.9336,5.2512,5.4808,5.526,5.6432,5.9185,5.9239,5.9759,6.1266,6.001,5.9996,6.1994,6.1642,6.1818,6.2756,6.1893,6.1592,6.2094,6.2094,6.2094,6.2094,6.2556,6.2781,6.2781,6.2781,6.2781,6.2781,6.2781,6.2781,6.2781,6.2781,6.2781,6.2781,6.2781,6.2781,6.2781,6.2781,6.3199,6.3626,6.3099,6.3952,6.5208,6.4773,6.5258,6.6112,6.6112,6.6112,6.6112,6.6112,6.6112,6.6112,6.6112,6.6112,6.6112,6.6112,6.6112,6.6287,6.694,6.7442,6.797,6.8553,6.9551,7.0476,7.0983,7.1535,7.2087,7.2593,7.2693,7.2693,7.2693,7.2693,7.2693,7.2693,7.2693,7.2693,7.2693,7.2618,7.2618,7.2693,7.2568,7.2542,7.2668,7.2618,7.2439,7.2012,7.2489,7.2489,7.1987,7.2489,7.2392,7.1933,7.4216,7.5866,0.0,0.0,0.0,0.0,0.0,0.0,0.0,0.0,3.7921,0.0,0.0,0.0,0.0,0.0,0.0,0.0,3.9401,4.0482,4.0875,4.231,4.5482,5.1357,5.1818,5.2716,5.5528,5.6058,5.6765,5.8137,5.7918,5.8239,5.9514,6.0257,6.104,6.1843,6.1743,6.1617,6.1542,6.1843,6.1994,6.1994,6.1918,6.222,6.2781,6.2496,6.2521,6.2781,6.2781,6.2781,6.2781,6.2781,6.2781,6.2781,6.2781,6.2781,6.2781,6.2781,6.3199,6.3601,6.3023,6.3902,6.5308,6.5383,6.5509,6.5685,6.6011,6.6112,6.6112,6.6112,6.6112,6.6112,6.6112,6.6112,6.6112,6.6112,6.6112,6.6262,6.6865,6.7417,6.797,6.8522,6.9501,7.0376,7.0602,7.1334,7.2087,7.2593,7.2464,7.2364,7.2643,7.2439,7.2263,7.2263,7.2492,7.2542,7.2288,7.2492,7.2693,7.2693,7.2693,7.2542,7.2263,7.2517,7.2568,7.2389,7.2568,7.2568,7.2389,7.2568,7.3092,7.393,7.4535,7.5581,4.3053,0.0,0.0,0.0,0.0,0.0,0.0,0.0,0.0,0.0,0.0,0.0,0.0,0.0,0.0,0.0,0.0,3.6525,3.6837,3.7246,0.0,4.6691,4.8094,0.0,5.1034,5.198,5.309,5.4496,5.4837,5.563,5.7267,5.8515,5.9722,6.0914,6.119,6.119,6.0939,6.1341,6.1542,6.1542,6.1291,6.1592,6.237,6.2119,6.222,6.2581,6.2731,6.2781,6.2781,6.2781,6.2781,6.2781,6.2781,6.2781,6.2781,6.2781,6.3099,6.34,6.2932,6.3701,6.4957,6.566,6.5609,6.5383,6.5936,6.6112,6.6112,6.6112,6.6112,6.6112,6.6112,6.6112,6.6112,6.6112,6.6112,6.6237,6.6639,6.7166,6.7744,6.8296,6.9275,7.0079,7.0275,7.1058,7.1811,7.2213,7.1937,7.1887,7.2439,7.2012,7.1786,7.2087,7.2364,7.2339,7.1937,7.2414,7.2693,7.2693,7.2693,7.2539,7.2138,7.2467,7.2618,7.2467,7.2618,7.2618,7.2467,7.2618,7.3702,7.5581,7.4956,7.5822,0.0,0.0,0.0,4.379,0.0,0.0,0.0,0.0,3.8704,0.0,0.0,0.0,0.0,0.0,0.0,0.0,0.0,0.0,0.0,0.0,0.0,0.0,0.0,0.0,0.0,4.6757,4.8494,5.0613,5.0184,5.1688,5.5919,5.6204,5.7503,6.0247,5.9834,5.9834,6.0297,6.0362,6.0362,6.0387,6.0914,6.119,6.1266,6.1768,6.2019,6.2069,6.2556,6.2781,6.2781,6.2781,6.2781,6.2781,6.2781,6.2781,6.2781,6.2781,6.2807,6.2807,6.2807,6.3224,6.3927,6.4982,6.5308,6.5383,6.5936,6.6112,6.6112,6.6112,6.6112,6.6112,6.6112,6.6112,6.6112,6.6112,6.6112,6.6112,6.6137,6.6589,6.7166,6.7719,6.8678,6.9582,7.0225,7.0778,7.1108,7.1133,7.1133,7.1309,7.1861,7.146,7.151,7.2542,7.2238,7.1937,7.1912,7.2414,7.2693,7.2693,7.2693,7.2668,7.2668,7.2668,7.2489,7.1937,7.2464,7.2417,7.1937,7.2464,7.3907,7.6188,7.5608,7.7154,0.0,0.0,5.1122,4.9665,0.0,0.0,0.0,0.0,0.0,0.0,0.0,0.0,0.0,0.0,0.0,0.0,0.0,0.0,0.0,0.0,3.3361,0.0,0.0,0.0,0.0,0.0,0.0,0.0,4.6208,0.0,5.1249,5.37,5.616,5.8641,5.9232,5.9583,5.9784,6.0136,6.0311,6.0311,6.0136,6.0462,6.119,6.1366,6.1667,6.2044,6.2556,6.2781,6.2781,6.2781,6.2781,6.2781,6.2781,6.2781,6.2781,6.2781,6.3073,6.345,6.3802,6.3827,6.3877,6.4931,6.5032,6.4931,6.5835,6.586,6.5634,6.6011,6.6112,6.6112,6.6112,6.6112,6.6112,6.6112,6.6112,6.6112,6.6112,6.6564,6.7141,6.7693,6.8396,6.9029,6.9627,6.9878,7.0255,7.0983,7.1083,7.1284,7.1836,7.141,7.1234,7.161,7.1811,7.161,7.0882,7.1661,7.2188,7.2188,7.2467,7.2693,7.2693,7.2693,7.2593,7.2417,7.264,7.2593,7.2439,7.2593,7.4691,7.8533,7.8315,7.9219,5.3874,5.4737,0.0,5.3331,5.1423,0.0,4.51,0.0,0.0,0.0,0.0,0.0,0.0,0.0,0.0,0.0,0.0,0.0,0.0,3.1941,0.0,0.0,0.0,0.0,0.0,0.0,0.0,0.0,0.0,0.0,0.0,5.1106,5.4193,5.7211,5.8554,5.9307,5.9483,5.9859,6.0035,6.001,5.9859,6.0161,6.0889,6.1291,6.1667,6.2044,6.2556,6.2781,6.2781,6.2781,6.2781,6.2781,6.2781,6.2781,6.2781,6.2781,6.3073,6.3425,6.3776,6.3676,6.355,6.4655,6.4798,6.4722,6.5785,6.586,6.566,6.6011,6.6112,6.6112,6.6112,6.6112,6.6112,6.6112,6.6112,6.6112,6.6112,6.6413,6.689,6.7643,6.7919,6.8346,6.923,6.923,6.9406,7.0355,7.0656,7.0907,7.1284,7.1184,7.1083,7.1083,7.1585,7.1711,7.1184,7.161,7.1987,7.2188,7.2539,7.2693,7.2693,7.2693,7.2869,7.3318,7.2894,7.2869,7.327,7.2869,7.5126,7.9687,7.9687,8.0702]},{"header":{"parameterUnit":"m.s-1","parameterCategory":1,"la1":30.6,"la2":29.2853,"lo1":-89.7004,"lo2":-87.6739,"dy":0.0162,"dx":0.0183,"nx":112,"ny":82,"refTime":"2023-04-23T06:00:00:Z","depth":0,"parameterNumber":3,"parameterNumberName":"V-component_of_WINDS"},"data":[0.0,0.0,0.0,0.0,0.0,0.0,0.0,0.0,0.0,0.0,0.0,0.0,0.0,0.0,0.0,0.0,0.0,0.0,0.0,0.0,0.0,0.0,0.0,0.0,0.0,0.0,0.0,0.0,0.0,0.0,0.0,0.0,0.0,0.0,0.0,0.0,0.0,0.0,0.0,0.0,0.0,0.0,0.0,0.0,0.0,0.0,0.0,0.0,0.0,0.0,0.0,0.0,0.0,0.0,0.0,0.0,0.0,0.0,0.0,0.0,0.0,0.0,0.0,0.0,0.0,0.0,0.0,0.0,0.0,0.0,0.0,0.0,0.0,0.0,0.0,0.0,0.0,0.0,0.0,0.0,0.0,0.0,0.0,0.0,0.0,0.0,0.0,0.0,0.0,0.0,0.0,2.5714,2.9216,3.1524,3.1805,3.4511,3.372,2.7966,0.0,0.0,0.0,0.0,0.0,0.0,0.0,0.0,0.0,0.0,0.0,0.0,0.0,0.0,0.0,0.0,0.0,0.0,0.0,0.0,0.0,0.0,0.0,0.0,0.0,0.0,0.0,0.0,0.0,0.0,0.0,0.0,0.0,0.0,0.0,0.0,0.0,0.0,0.0,0.0,0.0,0.0,0.0,0.0,0.0,0.0,0.0,0.0,0.0,0.0,0.0,0.0,0.0,0.0,0.0,0.0,0.0,0.0,0.0,0.0,0.0,0.0,0.0,0.0,0.0,0.0,0.0,0.0,0.0,0.0,0.0,0.0,0.0,0.0,0.0,0.0,0.0,0.0,0.0,0.0,0.0,0.0,0.0,0.0,0.0,0.0,0.0,0.0,0.0,0.0,0.0,0.0,0.0,0.0,0.0,0.0,0.0,0.0,0.0,0.0,0.0,0.0,0.0,0.0,2.6082,2.9548,3.1396,3.303,3.4563,3.4968,3.3872,3.1,0.0,0.0,0.0,0.0,0.0,0.0,0.0,0.0,0.0,0.0,0.0,0.0,0.0,0.0,0.0,0.0,0.0,0.0,0.0,0.0,0.0,0.0,0.0,0.0,0.0,0.0,0.0,0.0,0.0,0.0,0.0,0.0,0.0,0.0,0.0,0.0,0.0,0.0,0.0,0.0,0.0,0.0,0.0,0.0,0.0,0.0,0.0,0.0,0.0,0.0,0.0,0.0,0.0,0.0,0.0,0.0,0.0,0.0,0.0,0.0,0.0,0.0,0.0,0.0,0.0,0.0,0.0,0.0,0.0,0.0,0.0,0.0,0.0,0.0,0.0,0.0,0.0,0.0,0.0,0.0,0.0,0.0,0.0,0.0,0.0,0.0,0.0,0.0,0.0,0.0,0.0,0.0,0.0,0.0,0.0,0.0,0.0,0.0,0.0,0.0,0.0,0.0,0.0,2.7216,3.0089,3.5137,3.635,3.7079,3.7835,3.7567,3.5827,3.2288,3.2243,0.0,0.0,0.0,0.0,0.0,0.0,0.0,0.0,0.0,0.0,0.0,0.0,0.0,0.0,0.0,0.0,0.0,0.0,0.0,0.0,0.0,0.0,0.0,0.0,0.0,0.0,0.0,0.0,0.0,0.0,0.0,0.0,0.0,0.0,0.0,0.0,0.0,0.0,0.0,0.0,0.0,0.0,0.0,0.0,0.0,0.0,0.0,0.0,0.0,0.0,0.0,0.0,0.0,0.0,0.0,0.0,0.0,0.0,0.0,0.0,0.0,0.0,0.0,0.0,0.0,0.0,0.0,0.0,0.0,0.0,0.0,0.0,0.0,0.0,0.0,0.0,0.0,0.0,0.0,0.0,0.0,0.0,0.0,0.0,0.0,0.0,0.0,0.0,0.0,0.0,0.0,0.0,0.0,0.0,0.0,0.0,0.0,0.0,0.0,0.0,0.0,0.0,3.0746,3.373,3.9402,4.0204,4.0444,4.079,3.9678,3.7316,3.344,3.2156,0.0,0.0,0.0,0.0,0.0,0.0,0.0,0.0,0.0,0.0,0.0,0.0,0.0,0.0,0.0,0.0,0.0,0.0,0.0,0.0,0.0,0.0,0.0,0.0,0.0,0.0,0.0,0.0,0.0,0.0,0.0,0.0,0.0,0.0,0.0,0.0,0.0,0.0,0.0,0.0,0.0,0.0,0.0,0.0,0.0,0.0,0.0,0.0,0.0,0.0,0.0,0.0,0.0,0.0,0.0,0.0,0.0,0.0,0.0,0.0,0.0,0.0,0.0,0.0,0.0,0.0,0.0,0.0,0.0,0.0,0.0,0.0,0.0,0.0,0.0,0.0,0.0,0.0,0.0,0.0,0.0,0.0,0.0,0.0,0.0,0.0,0.0,0.0,0.0,0.0,0.0,0.0,0.0,0.0,0.0,0.0,0.0,0.0,0.0,0.0,0.0,0.0,3.2582,3.569,4.017,4.0545,4.1144,4.2734,3.9664,3.6977,3.5373,3.1987,0.0,0.0,0.0,0.0,0.0,0.0,0.0,0.0,0.0,0.0,0.0,0.0,0.0,0.0,0.0,0.0,0.0,0.0,0.0,0.0,0.0,0.0,0.0,0.0,0.0,0.0,0.0,0.0,0.0,0.0,0.0,0.0,0.0,0.0,0.0,0.0,0.0,0.0,0.0,0.0,0.0,0.0,0.0,0.0,0.0,0.0,0.0,0.0,0.0,0.0,0.0,0.0,0.0,0.0,0.0,0.0,0.0,0.0,0.0,0.0,0.0,0.0,0.0,0.0,0.0,0.0,0.0,0.0,0.0,0.0,0.0,0.0,0.0,0.0,0.0,0.0,0.0,0.0,0.0,0.0,0.0,0.0,0.0,0.0,0.0,0.0,0.0,0.0,0.0,0.0,0.0,0.0,0.0,0.0,0.0,0.0,0.0,0.0,0.0,0.0,0.0,0.0,3.5851,3.9869,0.0,4.5501,4.5343,4.5463,4.2461,3.9267,3.6286,0.0,0.0,0.0,0.0,0.0,0.0,0.0,0.0,0.0,0.0,0.0,0.0,0.0,0.0,0.0,0.0,0.0,0.0,0.0,0.0,0.0,0.0,0.0,0.0,0.0,0.0,0.0,0.0,0.0,0.0,0.0,0.0,0.0,0.0,0.0,0.0,0.0,0.0,0.0,0.0,0.0,0.0,0.0,0.0,0.0,0.0,0.0,0.0,0.0,0.0,0.0,0.0,0.0,0.0,0.0,0.0,0.0,0.0,0.0,0.0,0.0,0.0,0.0,0.0,0.0,0.0,0.0,0.0,0.0,0.0,0.0,0.0,0.0,0.0,0.0,0.0,0.0,0.0,0.0,0.0,0.0,0.0,0.0,0.0,0.0,0.0,0.0,0.0,0.0,0.0,0.0,0.0,0.0,0.0,0.0,0.0,0.0,0.0,0.0,0.0,0.0,0.0,3.4346,3.836,4.2849,0.0,4.834,4.7598,4.6621,4.3297,3.9759,3.6298,0.0,0.0,0.0,0.0,0.0,0.0,0.0,0.0,0.0,0.0,0.0,0.0,0.0,0.0,0.0,0.0,0.0,0.0,0.0,0.0,0.0,0.0,0.0,0.0,0.0,0.0,0.0,0.0,0.0,0.0,0.0,0.0,0.0,0.0,0.0,0.0,0.0,0.0,0.0,0.0,0.0,0.0,0.0,0.0,0.0,0.0,0.0,0.0,0.0,0.0,0.0,0.0,0.0,0.0,0.0,0.0,0.0,0.0,0.0,0.0,0.0,0.0,0.0,0.0,0.0,0.0,0.0,0.0,0.0,0.0,0.0,0.0,0.0,0.0,0.0,0.0,0.0,0.0,0.0,0.0,0.0,0.0,0.0,0.0,0.0,0.0,0.0,0.0,0.0,0.0,0.0,0.0,0.0,0.0,0.0,0.0,0.0,0.0,0.0,0.0,0.0,0.0,3.5474,3.9784,4.4071,4.8429,4.8131,4.7051,4.5781,4.1482,3.7766,0.0,0.0,0.0,0.0,0.0,0.0,0.0,0.0,0.0,0.0,0.0,0.0,0.0,0.0,0.0,0.0,0.0,0.0,0.0,0.0,0.0,0.0,0.0,0.0,0.0,0.0,0.0,0.0,0.0,0.0,0.0,0.0,0.0,0.0,0.0,0.0,0.0,0.0,0.0,0.0,0.0,0.0,0.0,0.0,0.0,0.0,0.0,0.0,0.0,0.0,0.0,0.0,0.0,0.0,0.0,0.0,0.0,0.0,0.0,0.0,0.0,0.0,0.0,0.0,0.0,0.0,0.0,0.0,0.0,0.0,0.0,0.0,0.0,0.0,0.0,0.0,0.0,0.0,0.0,0.0,0.0,0.0,0.0,0.0,0.0,0.0,0.0,0.0,0.0,0.0,0.0,0.0,0.0,0.0,0.0,0.0,0.0,0.0,0.0,0.0,0.0,0.0,0.0,0.0,4.0962,4.5299,4.8118,4.791,4.6933,4.5351,4.1757,3.854,3.6129,0.0,0.0,0.0,0.0,0.0,0.0,0.0,0.0,0.0,0.0,0.0,0.0,0.0,0.0,0.0,0.0,0.0,0.0,0.0,0.0,0.0,0.0,0.0,0.0,0.0,0.0,0.0,0.0,0.0,0.0,0.0,0.0,0.0,0.0,0.0,0.0,0.0,0.0,0.0,0.0,0.0,0.0,0.0,0.0,0.0,0.0,0.0,0.0,0.0,0.0,0.0,0.0,0.0,0.0,0.0,0.0,0.0,0.0,0.0,0.0,0.0,0.0,0.0,0.0,0.0,0.0,0.0,0.0,0.0,0.0,0.0,0.0,0.0,0.0,0.0,0.0,0.0,0.0,0.0,0.0,0.0,0.0,0.0,0.0,0.0,0.0,0.0,0.0,0.0,0.0,0.0,0.0,0.0,0.0,0.0,0.0,0.0,0.0,0.0,0.0,0.0,0.0,3.6525,4.1602,4.5781,4.7754,4.7422,4.6445,4.4902,4.1601,3.8588,3.6141,0.0,0.0,0.0,0.0,0.0,0.0,0.0,0.0,0.0,0.0,0.0,0.0,0.0,0.0,0.0,0.0,0.0,0.0,0.0,0.0,0.0,0.0,0.0,0.0,0.0,0.0,0.0,0.0,0.0,0.0,0.0,0.0,0.0,0.0,0.0,0.0,0.0,0.0,0.0,0.0,0.0,0.0,0.0,0.0,0.0,0.0,0.0,0.0,0.0,0.0,0.0,0.0,0.0,0.0,0.0,0.0,0.0,0.0,0.0,0.0,0.0,0.0,0.0,0.0,0.0,0.0,0.0,0.0,0.0,0.0,0.0,0.0,0.0,0.0,0.0,0.0,0.0,0.0,0.0,0.0,0.0,0.0,0.0,0.0,0.0,0.0,0.0,0.0,0.0,0.0,0.0,0.0,0.0,0.0,0.0,0.0,0.0,0.0,0.0,0.0,0.0,0.0,3.7183,4.1854,4.5625,4.7344,4.6758,4.5703,4.4394,4.1152,3.8156,3.5692,0.0,0.0,0.0,0.0,0.0,0.0,0.0,0.0,0.0,0.0,0.0,0.0,0.0,0.0,0.0,0.0,0.0,0.0,0.0,0.0,0.0,0.0,0.0,0.0,0.0,0.0,0.0,0.0,0.0,0.0,0.0,0.0,0.0,0.0,0.0,0.0,0.0,0.0,0.0,0.0,0.0,0.0,0.0,0.0,0.0,0.0,0.0,0.0,0.0,0.0,0.0,0.0,0.0,0.0,0.0,0.0,0.0,0.0,0.0,0.0,2.6744,0.0,0.0,0.0,0.0,0.0,0.0,0.0,0.0,0.0,0.0,0.0,0.0,0.0,0.0,0.0,0.0,0.0,0.0,0.0,0.0,0.0,0.0,0.0,0.0,0.0,0.0,0.0,0.0,0.0,0.0,0.0,0.0,0.0,0.0,0.0,0.0,0.0,0.0,0.0,0.0,0.0,3.7982,4.1944,4.5176,4.6894,4.6308,4.5137,4.3537,4.0801,3.8292,3.6101,0.0,0.0,0.0,0.0,0.0,0.0,0.0,0.0,0.0,0.0,0.0,0.0,0.0,0.0,0.0,0.0,0.0,0.0,0.0,0.0,0.0,0.0,0.0,0.0,0.0,0.0,0.0,0.0,0.0,0.0,0.0,0.0,0.0,0.0,0.0,0.0,0.0,0.0,0.0,0.0,0.0,0.0,0.0,0.0,0.0,0.0,0.0,0.0,0.0,0.0,0.0,0.0,0.0,0.0,0.0,0.0,0.0,0.0,0.0,0.0,0.0,2.8399,0.0,0.0,0.0,0.0,0.0,0.0,0.0,0.0,0.0,0.0,0.0,0.0,0.0,0.0,0.0,0.0,0.0,0.0,0.0,0.0,0.0,0.0,0.0,0.0,0.0,0.0,0.0,0.0,0.0,0.0,0.0,0.0,0.0,0.0,0.0,0.0,0.0,0.0,0.0,0.0,3.8349,4.2007,4.4902,4.6191,4.5566,4.4531,4.3183,4.0703,3.8404,3.6499,3.4511,0.0,0.0,0.0,0.0,0.0,0.0,0.0,0.0,0.0,0.0,0.0,0.0,0.0,0.0,0.0,0.0,0.0,0.0,0.0,0.0,0.0,0.0,0.0,0.0,0.0,0.0,0.0,0.0,0.0,0.0,0.0,0.0,0.0,0.0,0.0,0.0,0.0,0.0,0.0,0.0,0.0,0.0,0.0,0.0,0.0,0.0,0.0,0.0,0.0,0.0,0.0,0.0,0.0,3.5956,3.6848,3.8009,3.8235,3.8481,3.8557,3.5149,3.3662,3.344,0.0,0.0,0.0,0.0,0.0,0.0,0.0,0.0,0.0,0.0,0.0,0.0,0.0,0.0,0.0,0.0,0.0,0.0,0.0,0.0,0.0,0.0,0.0,0.0,0.0,3.5093,3.4621,0.0,0.0,0.0,0.0,0.0,0.0,0.0,0.0,0.0,0.0,0.0,0.0,3.8623,4.2123,4.4726,4.5629,4.4844,4.3926,4.3047,4.0801,3.8711,3.7027,3.5444,3.3654,0.0,0.0,0.0,0.0,0.0,0.0,0.0,0.0,0.0,0.0,0.0,0.0,0.0,0.0,0.0,0.0,0.0,0.0,0.0,0.0,0.0,0.0,0.0,0.0,0.0,0.0,0.0,0.0,0.0,0.0,0.0,0.0,2.8101,3.1389,0.0,0.0,0.0,0.0,0.0,0.0,0.0,0.0,0.0,0.0,0.0,0.0,0.0,3.4096,3.6786,3.8009,3.9717,4.1869,4.2684,4.2997,4.2822,4.401,4.4577,4.4499,4.2947,0.0,3.7791,3.5143,0.0,0.0,0.0,0.0,0.0,0.0,0.0,0.0,0.0,0.0,0.0,0.0,0.0,0.0,0.0,0.0,0.0,0.0,0.0,0.0,0.0,0.0,3.6309,3.6743,3.7222,3.7362,0.0,3.4206,3.1695,3.0787,3.0647,0.0,0.0,0.0,0.0,0.0,0.0,0.0,3.921,4.2337,4.4726,4.5629,4.4551,4.3457,4.2578,4.1133,3.9609,3.7835,3.6855,3.5547,3.3777,3.3066,0.0,0.0,0.0,0.0,0.0,0.0,0.0,0.0,0.0,0.0,0.0,0.0,0.0,0.0,0.0,0.0,0.0,0.0,0.0,0.0,0.0,0.0,0.0,0.0,0.0,0.0,0.0,0.0,0.0,2.6614,3.0127,3.1666,3.1663,3.0673,0.0,0.0,0.0,0.0,0.0,0.0,0.0,0.0,0.0,3.5922,3.7463,3.9317,4.1591,4.3327,4.5023,4.6719,4.7578,4.8262,4.8789,4.9355,4.9766,4.9961,4.9196,4.7476,4.4807,3.9854,3.7446,3.6589,0.0,0.0,0.0,0.0,3.1051,3.135,3.2225,3.387,0.0,0.0,0.0,0.0,0.0,0.0,0.0,0.0,0.0,0.0,0.0,0.0,0.0,3.9185,4.0156,4.0566,3.9552,3.7866,3.5933,0.0,3.3745,3.3572,3.252,0.0,0.0,0.0,0.0,0.0,4.0565,4.3324,4.5176,4.5293,4.4336,4.3359,4.246,4.1211,3.9883,3.8379,3.75,3.6284,3.4492,3.4062,3.373,0.0,0.0,0.0,0.0,0.0,0.0,0.0,0.0,0.0,0.0,0.0,0.0,0.0,0.0,0.0,0.0,0.0,0.0,0.0,0.0,0.0,0.0,0.0,0.0,0.0,0.0,0.0,0.0,2.9508,3.2492,3.2945,3.4009,3.3691,0.0,0.0,0.0,0.0,0.0,0.0,3.4915,3.5982,3.8122,4.1681,4.3206,4.4787,4.6504,4.8203,4.9668,5.0859,5.1387,5.2246,5.3379,5.3379,5.3555,5.3898,5.3516,5.2461,5.0547,4.443,4.115,3.9737,3.7801,3.6466,3.5612,3.5463,3.5765,3.6358,3.716,3.8139,3.8991,3.8398,0.0,3.6921,3.4685,0.0,0.0,0.0,0.0,3.3789,3.6507,3.8121,3.9548,4.1561,4.2637,4.2891,4.1621,4.1016,3.981,0.0,3.639,3.6159,3.4857,0.0,0.0,0.0,0.0,3.9834,4.1854,4.4199,4.5508,4.5035,4.4238,4.3359,4.246,4.1348,4.0234,3.9141,3.8262,3.7051,3.543,3.5156,3.4629,3.3769,0.0,0.0,0.0,0.0,0.0,0.0,0.0,0.0,0.0,0.0,0.0,0.0,0.0,0.0,0.0,0.0,0.0,0.0,0.0,0.0,0.0,0.0,0.0,0.0,0.0,0.0,0.0,0.0,0.0,3.8033,4.0503,0.0,0.0,0.0,0.0,3.2865,3.4022,3.6458,4.0291,4.1747,4.4114,4.7689,4.9445,5.0948,5.2285,5.2812,5.3586,5.4414,5.4043,5.4336,5.5176,5.5176,5.5195,5.5215,5.5195,5.4414,5.294,4.8887,4.623,4.4369,4.1538,4.0395,4.0357,4.0337,4.0356,4.0627,4.2184,4.2772,4.287,4.3221,4.2499,4.0841,3.7307,3.6728,0.0,0.0,3.5745,3.812,3.8879,4.0624,4.2517,4.3926,4.3945,4.3652,4.3574,4.3203,4.1914,0.0,3.7488,3.7119,3.6715,0.0,3.7687,3.7929,4.0067,4.1972,4.2891,4.457,4.5508,4.5035,4.4238,4.3359,4.246,4.1641,4.0937,4.0449,3.959,3.8516,3.7226,3.6387,3.5527,3.4648,3.4219,0.0,0.0,0.0,0.0,0.0,0.0,0.0,0.0,0.0,0.0,0.0,0.0,0.0,0.0,0.0,0.0,0.0,0.0,0.0,0.0,0.0,0.0,0.0,0.0,0.0,0.0,0.0,0.0,4.0554,4.3505,0.0,3.8545,3.7839,3.7921,3.8401,4.0334,4.282,4.5886,4.7515,4.9453,5.1875,5.3086,5.4062,5.4733,5.5488,5.5996,5.6308,5.6445,5.666,5.6953,5.6953,5.6797,5.6523,5.6523,5.5801,5.4492,5.2832,5.0312,4.7344,4.5437,4.4538,4.4324,4.4596,4.4869,4.5223,4.582,4.5801,4.5351,4.4101,4.2832,4.1562,4.0259,4.024,4.055,3.9951,4.0954,4.2411,4.3181,4.3951,4.4629,4.5098,4.5098,4.4824,4.4277,4.4043,4.3476,4.1933,4.0644,3.9768,3.964,3.9364,3.969,4.1092,4.2067,4.3144,4.4612,4.5527,4.5801,4.5098,4.4238,4.3359,4.246,4.166,4.0879,4.0156,3.9551,3.8633,3.7344,3.6211,3.5332,3.4707,3.375,3.3383,0.0,0.0,0.0,0.0,0.0,0.0,0.0,0.0,0.0,0.0,0.0,0.0,0.0,0.0,0.0,0.0,0.0,0.0,0.0,0.0,0.0,0.0,0.0,0.0,0.0,0.0,4.347,4.3394,4.665,4.7113,4.2441,4.2219,4.2936,4.4278,4.626,4.8476,5.0946,5.2246,5.3563,5.5006,5.5801,5.6367,5.6743,5.7383,5.7734,5.7851,5.8027,5.8199,5.832,5.8144,5.791,5.7656,5.75,5.6797,5.5703,5.5273,5.334,5.0488,4.8977,4.8183,4.7832,4.7969,4.8203,4.8437,4.8281,4.7851,4.707,4.5351,4.4023,4.3086,4.293,4.3183,4.3613,4.4043,4.4687,4.541,4.6133,4.6352,4.6352,4.6352,4.6137,4.5723,4.5156,4.4805,4.4512,4.4219,4.3008,4.2012,4.2033,4.1562,4.1797,4.3696,4.3812,4.4304,4.5936,4.6209,4.5978,4.5114,4.4224,4.3359,4.246,4.1778,4.0896,3.9726,3.9349,3.8504,3.6934,3.6328,3.5717,3.5067,3.4218,3.3913,3.4066,0.0,0.0,0.0,0.0,0.0,0.0,0.0,0.0,0.0,0.0,0.0,0.0,0.0,0.0,0.0,0.0,0.0,0.0,0.0,0.0,0.0,0.0,0.0,3.7657,4.4875,4.9172,4.7057,5.0485,5.1209,4.6659,4.7511,4.8991,5.0377,5.1601,5.3144,5.5254,5.5728,5.6353,5.7226,5.7676,5.8141,5.8535,5.8535,5.8769,5.918,5.8769,5.8769,5.918,5.8714,5.8535,5.848,5.8086,5.7402,5.6562,5.6133,5.5163,5.3875,5.2138,5.125,5.082,5.041,5.0234,5.0156,4.9707,4.9004,4.8125,4.7266,4.647,4.5813,4.532,4.5539,4.597,4.6381,4.6704,4.709,4.75,4.7617,4.7598,4.7598,4.6953,4.6328,4.6328,4.5664,4.5016,4.5016,4.4375,4.3776,4.3793,4.3754,4.4238,4.5556,4.5351,0.0,4.6837,4.6583,4.5973,4.5101,4.4214,4.3359,4.248,4.1994,4.1025,3.9295,3.9135,3.8165,3.6094,3.671,3.6688,3.5791,3.5731,3.5348,3.4576,0.0,0.0,0.0,0.0,0.0,0.0,0.0,0.0,0.0,0.0,0.0,0.0,0.0,0.0,0.0,0.0,0.0,0.0,0.0,0.0,0.0,0.0,4.706,4.8087,5.2339,5.6037,5.7906,5.8773,5.8683,5.7347,5.4592,5.4026,5.6726,5.5962,5.5742,5.664,5.7348,5.791,5.8128,5.8594,5.8887,5.9004,5.9004,5.9062,5.918,5.9062,5.9062,5.918,5.9062,5.8828,5.848,5.8363,5.7851,5.7012,5.6582,5.6015,5.5221,5.3816,5.2851,5.2168,5.2051,5.1621,5.1035,5.0605,5.0098,4.9492,4.8613,4.9347,5.0434,4.9651,4.9733,5.006,5.0184,4.9281,4.8405,4.8522,4.8281,4.8027,4.8027,4.7383,4.6758,4.6758,4.6328,4.5957,4.5957,4.5996,4.5801,4.5248,4.5385,4.5923,4.6931,4.6686,0.0,4.7326,4.652,4.5631,4.5059,4.4214,4.3345,4.2447,4.1168,3.9955,3.8845,3.7587,3.6627,3.6001,3.5608,3.5257,3.5002,3.4596,3.4218,0.0,0.0,0.0,0.0,0.0,0.0,0.0,0.0,0.0,0.0,0.0,0.0,0.0,0.0,0.0,0.0,0.0,0.0,0.0,0.0,0.0,0.0,4.8568,5.5553,5.8968,6.103,6.2756,6.4359,6.4622,6.435,6.3384,6.0893,6.0325,6.2781,6.1926,6.1604,6.225,6.2516,6.2649,6.2649,6.2677,6.2719,6.2719,6.2719,6.2719,6.2719,6.152,6.0949,6.0934,5.9754,5.9062,0.0,5.8594,5.8125,5.7441,5.7031,5.6484,0.0,0.0,0.0,0.0,0.0,5.2012,5.1319,5.0957,5.1321,5.1906,5.118,5.259,5.438,5.3689,5.3602,5.3554,5.232,5.1211,5.0139,4.917,4.8718,4.8476,4.8476,4.7832,4.7514,4.8675,4.8433,4.8377,4.958,4.9981,0.0,4.9711,4.8114,4.7056,4.7745,4.7478,4.7296,4.7551,4.6813,4.5914,4.5079,4.4214,4.3343,4.2466,4.103,0.0,0.0,0.0,3.6464,3.6253,3.5698,0.0,0.0,0.0,3.5019,3.4577,0.0,0.0,0.0,3.2835,3.2714,0.0,0.0,0.0,0.0,0.0,0.0,0.0,0.0,0.0,0.0,0.0,0.0,0.0,0.0,0.0,0.0,5.4652,6.1952,6.8805,6.9556,6.9082,6.8107,6.8658,6.856,6.7026,6.6378,6.6658,6.8295,6.8145,6.8369,6.9246,0.0,0.0,0.0,0.0,6.7686,6.7566,6.7566,6.7566,6.7566,6.4767,6.3384,6.3276,6.0456,5.918,5.918,5.9102,5.8796,5.8303,5.7909,5.6967,5.5742,5.457,5.4101,5.3945,5.2637,5.1933,5.1562,5.1372,0.0,0.0,5.4376,5.5963,5.7869,5.7327,5.7146,5.6572,5.4009,5.2855,5.1937,4.9839,4.9078,4.8986,4.9216,4.8677,4.8792,5.1501,5.146,5.1595,5.4119,5.4634,5.4749,5.5156,5.146,4.8608,4.8981,4.8685,4.8265,4.8049,4.7526,4.6647,4.5183,0.0,0.0,4.2462,4.1167,3.9764,3.8144,3.7578,3.7177,3.6923,3.679,3.7239,3.833,3.784,3.7145,3.629,3.595,3.5703,3.5508,3.3999,3.3863,0.0,0.0,0.0,0.0,0.0,0.0,0.0,0.0,0.0,0.0,0.0,0.0,0.0,0.0,0.0,5.5405,6.2408,6.8395,7.1592,7.3544,7.4252,7.3121,7.161,7.1519,7.3847,7.0312,6.9153,7.2194,7.0299,6.9088,6.9291,6.9201,6.89,6.8443,6.8277,6.8053,6.7566,6.7566,6.7566,6.7566,0.0,0.0,6.3276,6.0456,5.918,5.9347,6.1508,6.1955,6.1115,6.1139,5.8868,5.5371,5.4785,5.4551,5.4394,5.3066,5.2754,5.3111,5.3971,5.4815,5.5719,5.6911,5.8883,6.0742,6.0312,5.9864,0.0,5.8858,5.5644,5.2297,5.1847,5.0322,4.938,5.1281,5.1298,5.1568,5.3995,5.4135,5.3969,5.4482,5.4862,5.5111,5.5201,5.438,5.3863,5.4257,5.3598,5.2453,5.0624,4.9358,4.7687,4.5268,4.4214,4.3345,4.2487,4.0933,3.9704,3.8984,3.7903,3.7788,3.8815,3.8846,3.9772,4.1794,4.1054,4.0018,3.8737,3.8308,3.7549,3.6441,3.5416,3.5435,0.0,0.0,0.0,0.0,0.0,0.0,0.0,0.0,0.0,0.0,0.0,4.2178,0.0,0.0,5.8072,6.1544,6.7643,7.2568,7.4523,7.6004,7.6482,7.5377,7.4739,7.503,7.6733,7.4582,7.3892,7.5841,7.4701,7.4041,7.4327,7.4089,7.3631,7.3056,7.277,7.2389,7.1838,7.2151,7.2151,7.1838,6.9285,6.7896,6.7491,6.4681,6.3405,6.346,6.4875,6.4922,6.399,6.3565,6.1854,5.9514,5.9103,5.6944,5.4129,5.4753,5.4795,5.4834,5.6705,5.8132,5.9267,6.0041,6.1909,6.3766,6.3295,6.2953,6.2398,6.0666,5.8314,5.5951,5.4543,5.3304,5.2679,5.3815,5.3778,5.4126,5.6696,5.6925,5.7047,5.8456,5.8885,5.901,5.901,5.901,5.8282,5.6181,5.5453,5.4574,5.2972,5.1167,4.9152,4.6905,4.507,4.3598,4.2486,4.0858,3.9609,3.8926,3.8281,3.8702,4.0353,4.0456,4.1469,4.3624,4.3195,4.2649,4.1973,4.1745,4.1294,4.0573,4.0142,3.9534,0.0,0.0,0.0,0.0,0.0,0.0,0.0,0.0,4.0835,4.3152,4.6243,4.9449,5.2413,5.8636,6.4223,6.7086,7.1827,7.5678,7.7009,7.7687,7.7712,7.6858,7.7285,7.7787,7.8013,7.7913,7.8139,7.8792,7.8741,7.8892,7.9369,7.8842,7.8264,7.7712,7.726,7.6833,7.628,7.6707,7.6707,7.6205,7.3742,7.2294,7.1713,6.8877,6.7566,6.7619,6.7942,6.7659,6.6843,6.5896,6.4843,6.3778,6.3358,5.9939,5.5425,5.7284,5.7527,5.7292,5.9505,6.1414,6.2844,6.3141,6.4522,6.6036,6.5584,6.5383,6.4743,6.1953,6.0709,5.9678,5.7343,5.6294,5.6009,5.6377,5.6233,5.6735,5.9403,5.9732,6.0167,6.2354,6.2781,6.2781,6.2781,6.2781,6.1515,5.7801,5.7151,5.6656,5.5368,5.31,5.0847,4.8818,4.6073,4.3828,4.2382,4.0976,3.9992,3.9572,3.9549,4.0559,4.2767,4.2851,4.3795,4.578,4.5814,4.5621,4.5279,4.5279,4.5074,4.473,4.473,4.3634,3.7304,3.5257,0.0,3.4358,3.6461,3.9262,0.0,0.0,4.9804,5.2461,5.6805,6.0856,6.3178,6.7479,7.1299,7.3177,7.6031,7.8139,7.8314,7.8842,7.9143,7.9043,7.8239,7.8088,7.9093,7.8741,7.8867,7.9947,7.957,7.9319,7.9394,7.8842,7.8264,7.7712,7.7637,7.7335,7.6833,7.6833,7.6833,7.6783,7.3474,7.1862,7.1713,6.8877,6.7566,6.768,6.9222,6.9913,6.9824,6.871,6.6558,6.3905,6.3407,6.2553,6.1517,6.087,6.0807,6.1205,6.2476,6.3266,6.3953,6.5278,6.5896,6.6112,6.6036,6.5685,6.5215,6.4835,6.2532,6.0115,5.9787,5.7823,5.64,5.8436,5.8879,5.9511,6.1886,6.2379,6.2461,6.2741,6.2781,6.2781,6.2781,6.2781,6.2618,6.2101,6.1638,6.0589,5.8474,5.5401,5.2455,4.9913,4.6478,4.3711,4.2012,4.1348,4.1588,4.2865,4.2935,4.4388,4.7571,4.772,4.8625,5.048,5.0513,4.9726,4.8054,4.8054,4.7202,4.5582,4.5582,4.5207,4.1801,0.0,0.0,0.0,4.4157,4.7003,5.1216,5.4267,5.7059,6.0132,6.3992,6.7536,6.9702,7.269,7.5352,0.0,7.8264,7.9243,7.9844,7.9921,7.962,7.8967,7.8465,7.8616,7.9746,7.9369,7.9369,8.0147,7.9695,7.9394,7.9394,7.8842,7.8415,7.8189,7.7561,7.726,7.736,7.736,7.721,7.6883,7.5778,7.4902,7.4238,7.3082,7.2575,7.2554,7.259,7.2691,7.2618,7.1512,7.008,6.8589,6.8372,6.7964,6.7222,6.4672,6.3641,6.3759,6.5718,6.6108,6.5872,6.6766,6.6639,6.6187,6.6513,6.6212,6.5634,6.4982,6.3799,6.2563,6.1882,6.083,6.0177,6.1118,6.1325,6.1598,6.2577,6.2781,6.2781,6.2781,6.2781,6.2781,6.2781,6.2781,6.2781,6.2781,6.2581,6.1896,6.0349,5.7795,5.4297,4.9446,4.822,4.634,4.2858,4.4107,4.4994,4.4714,4.5223,4.6833,4.9736,4.9556,5.025,5.2192,5.2226,5.1827,5.1058,5.1058,5.0655,4.9878,4.9878,4.9817,4.4195,0.0,0.0,4.854,5.1383,5.4394,5.8916,6.1316,6.35,6.6689,6.9501,7.2087,7.4322,7.603,7.7662,7.9344,7.9871,8.0273,8.0898,8.0549,7.967,7.8239,7.7662,7.7837,7.8942,7.9118,7.9444,8.0173,7.9695,7.9394,7.9394,7.8842,7.8515,7.8515,7.7762,7.7511,7.7913,7.7762,7.7511,7.7109,7.721,7.6833,7.6104,7.6104,7.6104,7.6054,7.49,7.4423,7.4322,7.3145,7.2489,7.2113,7.1962,7.1661,7.0973,6.7979,6.6629,6.6518,6.7896,6.797,6.7417,6.7367,6.689,6.6388,6.6664,6.6438,6.5936,6.5132,6.4806,6.4521,6.3525,6.3174,6.3023,6.2832,6.2781,6.2781,6.2781,6.2781,6.2781,6.2781,6.2781,6.2781,6.2781,6.2781,6.2781,6.2781,6.2781,6.2505,6.1743,5.9309,5.5462,4.9758,4.9738,4.8693,4.5123,4.6848,4.7864,4.7269,4.7738,4.9129,5.15,5.1088,5.1443,5.2861,5.2895,5.2895,5.2895,5.2895,5.297,5.3096,5.3096,5.3196,4.2922,0.0,4.6664,5.2237,5.6451,6.0247,6.4178,6.6789,6.9105,7.189,7.3468,7.4975,7.7159,7.7637,7.8214,7.9921,8.1051,8.1579,8.1049,8.0549,7.9394,7.7185,7.5527,7.4975,0.0,7.7611,7.9018,8.0122,7.9695,7.9394,7.9394,7.8842,7.8515,7.8515,7.849,7.849,7.849,7.7963,7.7687,7.7662,7.6657,7.6129,7.6104,7.6104,7.6104,7.6054,7.49,7.4423,7.4322,7.3145,7.2668,7.2593,7.2113,7.1887,7.1736,7.0585,7.0184,6.9933,6.8371,6.8145,6.8296,6.6689,6.6513,6.684,6.6312,6.6137,6.6112,6.6061,6.5685,6.5132,6.4597,6.4053,6.3525,6.2948,6.2781,6.2781,6.2781,6.2781,6.2781,6.2781,6.2781,6.2781,6.2781,6.2781,6.2781,6.2781,6.2781,6.2781,6.2731,5.939,5.5553,5.172,5.0529,4.9746,4.9176,4.8852,4.9462,5.1311,5.0959,5.1571,5.3508,5.3102,5.2861,5.2895,5.2895,5.2895,5.2895,5.2895,5.3181,5.3683,5.3683,5.3984,4.6746,0.0,5.4915,5.881,6.2975,6.6771,6.9602,7.1639,7.3393,7.4674,7.3878,7.3061,7.341,7.2049,7.2103,7.5858,7.7407,7.8934,8.1199,8.1378,7.9921,7.623,7.5954,0.0,0.0,0.0,0.0,7.9495,7.9143,7.8992,7.9369,7.8842,7.8691,7.9093,7.8013,7.7787,7.8515,7.7611,7.7159,7.7159,7.6456,7.6104,7.6104,7.6104,7.6104,7.6054,7.5276,7.47,7.4347,7.3619,7.3067,7.2618,7.2113,7.2138,7.2313,7.1209,7.0853,7.0631,6.9351,6.8522,6.8045,6.7844,6.7141,6.6438,6.6639,6.6413,6.6036,6.566,6.5434,6.5157,6.4647,6.4371,6.4195,6.3952,6.3927,6.3827,6.3475,6.34,6.3299,6.2857,6.2781,6.2781,6.2781,6.2781,6.2781,6.2781,6.2521,6.2144,6.1793,6.0229,5.7744,5.3967,5.4592,5.3751,5.0078,5.1854,5.2996,5.2628,5.3035,5.3772,5.4813,5.431,5.3833,5.3457,5.3432,5.3432,5.3432,5.3432,5.3733,5.4321,5.4321,5.4421,5.1748,5.6203,6.0886,6.5005,6.8522,7.1463,7.372,7.49,7.5402,7.495,7.2927,7.0863,6.9643,6.7792,6.7976,7.2838,7.4584,7.6633,8.0396,8.0424,7.8842,7.5579,7.5151,7.4548,0.0,0.0,0.0,7.8289,7.8515,7.8691,7.9068,7.8917,7.8917,7.9068,7.8038,7.7712,7.8214,7.7335,7.6783,7.6632,7.628,7.6104,7.6104,7.6104,7.6104,7.6054,7.5276,7.47,7.4347,7.3594,7.3067,7.2643,7.2339,7.2288,7.2339,7.141,7.0958,7.0656,6.9707,6.8804,6.8095,6.8045,6.7292,6.6438,6.6614,6.6413,6.6036,6.5685,6.5584,6.5459,6.4949,6.4798,6.4748,6.4547,6.4496,6.4421,6.4053,6.3827,6.3576,6.3199,6.2973,6.2781,6.2781,6.2781,6.2781,6.2781,6.2521,6.2019,6.1291,6.0663,5.9228,5.643,5.7194,5.6533,5.3105,5.4952,5.5768,5.4578,5.4926,5.5214,5.539,5.4898,5.4421,5.4009,5.4009,5.4009,5.4009,5.4009,5.4346,5.4898,5.5099,5.5265,5.7456,6.1302,6.4769,7.0619,7.2966,7.4372,7.6456,7.6456,7.5325,7.2969,7.0564,6.8207,0.0,0.0,6.5818,7.0836,7.2768,7.505,7.8967,7.8139,7.6682,0.0,0.0,0.0,0.0,0.0,0.0,7.6682,0.0,7.8515,7.8566,7.9118,7.9168,7.8591,7.8515,7.8214,7.7712,7.7134,7.6632,7.6104,7.6104,7.6104,7.6104,7.6104,7.6104,7.6054,7.4925,7.4448,7.4322,7.317,7.2718,7.2693,7.2643,7.2364,7.1836,7.1284,7.0778,7.0225,6.9607,6.9055,6.8447,6.7367,6.699,6.6908,6.6287,6.6112,6.6112,6.6112,6.6112,6.5986,6.5459,6.5333,6.5208,6.4722,6.4597,6.4572,6.4547,6.4128,6.3751,6.3701,6.3224,6.2781,6.2781,6.2781,6.2781,6.2781,6.2781,6.238,6.1316,6.0688,5.9896,5.8792,5.8252,5.7926,5.7901,5.7901,5.7675,5.7085,5.6533,5.6018,5.5491,5.4974,5.4672,5.4647,5.4672,5.4672,5.4647,5.4697,5.4999,5.5491,5.6043,5.657,6.224,6.7204,7.1399,7.3772,7.5829,7.731,7.7461,7.5804,7.3421,7.0534,6.5608,6.1037,0.0,0.0,0.0,6.7127,7.1601,0.0,8.0547,8.0825,0.0,0.0,0.0,7.5703,7.4347,7.5176,0.0,0.0,7.7511,7.8264,7.9118,7.9695,7.9746,7.9193,7.8365,7.7837,7.7712,7.6782,7.6255,7.6104,7.6104,7.6104,7.6104,7.6104,7.6104,7.6079,7.5327,7.4751,7.4372,7.3669,7.3117,7.2643,7.2288,7.2037,7.1836,7.1284,7.0778,7.03,7.0104,6.9426,6.8497,6.7819,6.7317,6.6908,6.6287,6.6112,6.6112,6.6112,6.6112,6.6086,6.5936,6.5911,6.586,6.5735,6.5685,6.5584,6.5157,6.4982,6.4655,6.3852,6.3224,6.2781,6.2781,6.2781,6.2781,6.2781,6.2781,6.238,6.1316,6.1065,6.0387,5.8842,5.8604,5.8353,5.7926,5.7901,5.7826,5.77,5.7111,5.6734,5.6584,5.6093,5.5591,5.5189,5.5591,5.5591,5.5189,5.6018,5.647,5.6584,5.7198,5.7549,6.7567,7.1736,7.5,7.6331,7.7436,7.7511,7.5105,7.3122,7.0168,6.4513,6.0055,0.0,5.3195,0.0,0.0,0.0,0.0,0.0,8.0723,8.1252,8.0499,0.0,7.854,0.0,7.6356,7.7059,7.7712,0.0,7.8038,7.834,7.8967,7.9545,7.9595,7.9018,7.8164,7.7461,7.6984,7.6406,7.6104,7.6104,7.6104,7.6104,7.6104,7.6104,7.6104,7.6079,0.0,7.4876,7.4372,7.382,7.3242,7.2643,7.2389,7.1962,7.151,7.1209,7.0581,6.9878,6.9627,6.915,6.8522,6.797,6.7417,6.6908,6.6287,6.6112,6.6112,6.6112,6.6112,6.6112,6.6112,6.6112,6.6112,6.6112,6.6112,6.6036,6.571,6.5459,6.4982,6.3902,6.3425,6.3124,6.2832,6.2781,6.2781,6.2781,6.2781,6.2521,6.1642,6.1542,6.109,5.9935,5.9583,5.9307,5.8981,5.873,5.8504,5.8278,5.7914,5.7637,5.7387,5.7123,5.6796,5.6495,5.6796,5.6796,5.6495,5.7123,5.7387,5.7387,5.8001,5.8252,7.2646,7.5275,7.6883,7.8189,7.8063,7.6332,7.1612,6.933,6.5785,5.7202,0.0,5.2673,4.9297,5.2709,5.7776,6.3108,0.0,7.4674,8.0449,8.0775,8.0624,8.1177,8.0348,7.9444,7.8817,7.8817,7.9043,7.9469,7.9018,7.8741,7.8741,7.9218,7.9168,7.844,7.7888,7.7109,7.6104,7.6104,7.6104,7.6104,7.6104,7.6104,7.6104,7.6104,7.6104,7.6079,7.5402,0.0,7.4372,7.3745,7.3167,7.2693,7.2693,7.2087,7.1184,7.1108,7.043,6.9406,6.8804,6.8578,6.8522,6.7894,6.7367,6.6908,6.6287,6.6112,6.6112,6.6112,6.6112,6.6112,6.6112,6.6112,6.6112,6.6112,6.6112,6.6112,6.6112,6.5685,6.5007,6.4078,6.3852,6.3626,6.3124,6.2957,6.2907,6.2907,6.2832,6.2606,6.2169,6.2044,6.1793,6.124,6.0738,6.0412,6.0337,5.9885,5.9382,5.8855,5.8755,5.8504,5.8027,5.7951,5.7901,5.7901,5.7976,5.7976,5.7901,5.8052,5.8077,5.8027,5.8579,5.883,7.5452,7.7536,7.8766,7.8566,7.7762,7.5804,7.1038,6.593,0.0,0.0,5.0357,4.8469,4.6851,5.1235,5.7336,6.4159,6.9095,7.4473,0.0,0.0,8.1754,0.0,0.0,0.0,0.0,0.0,0.0,0.0,0.0,7.9921,7.9921,8.0022,7.9394,7.7888,7.731,7.6757,7.6104,7.6104,7.6104,7.6104,7.6104,7.6104,7.6104,7.6104,7.6104,7.6054,7.5,0.0,7.4347,7.3293,7.2768,7.2693,7.2693,7.2339,7.1711,7.1259,7.0681,6.9978,6.8974,6.8578,6.8447,6.7442,6.7109,6.6908,6.6287,6.6112,6.6112,6.6112,6.6112,6.6112,6.6112,6.6112,6.6112,6.6112,6.6112,6.6112,6.6112,6.5685,6.5233,6.5057,6.463,6.4346,6.4245,6.3827,6.355,6.355,6.3124,6.2756,6.2656,6.2295,6.1793,6.124,6.109,6.0839,6.0362,6.0236,5.9935,5.9408,5.8956,5.8641,5.8579,5.8152,5.7901,5.7901,5.8353,5.8353,5.7901,5.878,5.9006,5.8541,5.9106,5.9357,7.505,7.7436,7.967,7.9118,7.726,7.3676,6.6453,0.0,0.0,0.0,4.6472,4.5981,4.5688,5.0355,0.0,6.0507,6.54,7.1124,7.8239,0.0,0.0,0.0,0.0,0.0,0.0,0.0,0.0,0.0,0.0,8.0223,8.0223,7.9947,7.9143,7.7737,7.7436,7.7034,7.6531,7.6255,7.6255,7.6531,7.623,7.6104,7.6104,7.6104,7.6104,7.6054,7.5201,0.0,7.4347,7.3519,7.2991,7.2693,7.2693,7.2213,7.1435,7.1184,7.0556,6.9727,6.8899,6.8447,6.807,6.7241,6.7009,6.6908,6.6287,6.6112,6.6187,6.6488,6.6338,6.6237,6.684,6.6789,6.6564,6.6564,6.6338,6.6112,6.6112,6.5911,6.5634,6.5333,6.5082,6.4848,6.4547,6.4295,6.4145,6.4145,6.3626,6.3274,6.3274,6.2797,6.2345,6.2069,6.1793,6.1492,6.1215,6.0939,6.0512,5.996,5.9684,5.9433,5.9131,5.888,5.873,5.873,5.8981,5.9131,5.9156,5.9382,5.9508,5.9519,5.9809,5.9935,7.5251,7.7812,8.0398,7.9721,7.6707,7.1449,6.2274,5.7294,0.0,0.0,4.3359,4.411,4.492,4.9018,5.3381,0.0,6.135,6.7085,7.4674,7.6531,7.8616,0.0,0.0,0.0,0.0,0.0,0.0,0.0,0.0,0.0,8.0047,7.9495,7.8741,7.7737,7.7586,7.726,7.6757,7.633,7.633,7.6732,7.6305,7.6104,7.6104,7.6104,7.6104,7.6079,7.5352,0.0,0.0,7.3745,7.3217,7.2891,7.2743,7.2138,7.1259,7.1133,7.0455,6.9481,6.8804,6.8346,6.7869,6.7191,6.689,6.6714,6.6237,6.6112,6.6237,6.6815,6.6639,6.6513,6.7392,6.7292,6.6984,6.6815,6.6438,6.6112,6.6112,6.6112,6.5986,6.5559,6.5459,6.5333,6.4949,6.4773,6.4672,6.4672,6.4103,6.3701,6.3701,6.3174,6.2781,6.2781,6.2446,6.2144,6.2019,6.1617,6.1115,6.0537,6.0512,6.0311,5.9885,5.9859,5.9859,5.9859,5.9859,6.006,6.0512,6.006,6.0085,6.0512,6.0512,6.0512,7.9168,8.1001,8.1403,8.0398,7.6105,7.0022,6.2027,0.0,4.9076,4.26,4.1629,4.2427,4.3909,4.6315,5.0099,5.639,5.9326,6.4011,7.3268,7.6331,7.8892,8.2332,0.0,0.0,0.0,0.0,0.0,0.0,0.0,0.0,7.9495,7.8917,7.8314,7.7712,7.721,7.6732,7.6179,7.6129,7.6129,7.6179,7.6129,7.6104,7.6104,7.6104,7.6104,7.6054,7.495,0.0,0.0,7.3421,7.3092,7.3468,7.2894,7.2364,7.1761,7.1259,7.0752,7.0074,6.8974,6.8597,6.8371,6.7317,6.6614,6.6187,6.6137,6.6112,6.6237,6.6815,6.694,6.6915,6.7059,6.7059,6.684,6.6312,6.6137,6.6112,6.6112,6.6112,6.6086,6.6036,6.6036,6.6011,6.5961,6.5534,6.5208,6.5208,6.4354,6.3701,6.3701,6.3174,6.2781,6.2781,6.2731,6.2546,6.2044,6.1943,6.1692,6.114,6.1115,6.109,6.104,6.104,6.104,6.104,6.104,6.1065,6.1115,6.1065,6.1065,6.1115,6.1115,6.1115,7.4473,7.8591,8.2407,8.065,7.5276,6.8444,6.0936,0.0,4.7346,4.1803,4.1188,4.1991,4.31,4.4719,4.7346,5.1852,5.3441,5.6887,6.4856,6.7787,7.1339,7.7436,0.0,0.0,0.0,0.0,0.0,0.0,0.0,0.0,7.9394,7.9168,7.8641,7.7737,7.7486,7.7109,7.6607,7.628,7.628,7.6607,7.6255,7.6104,7.6104,7.6104,7.6104,7.6054,7.49,0.0,0.0,7.3245,7.2818,7.3042,7.2768,7.2188,7.1384,7.1158,7.0531,6.9702,6.923,6.8854,6.8547,6.812,6.7593,6.7066,6.6739,6.6639,6.6815,6.7719,6.7719,6.7618,6.8296,6.8221,6.7819,6.7267,6.689,6.6538,6.6187,6.6112,6.6112,6.6112,6.6112,6.6112,6.6112,6.5936,6.5785,6.5785,6.5132,6.453,6.4245,6.3676,6.3224,6.2832,6.2781,6.2706,6.2521,6.2496,6.227,6.1718,6.1667,6.1542,6.119,6.119,6.119,6.119,6.119,6.1341,6.1667,6.1341,6.1366,6.1667,6.1667,6.1667,7.146,7.6406,8.1127,8.0398,7.42,6.656,0.0,0.0,4.5306,4.0951,4.0559,4.1241,4.2045,4.3735,4.5795,4.8281,5.0,5.3161,5.9449,6.237,6.6415,0.0,0.0,0.0,0.0,0.0,0.0,0.0,0.0,0.0,7.9394,7.9394,7.8867,7.7737,7.7536,7.7185,7.6682,7.6305,7.6305,7.6682,7.628,7.6104,7.6104,7.6104,7.6104,7.6054,7.49,0.0,0.0,7.3268,7.2793,7.2966,7.2743,7.2163,7.1309,7.1133,7.048,6.9607,6.9456,6.9155,6.8804,6.8628,6.8346,6.797,6.7568,6.7342,6.7417,6.8346,6.8346,6.8221,6.8954,6.8753,6.8296,6.7894,6.7367,6.6865,6.6463,6.6237,6.6162,6.6338,6.6363,6.6413,6.6589,6.6488,6.6363,6.6363,6.576,6.5157,6.4798,6.4128,6.3525,6.3124,6.2882,6.2781,6.2781,6.2781,6.2631,6.227,6.2245,6.2069,6.1692,6.1667,6.1667,6.1667,6.1667,6.1868,6.2245,6.1868,6.1868,6.2245,6.2245,6.2245,7.242,7.5653,7.6833,7.952,7.2904,6.4349,0.0,0.0,4.2545,3.9782,3.944,3.9861,4.0675,4.3311,4.5736,4.6844,5.0588,5.494,5.9452,6.2936,6.656,0.0,0.0,0.0,0.0,0.0,0.0,0.0,0.0,0.0,7.9394,7.9394,7.8867,7.7737,7.7185,7.6682,7.6129,7.6104,7.6104,7.6104,7.6104,7.6104,7.6104,7.6104,7.6104,0.0,0.0,0.0,0.0,7.337,7.3067,7.3519,7.2941,7.2389,7.1836,7.1284,7.0778,7.0225,6.9582,6.9406,6.9306,6.8753,6.8578,6.8578,6.8597,6.8221,6.7894,6.8472,6.8622,6.8578,6.8622,6.8221,6.7819,6.7794,6.7367,6.7009,6.7009,6.6513,6.6287,6.6865,6.7009,6.7141,6.7693,6.7317,6.7009,6.7009,6.6011,6.5283,6.5283,6.4354,6.3701,6.3676,6.3174,6.2781,6.2781,6.2781,6.2781,6.2781,6.2781,6.2781,6.2781,6.2781,6.2781,6.2781,6.2781,6.2781,6.2781,6.2781,6.2781,6.2781,6.2781,6.2781,6.2538,6.6192,6.8785,6.816,6.3261,5.7415,5.2878,4.7441,4.2525,3.9746,3.9837,4.0479,4.0673,4.2652,4.4877,4.6871,4.9269,5.1783,5.4445,0.0,0.0,6.7859,7.408,7.8241,0.0,0.0,0.0,0.0,0.0,0.0,7.9394,7.9018,7.8465,7.7712,7.7536,7.6984,7.6104,7.6104,7.6104,7.6104,7.6104,7.6104,7.6104,7.6104,7.5854,0.0,0.0,0.0,0.0,7.3117,7.2793,7.2991,7.2743,7.2389,7.1887,7.1711,7.1309,7.0807,7.0631,7.033,6.9978,6.9803,6.9476,6.913,6.913,6.8753,6.8472,6.8979,6.8854,6.8653,6.9029,6.9004,6.8779,6.8447,6.8221,6.7995,6.7618,6.7392,6.7317,6.7493,6.7543,6.7467,6.7267,6.7417,6.7267,6.6488,6.6413,6.6162,6.5383,6.4655,6.4119,6.3726,6.3174,6.2781,6.2781,6.2781,6.2781,6.2781,6.2781,6.2781,6.2781,6.2781,6.2781,6.2781,6.2781,6.2781,6.2781,6.2781,6.2781,6.2781,6.2781,6.2781,5.5362,5.8935,6.1481,6.12,5.7238,0.0,0.0,4.5126,4.1397,3.9515,3.9938,4.0644,4.0588,4.2472,4.4569,4.6178,4.8496,5.0608,0.0,0.0,0.0,6.5968,0.0,0.0,0.0,0.0,0.0,0.0,0.0,0.0,7.9394,7.8842,7.8264,7.7712,7.7486,7.6959,7.6104,7.6104,7.6104,7.6104,7.6104,7.6104,7.6104,7.6104,7.5753,0.0,0.0,0.0,0.0,7.2966,7.2693,7.2693,7.2693,7.2514,7.2163,7.1761,7.151,7.1309,7.0681,7.038,7.0275,7.0003,6.9577,6.908,6.908,6.9004,6.8904,6.9055,6.8979,6.8929,6.9055,6.9255,6.9306,6.8979,6.8728,6.8522,6.8196,6.7945,6.7869,6.807,6.7945,6.7769,6.7618,6.7543,6.7241,6.6538,6.6564,6.6388,6.5685,6.5107,6.4655,6.4329,6.3601,6.3149,6.3149,6.2907,6.2781,6.2781,6.2781,6.2781,6.2781,6.2781,6.2781,6.2781,6.2781,6.2781,6.2781,6.2781,6.2781,6.2781,6.2781,6.2781,0.0,5.312,5.4488,5.7015,5.3583,4.9112,4.7441,4.312,0.0,3.9078,3.9702,4.0306,4.0427,4.2671,4.4625,4.5017,4.8179,0.0,0.0,5.54,0.0,0.0,0.0,0.0,0.0,0.0,0.0,0.0,0.0,0.0,7.9344,7.8817,7.8264,7.7662,7.7134,7.6657,7.6104,7.6104,7.6104,7.6104,7.6104,7.6079,7.6054,7.6054,7.5678,0.0,0.0,0.0,0.0,7.2941,7.2693,7.2693,7.2693,7.2693,7.2542,7.1535,7.146,7.1686,7.0058,6.9878,7.02,6.9531,6.9029,6.8628,6.8597,6.8854,6.913,6.8703,6.8904,6.918,6.8753,6.9004,6.9406,6.9406,6.9004,6.8673,6.8673,6.8271,6.8045,6.8522,6.8221,6.7995,6.8422,6.7693,6.7015,6.6959,6.6488,6.6162,6.6112,6.5634,6.5283,6.5283,6.4329,6.3701,6.3701,6.3174,6.2781,6.2781,6.2781,6.2781,6.2781,6.2781,6.2781,6.2781,6.2781,6.2781,6.2781,6.2781,6.2781,6.2781,6.2781,6.2781,4.0779,0.0,4.475,4.4585,4.3482,4.1939,0.0,0.0,0.0,0.0,0.0,3.9561,4.0787,4.2277,4.3865,0.0,0.0,0.0,5.1286,0.0,0.0,0.0,0.0,0.0,0.0,0.0,0.0,0.0,0.0,7.9319,7.8766,7.8591,7.8088,7.7109,7.6933,7.6657,7.6104,7.6104,7.6104,7.6104,7.6104,7.5829,7.5427,7.5427,7.49,0.0,0.0,0.0,7.2916,7.2791,7.2693,7.2693,7.2693,7.2693,7.2593,7.1962,7.1786,7.1786,7.0983,7.0506,7.0149,6.9125,6.8979,6.9055,6.8246,6.7794,6.7719,6.8422,6.8422,6.8346,6.9029,6.9306,6.9406,6.9406,6.9306,6.9205,6.9205,6.9105,6.8929,6.8673,6.8522,6.8196,6.7493,6.7493,6.7317,6.6438,6.6589,6.6614,6.6162,6.5634,6.5283,6.5283,6.4329,6.3701,6.3701,6.3174,6.2781,6.2781,6.2781,6.2781,6.2781,6.2781,6.2781,6.2781,6.2781,6.2781,6.2781,6.2781,6.2781,6.2781,6.2781,6.2781,3.6676,3.8455,4.0029,3.9612,3.9275,3.8848,3.8083,0.0,0.0,0.0,0.0,3.9682,4.0793,4.2185,0.0,0.0,4.8196,0.0,0.0,0.0,0.0,0.0,0.0,0.0,0.0,0.0,0.0,0.0,0.0,7.9143,7.8566,7.8038,7.7486,7.6883,7.6682,7.6406,7.6104,7.6104,7.6104,7.6104,7.6104,7.5753,7.5202,7.5202,7.46,0.0,0.0,0.0,7.2693,7.2693,7.2542,7.2389,7.2593,7.2517,7.2288,7.1736,7.1686,7.1761,7.0706,6.9978,6.9451,6.91,6.8653,6.8246,6.7894,6.7241,6.6764,6.7618,6.802,6.8246,6.8597,6.9029,6.9406,6.9406,6.9406,6.9331,6.908,6.9029,6.8854,6.8346,6.8246,6.797,6.7116,6.7216,6.7116,6.6237,6.6388,6.6463,6.6162,6.586,6.566,6.566,6.4931,6.4429,6.4429,6.3902,6.3375,6.2832,6.2781,6.2781,6.2781,6.2781,6.2781,6.2781,6.2781,6.2781,6.2781,6.2781,6.2781,6.2807,6.3057,6.3073,3.5504,3.6814,3.8098,3.8251,3.8102,3.8003,3.8302,3.8293,0.0,0.0,0.0,0.0,4.1055,4.2791,0.0,0.0,0.0,0.0,6.2042,6.7081,7.1297,0.0,0.0,0.0,8.0097,0.0,0.0,0.0,0.0,7.8967,7.8314,7.7385,7.6833,7.6808,7.6355,7.6079,7.5978,7.6054,7.6054,7.5978,7.5978,7.5603,7.4926,7.4926,7.4423,7.3468,0.0,0.0,7.2693,7.2693,7.2417,7.2087,7.2492,7.2439,7.1962,7.1309,7.1384,7.1535,6.9858,6.8979,6.8653,6.9029,6.8246,6.7166,6.7568,6.699,6.6338,6.6739,6.7593,6.8296,6.7995,6.8578,6.9306,6.9381,6.9331,6.9155,6.8678,6.8547,6.8346,6.7769,6.7668,6.7493,6.694,6.684,6.6664,6.6187,6.6112,6.6112,6.6112,6.6112,6.6112,6.6112,6.5609,6.5283,6.5283,6.4823,6.4078,6.3149,6.2957,6.2882,6.2781,6.2781,6.2781,6.2781,6.2781,6.2781,6.2781,6.2882,6.2882,6.2807,6.35,6.35,3.5386,3.6268,3.6811,3.6237,3.703,3.7705,3.6664,3.6924,3.7547,0.0,0.0,0.0,0.0,4.5234,4.7938,0.0,0.0,0.0,0.0,0.0,0.0,0.0,0.0,8.0549,7.9595,7.9595,0.0,0.0,0.0,7.8214,7.7185,7.6959,7.6707,7.6255,7.6154,7.5829,7.5328,7.5829,7.5829,7.5328,7.5328,7.4824,7.3845,7.3845,7.3494,7.2866,0.0,7.2768,7.2693,7.2693,7.2643,7.2568,7.2643,7.2643,7.2489,7.146,7.1133,7.0983,6.9325,6.8653,6.8547,6.817,6.7869,6.7593,6.7216,6.699,6.6764,6.6363,6.6714,6.7417,6.8271,6.8578,6.8829,6.928,6.9055,6.8678,6.8648,6.8246,6.7769,6.7216,6.7091,6.6915,6.6338,6.6237,6.6212,6.6137,6.6112,6.6112,6.6112,6.6112,6.6112,6.6112,6.5609,6.5283,6.5283,6.4823,6.4446,6.427,6.3802,6.335,6.2807,6.2781,6.2781,6.2781,6.2781,6.2781,6.2781,6.3324,6.3299,6.2807,6.3877,6.4053,3.5077,3.5729,3.6655,3.7985,3.8444,3.8494,3.8035,3.8374,3.8978,0.0,0.0,0.0,0.0,0.0,5.1833,0.0,0.0,0.0,0.0,0.0,0.0,0.0,0.0,8.0398,7.9871,7.9821,7.9469,7.8591,0.0,0.0,7.6908,7.6657,7.6355,7.6104,7.6104,7.5978,7.5678,7.5628,7.5327,7.4751,7.5052,7.4674,7.3594,7.3594,7.3268,7.2693,0.0,7.2693,7.2668,7.2414,7.2288,7.2288,7.2288,7.2288,7.2188,7.1384,7.0706,7.0104,6.928,6.8829,6.8572,6.8321,6.7844,6.7317,6.7041,6.6764,6.6463,6.6187,6.6538,6.7166,6.797,6.8396,6.8728,6.9255,6.8979,6.8578,6.8578,6.8196,6.7719,6.7467,6.7417,6.7342,6.7066,6.6789,6.6589,6.6589,6.6312,6.6112,6.6112,6.6112,6.6112,6.6112,6.5886,6.5735,6.5735,6.5509,6.5107,6.4547,6.4295,6.4002,6.3726,6.3726,6.3576,6.3299,6.3576,6.3576,6.3299,6.3852,6.3977,6.3726,6.453,6.463,3.4992,3.567,3.6989,3.966,3.9742,3.9578,4.1296,4.164,4.2029,0.0,0.0,0.0,0.0,5.2178,0.0,6.4119,0.0,0.0,0.0,0.0,0.0,0.0,0.0,8.0223,8.0223,7.9972,7.9394,7.8415,7.7812,7.726,7.6757,7.633,7.6104,7.6104,7.5978,7.5853,7.5727,7.5251,7.4776,7.4423,7.4724,7.4347,7.3393,7.3393,7.3067,7.2539,7.3078,7.2956,7.236,7.2442,7.2197,7.1736,7.1861,7.1836,7.1775,7.2292,7.1158,6.9471,6.9878,6.9371,6.8578,6.8578,6.7869,6.699,6.7141,6.6689,6.6112,6.6112,6.6538,6.7091,6.7668,6.802,6.8396,6.9055,6.8723,6.8246,6.8246,6.7894,6.7618,6.7618,6.7719,6.7794,6.7794,6.7442,6.7116,6.7034,6.6589,6.6262,6.6137,6.6112,6.6112,6.6112,6.6237,6.6312,6.6312,6.6187,6.576,6.4949,6.4773,6.4647,6.4521,6.4496,6.432,6.3877,6.4295,6.432,6.3877,6.4446,6.4622,6.4521,6.5157,6.5183,3.5474,3.6492,3.7796,3.9078,3.933,4.0769,4.6481,4.6973,0.0,4.9994,0.0,0.0,0.0,5.9697,6.5049,6.7191,7.2059,7.6154,0.0,0.0,0.0,0.0,0.0,8.0223,8.0223,7.9269,7.839,7.7812,7.726,7.6732,7.6205,7.6129,7.6104,7.6104,7.5578,7.5002,7.4548,7.4498,7.4448,7.4397,7.3946,7.3393,7.2743,7.2743,7.2489,7.2102,7.419,7.3632,7.1368,7.3379,7.3018,7.1184,7.1711,7.1585,7.1585,7.5175,7.3486,6.9621,7.1183,7.0375,6.8578,6.8578,6.7869,6.7066,6.7593,6.699,6.6112,6.6112,6.6538,6.7091,6.7668,6.7442,6.7367,6.8422,6.7869,6.7134,6.7134,6.7066,6.7084,6.7084,6.7442,6.7794,6.7794,6.7769,6.7568,6.7041,6.694,6.6714,6.6187,6.6112,6.6112,6.6112,6.6589,6.6959,6.6959,6.6413,6.6086,6.5986,6.5509,6.5007,6.4521,6.4496,6.4496,6.4446,6.4496,6.4496,6.4446,6.4957,6.4982,6.4521,6.5559,6.576,3.577,3.7735,4.0263,4.2588,4.3147,4.4604,0.0,5.2355,5.4059,5.6568,5.8333,0.0,0.0,0.0,6.8246,7.0958,7.4875,7.8063,7.9394,8.0248,8.0599,8.0248,7.9896,7.9545,7.9193,7.8465,7.7787,7.7235,7.6984,7.6682,7.6129,7.6104,7.5953,7.5552,7.5303,7.4751,7.392,7.3895,7.372,7.332,7.3519,7.3293,7.2762,7.4207,7.4565,7.4138,7.6414,7.6593,7.5311,7.578,7.5661,7.5277,7.549,7.5223,7.4898,7.6373,7.4616,7.1633,7.2218,7.0764,6.8572,6.8221,6.7593,6.694,6.6789,6.6438,6.6112,6.6112,6.6262,6.6639,6.7568,6.7643,6.7668,6.8447,6.7769,6.7166,6.7844,6.7744,6.7693,6.8371,6.8396,6.8422,6.8728,6.8246,6.7719,6.7518,6.7191,6.6764,6.6187,6.6112,6.6237,6.6614,6.7141,6.7342,6.7015,6.6764,6.6488,6.6137,6.5911,6.571,6.5484,6.5484,6.5333,6.4982,6.5308,6.5333,6.5024,6.5534,6.5685,6.5509,6.5911,6.5986,3.6345,3.8366,4.1118,4.4443,4.6501,4.9525,5.6437,5.7212,5.7824,6.2552,6.5285,0.0,0.0,0.0,0.0,0.0,7.6743,8.032,8.1289,8.2213,8.2594,8.2075,8.0878,7.9861,7.9453,7.8241,7.7285,7.6958,7.6757,7.6506,7.6129,7.6104,7.5804,7.5202,7.5027,7.4523,7.3594,7.3418,7.3117,7.274,7.3672,7.357,7.2511,7.4866,7.5465,7.4932,7.7909,7.847,7.7297,7.7566,7.7636,7.7601,7.8123,7.7733,7.7064,7.828,7.6664,7.385,7.385,7.1983,6.9446,6.8392,6.7568,6.689,6.6513,6.6262,6.6112,6.6112,6.6237,6.6564,6.7342,6.7417,6.7417,6.797,6.7518,6.7191,6.7945,6.807,6.8296,6.9004,6.8979,6.8954,6.9331,6.8779,6.8271,6.8095,6.7593,6.7015,6.6463,6.6237,6.6413,6.7166,6.7568,6.7719,6.7518,6.7166,6.6815,6.6413,6.6388,6.6312,6.6112,6.6112,6.5936,6.5559,6.5911,6.5936,6.5559,6.5936,6.6112,6.6112,6.6112,6.6112,3.7325,3.8262,3.9877,4.3787,4.8763,5.5465,6.6188,6.1422,5.7624,6.781,7.2044,7.2694,6.8866,0.0,0.0,0.0,7.7621,8.3393,8.3974,8.5634,8.6589,8.6076,8.3301,8.1418,8.1369,7.8701,7.6933,7.6858,7.6406,7.6104,7.6104,7.6104,7.5804,7.5202,7.465,7.4146,7.3617,7.3016,7.2715,7.2737,7.4488,7.4138,7.198,7.432,7.4763,7.3891,7.8369,7.8727,7.6345,7.8563,7.8459,7.7135,7.8791,7.8419,7.7427,8.1361,7.9973,7.6138,7.6097,7.4224,7.1544,6.9302,6.7869,6.7009,6.7009,6.6564,6.6112,6.6112,6.6538,6.7009,6.7009,6.6538,6.6262,6.684,6.7009,6.7009,6.7034,6.7844,6.8578,6.8622,6.9029,6.9406,6.9406,6.9406,6.9205,6.8653,6.8145,6.7593,6.7041,6.6463,6.6538,6.7693,6.7794,6.802,6.8528,6.7618,6.699,6.7034,6.7034,6.6714,6.6137,6.6112,6.6112,6.6112,6.6112,6.6112,6.6112,6.6112,6.6112,6.6112,6.6112,6.6112,3.7522,4.0206,0.0,4.809,5.309,5.9142,0.0,6.7326,0.0,0.0,7.4832,7.6027,7.2369,0.0,0.0,0.0,0.0,8.5567,8.4791,8.5922,8.6423,8.5403,8.4164,8.2684,8.0929,7.9612,7.8191,7.6429,7.6205,7.6104,7.6104,7.5703,7.5226,7.4625,7.4121,7.3947,7.417,7.4404,7.4924,7.5685,7.6581,7.6083,7.443,7.7875,7.9044,7.8451,8.1435,8.1977,8.0863,8.1503,8.1505,8.1117,8.1592,8.121,8.0551,8.2201,8.0648,7.7491,7.6035,7.3941,7.1413,6.8431,6.7241,6.689,6.6488,6.6237,6.6112,6.6112,6.6237,6.6363,6.6363,6.6538,6.6764,6.6984,6.7009,6.7091,6.7467,6.812,6.8703,6.908,6.928,6.9406,6.9406,6.9406,6.9205,6.8653,6.8145,6.7442,6.6488,6.6564,6.699,6.7719,6.8145,6.8447,6.8597,6.8321,6.797,6.7568,6.7543,6.7116,6.6162,6.6513,6.6538,6.6112,6.6112,6.6112,6.6112,6.6112,6.6112,6.6112,6.6112,6.6112,3.9066,4.249,0.0,5.2608,5.8674,6.5046,7.1985,0.0,0.0,0.0,7.9908,8.1236,7.8246,8.0152,0.0,8.131,8.4953,8.7483,8.6651,8.7764,8.8455,8.7714,8.6226,8.4342,8.1849,8.0239,7.8363,7.5925,7.5527,7.5402,7.5402,7.5101,7.5059,7.5429,7.4891,7.5074,7.6098,7.6232,7.6635,7.7241,7.8011,7.7858,7.6987,7.9353,8.0271,8.0046,8.2355,8.2978,8.2417,8.2417,8.2268,8.2028,8.2028,8.1751,8.1452,8.1878,8.0879,7.8949,7.5948,7.3869,7.1911,6.82,6.6815,6.6564,6.6212,6.6112,6.6112,6.6112,6.6112,6.6112,6.6112,6.6538,6.7009,6.7009,6.7317,6.7719,6.8045,6.8547,6.9004,6.9331,6.9406,6.9406,6.9406,6.9406,6.928,6.8954,6.8296,6.7392,6.6262,6.6614,6.7191,6.7744,6.8296,6.8678,6.8879,6.8703,6.8472,6.8145,6.812,6.7618,6.6488,6.699,6.694,6.6137,6.6338,6.6338,6.6112,6.6112,6.6112,6.6112,6.6112,6.6112,4.1749,4.5231,4.9805,5.751,6.5442,0.0,7.9255,8.264,8.417,8.3333,0.0,8.732,8.4943,8.4617,8.419,8.2754,8.637,8.9231,8.8998,9.0477,9.1596,9.1536,8.8977,8.625,8.3766,8.0855,7.8095,7.5613,7.4964,7.4735,7.4735,7.4852,7.5687,7.7288,7.6661,7.7118,7.8809,7.8283,7.8063,7.8206,7.9099,7.9513,7.9415,7.9415,7.9455,7.9613,8.1701,8.2268,8.1691,8.1691,8.1332,8.0794,8.0794,8.0764,8.0734,8.0764,8.0764,8.0088,7.5701,7.3927,7.2829,6.8391,6.6589,6.6187,6.6137,6.6112,6.6112,6.6112,6.6112,6.6112,6.6112,6.6589,6.7041,6.7041,6.7844,6.8578,6.8578,6.9004,6.9406,6.9406,6.9406,6.9406,6.9406,6.9406,6.9381,6.9331,6.8472,6.7442,6.6388,6.6689,6.7216,6.7819,6.8271,6.8753,6.9356,6.8929,6.8653,6.8653,6.8653,6.8221,6.7166,6.7618,6.7342,6.6212,6.6714,6.6714,6.6187,6.6187,6.6187,6.6187,6.6237,6.6237,4.538,4.8927,5.3749,6.4165,7.4607,8.3231,8.6788,8.8371,8.7212,8.0393,8.5287,8.9471,8.5317,8.7511,8.9672,8.8826,9.0464,9.1473,9.0362,9.1021,9.1375,9.0866,8.9805,8.8161,8.5664,8.2687,7.9929,7.7493,7.7201,7.7149,7.7149,7.8498,7.9198,7.9043,7.8458,7.8713,7.993,7.9829,8.0161,8.0957,8.118,8.0985,8.048,8.048,8.048,8.0518,8.1026,8.1153,8.1003,8.1003,8.0913,8.0794,8.0794,8.0494,8.0105,8.0614,8.0464,7.9434,7.516,7.3872,7.3253,6.7989,6.6513,6.6714,6.6237,6.6112,6.6112,6.6112,6.6112,6.6112,6.6112,6.6865,6.7618,6.7618,6.8145,6.8578,6.8578,6.9004,6.9406,6.9406,6.9406,6.9406,6.9406,6.9406,6.9255,6.8829,6.8221,6.7719,6.7467,6.7166,6.7367,6.8346,6.817,6.8371,6.9306,6.928,6.923,6.923,6.923,6.8929,6.8296,6.8396,6.7919,6.6815,6.6915,6.6959,6.6789,6.6789,6.6789,6.6815,6.7241,6.7216,4.761,5.2463,5.9125,7.2663,8.1628,8.7646,8.9681,9.0399,8.9315,8.4782,8.7717,9.0394,8.7937,8.9762,9.1345,9.0717,9.1476,9.1656,9.0339,9.0459,9.0429,8.9771,8.9412,8.825,8.5764,8.3563,8.1311,7.8885,7.8193,7.7869,7.7869,7.8737,7.9606,8.0336,7.9759,8.024,8.1899,8.1322,8.1276,8.1818,8.1153,8.0494,7.9866,8.0494,8.0614,8.0345,8.0674,8.0614,8.0345,8.0345,8.0135,7.9836,7.9836,7.9627,7.9357,7.9716,7.9627,7.8721,7.4472,7.3209,7.2611,6.7706,6.6312,6.6513,6.6212,6.6112,6.6112,6.6112,6.6112,6.6112,6.6112,6.694,6.7794,6.7794,6.8422,6.8979,6.8979,6.9205,6.9406,6.9406,6.9406,6.9406,6.9406,6.9406,6.913,6.8346,6.8221,6.7995,6.7467,6.7392,6.7693,6.8522,6.8371,6.8648,6.9752,7.086,7.1039,6.9918,7.0905,7.0611,6.8692,6.8829,6.8497,6.7392,6.7618,6.7493,6.7009,6.7241,6.7241,6.699,6.7543,6.7493,4.9108,5.6506,6.5765,8.0102,8.624,8.9023,9.0298,9.0597,9.0597,9.0597,9.0597,9.0597,9.0597,9.1046,9.1225,9.0687,9.0997,9.0908,8.9872,8.9512,8.9213,8.8723,8.8364,8.7395,8.5474,8.3815,8.2037,8.0043,7.8843,7.826,7.8371,7.8556,7.9526,8.1389,8.1006,8.1517,8.3179,8.226,8.1661,8.1422,8.0225,7.9357,7.8819,7.9956,8.0165,7.9686,8.0225,8.0135,7.9627,7.9627,7.9297,7.8789,7.8789,7.8789,7.8789,7.8789,7.8789,7.8252,7.4379,7.2822,7.187,6.7938,6.6387,6.6112,6.6112,6.6112,6.6112,6.6112,6.6112,6.6137,6.6237,6.6965,6.7719,6.7894,6.8648,6.928,6.9381,6.9406,6.9406,6.9406,6.9406,6.9406,6.9406,6.9306,6.8979,6.8196,6.8396,6.8321,6.7518,6.7719,6.8145,6.8653,6.8673,6.9229,7.0765,7.2693,7.3162,7.1711,7.3089,7.2627,6.9739,6.9657,6.925,6.8246,6.8497,6.817,6.7267,6.7719,6.7719,6.7267,6.7719,6.7693,5.0325,6.2141,7.4352,8.1848,8.624,8.9023,9.0298,0.0,9.0597,0.0,9.0597,9.0597,9.0597,9.0657,9.0687,9.0597,9.0249,8.9902,8.9722,8.8693,8.8155,8.8634,8.7137,8.6181,8.6439,8.347,8.1328,8.1001,8.033,8.0159,8.0714,8.1624,8.2261,8.2597,8.2508,8.2055,8.1212,8.1572,8.1212,8.0075,7.9297,7.8878,7.8789,7.8968,7.8998,7.8938,7.9028,7.8998,7.8938,7.8938,7.8878,7.8789,7.8789,7.8789,7.8789,7.8789,7.8789,7.8433,7.6005,7.4003,7.2109,6.9644,6.7627,6.6112,6.6112,6.6112,6.6112,6.6112,6.6112,6.6237,6.6739,6.6965,6.7317,6.8296,6.8578,6.8804,6.9306,6.9406,6.9406,6.9406,6.9406,6.9406,6.9406,6.9004,6.8804,6.913,6.8829,6.8703,6.9029,6.8728,6.8678,6.923,6.8854,6.9873,7.3075,7.3594,7.4741,7.6886,7.5423,7.4271,7.3829,7.1945,7.0581,6.9999,6.9074,6.8547,6.8396,6.8472,6.8472,6.8396,6.8472,6.8472,5.3824,6.4336,7.4214,8.0524,8.4295,8.7107,8.9531,8.9801,8.9651,9.001,9.01,9.0219,9.0537,9.0339,9.01,9.01,8.9531,8.8884,8.8135,8.7496,8.6958,8.6509,8.5671,8.5103,8.5043,8.3233,8.1948,8.1556,8.0938,8.0703,8.0968,8.1441,8.1661,8.1661,8.1661,8.1392,8.0794,8.0734,8.0195,7.9238,7.8938,7.8579,7.825,7.8609,7.8789,7.8789,7.8789,7.8789,7.8789,7.8789,7.8789,7.8789,7.8789,7.8789,7.8789,7.8789,7.8789,7.847,7.6334,7.4992,7.3887,7.1763,6.9671,6.7896,6.7896,6.7061,6.6112,6.6112,6.6112,6.6162,6.6438,6.6965,6.7568,6.8045,6.8622,6.9105,6.9356,6.9406,6.9406,6.9406,6.9406,6.9406,6.9406,6.9205,6.9004,6.8954,7.0063,7.0919,7.0797,7.1973,7.303,7.3658,7.3163,7.3833,7.6461,7.7514,7.8205,7.8517,7.76,7.629,7.4677,7.2357,7.0958,7.0732,6.9953,6.9225,6.8578,6.8879,6.8879,6.8622,6.8904,6.8879,5.5663,6.3324,7.0269,7.7298,8.1153,8.4205,8.8075,8.8704,8.8634,8.9333,8.9452,8.9561,9.004,8.989,8.9662,8.9482,8.8764,8.7826,8.6848,8.624,8.5551,8.4564,8.4175,8.3786,8.3277,8.2649,8.2088,8.1572,8.0913,8.0614,8.0794,8.0494,8.0375,8.0554,8.0554,8.0464,8.0285,7.9806,7.9297,7.8789,7.8609,7.828,7.7831,7.813,7.828,7.831,7.8639,7.8789,7.8789,7.8789,7.8789,7.8789,7.8789,7.8789,7.8789,7.8789,7.8789,7.8578,7.6959,7.6043,7.5335,7.3771,7.1843,7.0136,7.0136,6.8996,6.7585,6.7061,6.6916,6.6814,6.6416,6.6965,6.7668,6.7945,6.9042,6.9942,6.9491,6.9406,6.9406,6.9406,6.9406,6.9561,7.0139,6.9786,6.9635,7.0369,7.1809,7.2815,7.2936,7.4821,7.6262,7.6816,7.6415,7.701,7.9338,8.0671,8.1251,8.0912,8.0307,7.8745,7.603,7.3652,7.2032,7.1309,7.0803,7.0049,6.9024,6.9255,6.918,6.8804,6.9055,6.8979,5.3726,5.8092,6.3355,7.208,7.6694,8.0464,8.568,8.7317,8.7945,8.8604,8.8723,8.8753,8.8783,8.9303,8.9512,8.8884,8.7686,8.6788,8.6728,8.5073,8.3807,8.3748,8.2679,8.1931,8.1871,8.1302,8.0883,8.0853,8.0225,8.0135,8.0764,7.9597,7.9208,7.9836,7.9829,7.9567,7.8908,7.8849,7.8819,7.8789,7.816,7.7831,7.7801,7.7167,7.6898,7.6958,7.825,7.8789,7.8789,7.8789,7.8789,7.8789,7.8789,7.8789,7.8789,7.8789,7.8789,7.8789,7.868,7.7321,7.5562,7.5448,7.4003,7.2348,7.2348,7.2268,7.1751,6.9686,6.9135,6.8795,6.7345,6.7009,6.7292,6.8346,7.0218,7.1322,6.975,6.9406,6.9406,6.9406,6.9406,7.012,7.2245,7.0827,7.0846,7.5067,7.4036,7.355,7.5653,7.5986,7.6097,7.6152,7.6124,7.7507,8.1,8.1371,8.2813,8.6112,8.4235,8.1887,7.9518,7.7163,7.465,7.1908,7.1309,7.0803,7.0225,6.9677,6.9381,6.9356,6.8854,6.8648,5.1921,5.5837,6.0352,6.6312,7.1068,7.5237,7.882,8.1687,8.38,8.4461,8.5768,8.6629,8.621,8.7018,8.7716,8.7477,8.627,8.5132,8.4303,8.3585,8.2798,8.1961,8.1452,8.0973,8.0554,7.9896,7.9327,7.8908,7.8244,7.7975,7.825,7.7801,7.7831,7.8519,7.8519,7.84,7.816,7.816,7.7951,7.7532,7.7257,7.6963,7.6604,7.6719,7.6569,7.6275,7.7143,7.7532,7.7562,7.7981,7.816,7.819,7.8639,7.8789,7.8789,7.8789,7.8789,7.8789,7.8789,7.8325,7.7645,7.7645,7.6222,7.4494,7.4494,7.3566,7.2348,7.1563,7.1323,7.1325,7.1213,7.1436,7.1983,7.3133,7.4037,7.4401,7.3796,7.2567,7.1983,7.3405,7.3678,7.3935,7.4784,7.4233,7.4233,7.5847,7.6634,7.7291,7.8131,7.9509,8.0686,8.1502,8.124,8.2024,8.4582,8.4426,8.4892,8.6559,8.4497,8.2841,8.1972,7.8267,7.5727,7.4702,7.2318,7.0853,7.03,6.9702,6.9406,6.9406,6.9205,6.9105,4.9988,5.3182,5.696,6.185,6.5795,6.9577,7.3787,7.7085,7.9587,8.07,8.2785,8.4325,8.4085,8.4594,8.5231,8.5611,8.4594,8.3427,8.2597,8.2268,8.1691,8.0614,8.0255,7.9866,7.9208,7.8519,7.7951,7.7502,7.7048,0.0,7.6779,7.6988,7.7352,7.7801,7.7801,7.7711,7.7472,7.7472,7.7227,7.6779,7.6569,7.6305,7.5916,7.6096,7.5946,7.5587,7.6006,7.639,7.6838,7.7293,7.7472,7.7532,7.7951,7.813,7.813,7.813,7.813,7.816,7.84,7.846,7.8489,7.8729,7.7828,7.667,7.667,7.5704,7.4456,7.3732,7.3566,7.355,7.3531,7.4078,7.5058,7.6822,7.6634,7.6511,7.801,7.6014,7.4361,7.5806,7.6097,7.6345,7.7086,7.6593,7.6593,7.8131,7.8963,7.9754,8.0726,8.2166,8.3517,8.4594,8.4286,8.4684,8.621,8.594,8.5881,8.6329,8.51,8.3901,8.2927,7.9316,7.736,7.736,7.419,7.263,7.2864,7.132,7.0516,7.056,7.1332,7.1141,0.0,0.0,0.0,5.8776,6.0959,6.3575,7.0819,7.3768,7.5617,7.772,7.9965,8.1848,8.2567,8.2178,8.214,8.3359,8.2559,8.1751,8.1721,8.1183,8.0524,7.9829,7.9178,7.8519,7.7861,7.7167,7.6779,7.6779,7.6749,7.6719,7.6719,7.7382,7.7741,7.7741,7.7771,7.7472,7.6779,7.6779,7.6749,7.6719,7.6155,7.5886,7.5856,7.5198,7.4903,7.4903,7.4903,7.5587,7.6749,7.6749,7.6779,7.6779,7.6779,7.6779,7.6779,7.6779,7.6779,7.6898,7.7592,7.7801,7.7921,7.8579,7.8789,7.8789,7.8789,7.8789,7.8361,7.6297,7.5704,7.5364,7.4046,7.4557,7.614,7.8831,7.782,7.7454,8.184,7.939,7.6304,7.6304,7.6304,7.6991,7.9151,7.7754,7.7795,8.2198,8.0961,8.0578,8.3398,8.3718,8.3987,8.4684,8.4743,8.5013,8.5671,8.5731,8.5731,8.5731,8.6329,8.5384,8.2474,8.0672,7.9774,7.9774,7.6992,7.634,7.8005,7.4595,7.294,7.2931,7.501,7.4543,4.7902,0.0,0.0,0.0,0.0,0.0,6.2988,6.6281,6.961,7.3249,7.5665,7.781,8.0202,8.0494,8.0494,8.0816,8.1003,8.0913,8.0434,8.0195,7.9836,7.9148,7.8489,7.8011,7.7831,7.6814,7.6155,0.0,7.5707,7.5407,7.5407,7.6066,7.6425,7.6425,7.6874,7.6784,7.6185,7.6155,7.5916,7.5407,7.5258,7.5168,7.5172,7.4993,7.4903,7.4903,7.4903,7.5113,7.5437,7.5946,7.6155,7.6215,7.6629,7.6779,7.6779,7.6779,7.6779,7.6898,7.7592,7.7801,7.7921,7.8579,7.8789,7.8789,7.8789,7.8789,7.868,7.8077,7.7901,7.7969,7.8033,7.8645,7.9589,8.0867,8.068,8.0683,8.243,8.184,8.097,8.097,8.097,8.1273,8.2317,8.1987,8.2173,8.3931,8.3613,8.3516,8.4337,8.4406,8.4684,8.5342,8.5432,8.5701,8.6399,8.6389,8.6389,8.6389,8.6608,8.6331,8.5494,8.3378,8.2225,8.2225,7.9409,7.8935,8.0987,7.8063,7.6136,7.5136,7.4191,7.3325,0.0,0.0,0.0,0.0,0.0,0.0,5.8804,6.1848,6.5097,6.8668,7.1485,7.4021,7.6283,7.7069,7.7465,7.7894,7.8284,7.8669,7.8908,7.8968,7.8729,7.8041,7.7412,7.7023,7.7023,7.6066,7.5467,7.5467,7.5108,7.5023,7.5288,7.5677,7.5916,7.5916,7.6245,7.6125,7.5497,7.5467,7.5288,7.4903,7.4903,7.4903,7.4903,7.4903,7.4903,7.4903,7.4903,7.4903,7.4933,7.5318,7.5467,7.5527,7.5886,7.6006,7.6006,7.6006,7.6185,7.6544,7.7173,7.7592,7.7921,7.8579,7.8789,7.8789,7.8789,7.8789,7.8789,7.8789,7.8998,7.9327,7.9716,8.0315,8.0883,8.1272,8.1362,8.1542,8.2238,8.2387,8.2477,8.2747,8.3016,8.3277,8.3628,8.3927,8.4226,8.4654,8.4714,8.4803,8.5073,8.5132,8.5372,8.603,8.609,8.627,8.6668,8.6459,8.627,8.627,8.627,8.627,8.627,8.4311,8.3659,8.462,8.2051,8.1809,8.4064,8.0995,7.9551,7.9575,7.523,7.3691,0.0,0.0,0.0,0.0,0.0,0.0,5.695,5.9302,6.1531,6.4343,6.7465,7.0068,7.1599,7.2599,7.3544,7.4426,7.4841,7.5665,7.7448,7.7711,7.7472,7.6868,7.6275,7.5916,7.5916,7.5288,7.4903,7.4903,7.4903,7.5172,7.5766,7.5796,7.5796,7.5796,7.5796,7.5497,7.4933,7.4903,7.4903,7.4903,7.4903,7.4903,7.4903,7.4903,7.4903,7.4903,7.4903,7.4903,7.4903,7.4903,7.4903,7.4903,7.4903,7.4903,7.4903,7.4903,7.5318,7.5976,7.6509,7.7167,7.7921,7.8489,7.8729,7.8789,7.8789,7.8789,7.8789,7.8789,7.9238,7.9716,7.9716,8.0135,8.0614,8.0674,8.0704,8.0883,8.1631,8.1818,8.2028,8.2687,8.3217,8.3628,8.3777,8.4325,8.4773,8.4923,8.4923,8.5132,8.5731,8.5791,8.603,8.6668,8.6728,8.6728,8.6728,8.615,8.5791,8.5791,8.5791,8.5791,8.5791,8.4368,8.4579,8.6659,8.4661,8.462,8.6698,8.3372,8.2826,8.4648,7.7549,7.5289,0.0,0.0,0.0,0.0,0.0,0.0,5.4869,5.611,5.7839,6.2417,6.3468,6.4589,6.7868,6.8728,6.9061,6.9242,7.1349,7.3854,7.6604,7.6988,7.6928,7.6808,7.6275,7.5916,7.5916,7.5288,7.4903,7.4903,7.4903,7.4963,7.5113,7.5113,7.5113,7.5113,7.5113,7.5053,7.4903,7.4903,7.4903,7.4903,7.4903,7.4903,7.4903,7.4903,7.4903,7.4903,7.4903,7.4903,7.4903,7.4903,7.4903,7.4903,7.4903,7.4903,7.4903,7.4903,7.5318,7.5916,7.6036,7.6844,7.7831,7.7951,7.837,7.8789,7.8789,7.8789,7.8789,7.8789,7.8878,7.8998,7.8998,7.9088,7.9327,7.9866,8.0016,8.0345,8.1512,8.1818,8.2028,8.2687,8.2896,8.3277,8.4354,8.4624,8.5073,8.615,8.6299,8.6329,8.6519,8.6519,8.6578,8.6698,8.6728,8.6728,8.6728,8.6608,8.6519,8.6519,8.6519,8.6519,8.6519,8.6211,8.6231,8.6689,8.6231,8.6231,8.6728,8.492,8.4563,8.5344,7.9714,7.7096,0.0,0.0,0.0,4.8127,0.0,0.0,0.0,5.3737,5.5169,5.8874,5.988,6.0821,6.3268,6.4417,6.5125,6.5466,6.6984,6.8972,7.1392,7.4399,7.6245,7.5886,7.5587,7.5377,7.5377,7.5113,7.4903,7.4903,7.4903,7.4903,7.4903,7.4903,7.4903,7.4903,7.4903,7.4903,7.4903,7.4903,7.4903,7.4903,7.4903,7.4903,7.4903,7.4903,7.4903,7.4903,7.4903,7.4903,7.4903,7.4903,7.4903,7.4903,7.4903,7.4903,7.4903,7.4903,7.5318,7.5916,7.5916,7.6724,7.7801,7.7801,7.825,7.8789,7.8789,7.8789,7.8789,7.8789,7.8789,7.8789,7.8789,7.8789,7.8878,7.9238,7.9297,7.9656,8.1003,8.1302,8.1572,8.2597,8.3046,8.3576,8.4534,8.4983,8.5551,8.6578,8.6728,8.6728,8.6728,8.6728,8.6728,8.6728,8.6728,8.6728,8.6728,8.6359,8.6329,8.6698,8.606,8.6,8.6698,8.6399,8.6329,8.6698,8.6728,8.6728,8.6728,8.603,8.5701,8.5593,8.1549,7.8722,0.0,0.0,0.0,0.0,0.0,4.9499,0.0,0.0,0.0,5.5187,5.6398,5.7405,5.8436,5.9678,6.0662,6.1198,6.2326,6.3626,6.4989,7.0185,7.3804,7.3711,7.4021,7.4259,7.4226,7.4069,7.4125,7.448,7.4184,7.4184,7.4693,7.4569,7.4599,7.4903,7.4663,7.4604,7.4723,7.4723,7.4723,7.4723,7.4843,7.4903,7.4903,7.4903,7.4903,7.4903,7.4903,7.4903,7.4903,7.4903,7.4903,7.4903,7.4903,7.4903,7.4903,7.4903,7.5318,7.5886,7.5766,7.6634,7.7801,7.7652,7.816,7.8789,7.8789,7.8789,7.8789,7.8789,7.8789,7.8789,7.8789,7.8789,7.8789,7.8789,7.8789,7.9118,8.0345,8.0704,8.1153,8.2387,8.3217,8.3897,8.4594,8.5252,8.591,8.6608,8.6728,8.6728,8.6728,8.6728,8.6728,8.6728,8.6728,8.6728,8.6728,8.618,8.612,8.6668,8.5671,8.5581,8.6668,8.615,8.609,8.6519,8.6638,8.6668,8.6519,8.6668,8.6369,8.5632,8.2846,7.994,0.0,0.0,0.0,0.0,4.8192,0.0,0.0,0.0,5.1799,5.2662,0.0,5.3268,5.4005,0.0,0.0,5.4411,5.7635,6.0086,6.0028,6.3718,6.7137,6.9058,7.0889,7.1906,7.1797,7.0991,7.1218,7.3013,7.1517,7.158,7.3881,7.3462,7.3672,7.4873,7.3762,7.3402,7.4001,7.4001,7.4001,7.4001,7.4634,7.4903,7.4903,7.4903,7.4903,7.4903,7.4903,7.4903,7.4903,7.4903,7.4903,7.4903,7.4903,7.4903,7.4903,7.4903,7.5318,7.5826,7.5198,7.6215,7.7711,7.7108,7.7771,7.8789,7.8789,7.8789,7.8789,7.8789,7.8789,7.8789,7.8789,7.8789,7.8789,7.8789,7.8789,7.8998,7.9776,8.0375,8.1003,8.1789,8.2888,8.3897,8.4594,8.5252,8.591,8.6608,8.6728,8.6728,8.6728,8.6728,8.6728,8.6728,8.6728,8.6728,8.6728,8.6638,8.6638,8.6728,8.6578,8.6549,8.6698,8.6638,8.6329,8.5821,8.6389,8.6389,8.5791,8.6389,8.6369,8.5632,8.3243,8.0297,0.0,0.0,0.0,0.0,0.0,0.0,0.0,0.0,4.8646,0.0,0.0,0.0,0.0,0.0,0.0,0.0,5.3065,5.4646,5.4988,5.7375,6.0908,6.5808,6.7378,6.8314,6.9032,7.016,7.1045,7.1394,7.0967,7.136,7.2841,7.2532,7.2744,7.3702,7.3582,7.3432,7.3343,7.3702,7.3881,7.3881,7.3791,7.4151,7.4903,7.448,7.451,7.4903,7.4903,7.4903,7.4903,7.4903,7.4903,7.4903,7.4903,7.4903,7.4903,7.4903,7.5318,7.5796,7.5108,7.6155,7.7831,7.7921,7.8071,7.828,7.8669,7.8789,7.8789,7.8789,7.8789,7.8789,7.8789,7.8789,7.8789,7.8789,7.8789,7.8968,7.9686,8.0345,8.1003,8.1661,8.2828,8.3777,8.4047,8.5013,8.591,8.6608,8.6359,8.624,8.6668,8.6329,8.612,8.612,8.6489,8.6549,8.615,8.6489,8.6728,8.6728,8.6728,8.6549,8.612,8.6519,8.6578,8.627,8.6578,8.6578,8.627,8.6578,8.5674,8.3654,8.2327,8.0082,5.0969,0.0,0.0,0.0,0.0,0.0,0.0,0.0,0.0,0.0,0.0,0.0,0.0,0.0,0.0,0.0,0.0,5.062,5.0877,5.2458,0.0,6.1611,6.339,0.0,6.5911,6.7894,6.911,6.9205,6.9483,7.025,7.1593,7.1539,7.1808,7.2595,7.2924,7.2924,7.2624,7.3103,7.3343,7.3343,7.3043,7.3402,7.433,7.4031,7.4151,7.4663,7.4843,7.4903,7.4903,7.4903,7.4903,7.4903,7.4903,7.4903,7.4903,7.4903,7.5198,7.5557,7.5083,7.5916,7.7412,7.825,7.819,7.7921,7.8579,7.8789,7.8789,7.8789,7.8789,7.8789,7.8789,7.8789,7.8789,7.8789,7.8789,7.8938,7.9417,8.0045,8.0734,8.1392,8.2559,8.3517,8.3658,8.4684,8.5581,8.606,8.5731,8.5671,8.6329,8.5821,8.5551,8.591,8.624,8.621,8.5731,8.6299,8.6728,8.6728,8.6728,8.6449,8.597,8.6459,8.6638,8.6459,8.6638,8.6638,8.6459,8.6638,8.5253,8.2483,8.189,7.9639,0.0,0.0,0.0,5.2187,0.0,0.0,0.0,0.0,4.7371,0.0,0.0,0.0,0.0,0.0,0.0,0.0,0.0,0.0,0.0,0.0,0.0,0.0,0.0,0.0,0.0,6.2686,6.3773,6.6334,6.6071,6.7133,7.0221,7.0343,7.0852,7.1879,7.1308,7.1308,7.1939,7.1936,7.1936,7.1966,7.2595,7.2924,7.3013,7.3612,7.3911,7.3971,7.4634,7.4903,7.4903,7.4903,7.4903,7.4903,7.4903,7.4903,7.4903,7.4903,7.4933,7.4933,7.4933,7.5347,7.6185,7.7442,7.7831,7.7921,7.8579,7.8789,7.8789,7.8789,7.8789,7.8789,7.8789,7.8789,7.8789,7.8789,7.8789,7.8789,7.8819,7.9357,8.0045,8.0704,8.1938,8.3016,8.3598,8.4256,8.4743,8.4773,8.4773,8.4983,8.5641,8.5162,8.5222,8.6549,8.609,8.5731,8.5701,8.6299,8.6728,8.6728,8.6728,8.6698,8.6698,8.6698,8.6389,8.5731,8.6359,8.6399,8.5731,8.6359,8.549,8.3145,8.2512,7.9115,0.0,0.0,6.0924,5.9189,0.0,0.0,0.0,0.0,0.0,0.0,0.0,0.0,0.0,0.0,0.0,0.0,0.0,0.0,0.0,0.0,4.7979,0.0,0.0,0.0,0.0,0.0,0.0,0.0,6.3527,0.0,6.6338,6.8042,6.9275,6.9963,7.059,7.1009,7.1248,7.1667,7.1876,7.1876,7.1667,7.2056,7.2924,7.3133,7.3492,7.3941,7.4634,7.4903,7.4903,7.4903,7.4903,7.4903,7.4903,7.4903,7.4903,7.4903,7.5168,7.5617,7.6036,7.6066,7.6125,7.7382,7.7502,7.7382,7.846,7.8489,7.822,7.8669,7.8789,7.8789,7.8789,7.8789,7.8789,7.8789,7.8789,7.8789,7.8789,7.9327,8.0016,8.0674,8.1512,8.2357,8.2978,8.3277,8.3726,8.4594,8.4714,8.4953,8.5611,8.5103,8.4893,8.5342,8.5581,8.5342,8.4474,8.5402,8.603,8.603,8.6459,8.6728,8.6728,8.6728,8.6608,8.6399,8.6569,8.6608,8.6329,8.6608,8.4701,8.088,8.0656,7.8274,6.4275,6.5233,0.0,6.3558,6.1283,0.0,5.3688,0.0,0.0,0.0,0.0,0.0,0.0,0.0,0.0,0.0,0.0,0.0,0.0,4.3763,0.0,0.0,0.0,0.0,0.0,0.0,0.0,0.0,0.0,0.0,0.0,6.5856,6.7599,6.8257,6.9782,7.0679,7.0889,7.1338,7.1547,7.1517,7.1338,7.1697,7.2565,7.3043,7.3492,7.3941,7.4634,7.4903,7.4903,7.4903,7.4903,7.4903,7.4903,7.4903,7.4903,7.4903,7.5168,7.5587,7.6006,7.5886,7.5736,7.7053,7.7137,7.7048,7.84,7.8489,7.825,7.8669,7.8789,7.8789,7.8789,7.8789,7.8789,7.8789,7.8789,7.8789,7.8789,7.9148,7.9716,8.0614,8.0943,8.1452,8.2597,8.2597,8.2806,8.3846,8.4205,8.4504,8.4953,8.4833,8.4714,8.4714,8.5312,8.5462,8.4833,8.5342,8.5791,8.603,8.6449,8.6728,8.6728,8.6728,8.6938,8.7377,8.6968,8.6938,8.7417,8.6938,8.4264,7.9687,7.9687,7.7424]}]]